[[{"header":{"parameterUnit":"m.s-1","parameterCategory":1,"la1":30.6,"la2":29.2853,"lo1":-89.7004,"lo2":-87.6739,"dy":0.0162,"dx":0.0183,"nx":112,"ny":82,"refTime":"2026-03-14T12:00:00:Z","depth":0,"parameterNumber":2,"parameterNumberName":"U-component_of_WINDS"},"data":[0.0,0.0,0.0,0.0,0.0,0.0,0.0,0.0,0.0,0.0,0.0,0.0,0.0,0.0,0.0,0.0,0.0,0.0,0.0,0.0,0.0,0.0,0.0,0.0,0.0,0.0,0.0,0.0,0.0,0.0,0.0,0.0,0.0,0.0,0.0,0.0,0.0,0.0,0.0,0.0,0.0,0.0,0.0,0.0,0.0,0.0,0.0,0.0,0.0,0.0,0.0,0.0,0.0,0.0,0.0,0.0,0.0,0.0,0.0,0.0,0.0,0.0,0.0,0.0,0.0,0.0,0.0,0.0,0.0,0.0,0.0,0.0,0.0,0.0,0.0,0.0,0.0,0.0,0.0,0.0,0.0,0.0,0.0,0.0,0.0,0.0,0.0,0.0,0.0,0.0,0.0,1.5017,1.5012,1.4538,1.3415,1.2858,1.1768,0.9908,0.0,0.0,0.0,0.0,0.0,0.0,0.0,0.0,0.0,0.0,0.0,0.0,0.0,0.0,0.0,0.0,0.0,0.0,0.0,0.0,0.0,0.0,0.0,0.0,0.0,0.0,0.0,0.0,0.0,0.0,0.0,0.0,0.0,0.0,0.0,0.0,0.0,0.0,0.0,0.0,0.0,0.0,0.0,0.0,0.0,0.0,0.0,0.0,0.0,0.0,0.0,0.0,0.0,0.0,0.0,0.0,0.0,0.0,0.0,0.0,0.0,0.0,0.0,0.0,0.0,0.0,0.0,0.0,0.0,0.0,0.0,0.0,0.0,0.0,0.0,0.0,0.0,0.0,0.0,0.0,0.0,0.0,0.0,0.0,0.0,0.0,0.0,0.0,0.0,0.0,0.0,0.0,0.0,0.0,0.0,0.0,0.0,0.0,0.0,0.0,0.0,0.0,0.0,0.0,1.4325,1.5166,1.5296,1.4815,1.3571,1.3125,1.2019,0.9846,0.0,0.0,0.0,0.0,0.0,0.0,0.0,0.0,0.0,0.0,0.0,0.0,0.0,0.0,0.0,0.0,0.0,0.0,0.0,0.0,0.0,0.0,0.0,0.0,0.0,0.0,0.0,0.0,0.0,0.0,0.0,0.0,0.0,0.0,0.0,0.0,0.0,0.0,0.0,0.0,0.0,0.0,0.0,0.0,0.0,0.0,0.0,0.0,0.0,0.0,0.0,0.0,0.0,0.0,0.0,0.0,0.0,0.0,0.0,0.0,0.0,0.0,0.0,0.0,0.0,0.0,0.0,0.0,0.0,0.0,0.0,0.0,0.0,0.0,0.0,0.0,0.0,0.0,0.0,0.0,0.0,0.0,0.0,0.0,0.0,0.0,0.0,0.0,0.0,0.0,0.0,0.0,0.0,0.0,0.0,0.0,0.0,0.0,0.0,0.0,0.0,0.0,0.0,1.4734,1.5105,1.529,1.5352,1.5011,1.4013,1.328,1.2127,1.0307,0.9334,0.0,0.0,0.0,0.0,0.0,0.0,0.0,0.0,0.0,0.0,0.0,0.0,0.0,0.0,0.0,0.0,0.0,0.0,0.0,0.0,0.0,0.0,0.0,0.0,0.0,0.0,0.0,0.0,0.0,0.0,0.0,0.0,0.0,0.0,0.0,0.0,0.0,0.0,0.0,0.0,0.0,0.0,0.0,0.0,0.0,0.0,0.0,0.0,0.0,0.0,0.0,0.0,0.0,0.0,0.0,0.0,0.0,0.0,0.0,0.0,0.0,0.0,0.0,0.0,0.0,0.0,0.0,0.0,0.0,0.0,0.0,0.0,0.0,0.0,0.0,0.0,0.0,0.0,0.0,0.0,0.0,0.0,0.0,0.0,0.0,0.0,0.0,0.0,0.0,0.0,0.0,0.0,0.0,0.0,0.0,0.0,0.0,0.0,0.0,0.0,0.0,0.0,1.5822,1.6138,1.566,1.5506,1.5109,1.4316,1.3247,1.2012,1.0564,0.9371,0.0,0.0,0.0,0.0,0.0,0.0,0.0,0.0,0.0,0.0,0.0,0.0,0.0,0.0,0.0,0.0,0.0,0.0,0.0,0.0,0.0,0.0,0.0,0.0,0.0,0.0,0.0,0.0,0.0,0.0,0.0,0.0,0.0,0.0,0.0,0.0,0.0,0.0,0.0,0.0,0.0,0.0,0.0,0.0,0.0,0.0,0.0,0.0,0.0,0.0,0.0,0.0,0.0,0.0,0.0,0.0,0.0,0.0,0.0,0.0,0.0,0.0,0.0,0.0,0.0,0.0,0.0,0.0,0.0,0.0,0.0,0.0,0.0,0.0,0.0,0.0,0.0,0.0,0.0,0.0,0.0,0.0,0.0,0.0,0.0,0.0,0.0,0.0,0.0,0.0,0.0,0.0,0.0,0.0,0.0,0.0,0.0,0.0,0.0,0.0,0.0,0.0,1.6375,1.6896,1.6555,1.5965,1.5151,1.4111,1.2877,1.1564,1.0123,0.915,0.0,0.0,0.0,0.0,0.0,0.0,0.0,0.0,0.0,0.0,0.0,0.0,0.0,0.0,0.0,0.0,0.0,0.0,0.0,0.0,0.0,0.0,0.0,0.0,0.0,0.0,0.0,0.0,0.0,0.0,0.0,0.0,0.0,0.0,0.0,0.0,0.0,0.0,0.0,0.0,0.0,0.0,0.0,0.0,0.0,0.0,0.0,0.0,0.0,0.0,0.0,0.0,0.0,0.0,0.0,0.0,0.0,0.0,0.0,0.0,0.0,0.0,0.0,0.0,0.0,0.0,0.0,0.0,0.0,0.0,0.0,0.0,0.0,0.0,0.0,0.0,0.0,0.0,0.0,0.0,0.0,0.0,0.0,0.0,0.0,0.0,0.0,0.0,0.0,0.0,0.0,0.0,0.0,0.0,0.0,0.0,0.0,0.0,0.0,0.0,0.0,0.0,1.6187,1.6927,0.0,1.6072,1.5551,1.4804,1.3459,1.2047,1.0581,0.0,0.0,0.0,0.0,0.0,0.0,0.0,0.0,0.0,0.0,0.0,0.0,0.0,0.0,0.0,0.0,0.0,0.0,0.0,0.0,0.0,0.0,0.0,0.0,0.0,0.0,0.0,0.0,0.0,0.0,0.0,0.0,0.0,0.0,0.0,0.0,0.0,0.0,0.0,0.0,0.0,0.0,0.0,0.0,0.0,0.0,0.0,0.0,0.0,0.0,0.0,0.0,0.0,0.0,0.0,0.0,0.0,0.0,0.0,0.0,0.0,0.0,0.0,0.0,0.0,0.0,0.0,0.0,0.0,0.0,0.0,0.0,0.0,0.0,0.0,0.0,0.0,0.0,0.0,0.0,0.0,0.0,0.0,0.0,0.0,0.0,0.0,0.0,0.0,0.0,0.0,0.0,0.0,0.0,0.0,0.0,0.0,0.0,0.0,0.0,0.0,0.0,1.498,1.6311,1.6991,0.0,1.6239,1.5743,1.4933,1.3647,1.2219,1.0653,0.0,0.0,0.0,0.0,0.0,0.0,0.0,0.0,0.0,0.0,0.0,0.0,0.0,0.0,0.0,0.0,0.0,0.0,0.0,0.0,0.0,0.0,0.0,0.0,0.0,0.0,0.0,0.0,0.0,0.0,0.0,0.0,0.0,0.0,0.0,0.0,0.0,0.0,0.0,0.0,0.0,0.0,0.0,0.0,0.0,0.0,0.0,0.0,0.0,0.0,0.0,0.0,0.0,0.0,0.0,0.0,0.0,0.0,0.0,0.0,0.0,0.0,0.0,0.0,0.0,0.0,0.0,0.0,0.0,0.0,0.0,0.0,0.0,0.0,0.0,0.0,0.0,0.0,0.0,0.0,0.0,0.0,0.0,0.0,0.0,0.0,0.0,0.0,0.0,0.0,0.0,0.0,0.0,0.0,0.0,0.0,0.0,0.0,0.0,0.0,0.0,0.0,1.5934,1.6791,1.7233,1.6752,1.6463,1.5725,1.4253,1.326,1.1961,0.0,0.0,0.0,0.0,0.0,0.0,0.0,0.0,0.0,0.0,0.0,0.0,0.0,0.0,0.0,0.0,0.0,0.0,0.0,0.0,0.0,0.0,0.0,0.0,0.0,0.0,0.0,0.0,0.0,0.0,0.0,0.0,0.0,0.0,0.0,0.0,0.0,0.0,0.0,0.0,0.0,0.0,0.0,0.0,0.0,0.0,0.0,0.0,0.0,0.0,0.0,0.0,0.0,0.0,0.0,0.0,0.0,0.0,0.0,0.0,0.0,0.0,0.0,0.0,0.0,0.0,0.0,0.0,0.0,0.0,0.0,0.0,0.0,0.0,0.0,0.0,0.0,0.0,0.0,0.0,0.0,0.0,0.0,0.0,0.0,0.0,0.0,0.0,0.0,0.0,0.0,0.0,0.0,0.0,0.0,0.0,0.0,0.0,0.0,0.0,0.0,0.0,0.0,1.4522,1.6052,1.6982,1.6414,1.6696,1.6388,1.5,1.4506,1.3297,1.1052,0.0,0.0,0.0,0.0,0.0,0.0,0.0,0.0,0.0,0.0,0.0,0.0,0.0,0.0,0.0,0.0,0.0,0.0,0.0,0.0,0.0,0.0,0.0,0.0,0.0,0.0,0.0,0.0,0.0,0.0,0.0,0.0,0.0,0.0,0.0,0.0,0.0,0.0,0.0,0.0,0.0,0.0,0.0,0.0,0.0,0.0,0.0,0.0,0.0,0.0,0.0,0.0,0.0,0.0,0.0,0.0,0.0,0.0,0.0,0.0,0.0,0.0,0.0,0.0,0.0,0.0,0.0,0.0,0.0,0.0,0.0,0.0,0.0,0.0,0.0,0.0,0.0,0.0,0.0,0.0,0.0,0.0,0.0,0.0,0.0,0.0,0.0,0.0,0.0,0.0,0.0,0.0,0.0,0.0,0.0,0.0,0.0,0.0,0.0,0.0,0.0,0.0,1.3952,1.5454,1.642,1.6045,1.6599,1.6473,1.5232,1.4977,1.3948,1.1664,0.0,0.0,0.0,0.0,0.0,0.0,0.0,0.0,0.0,0.0,0.0,0.0,0.0,0.0,0.0,0.0,0.0,0.0,0.0,0.0,0.0,0.0,0.0,0.0,0.0,0.0,0.0,0.0,0.0,0.0,0.0,0.0,0.0,0.0,0.0,0.0,0.0,0.0,0.0,0.0,0.0,0.0,0.0,0.0,0.0,0.0,0.0,0.0,0.0,0.0,0.0,0.0,0.0,0.0,0.0,0.0,0.0,0.0,0.0,0.0,0.0,0.0,0.0,0.0,0.0,0.0,0.0,0.0,0.0,0.0,0.0,0.0,0.0,0.0,0.0,0.0,0.0,0.0,0.0,0.0,0.0,0.0,0.0,0.0,0.0,0.0,0.0,0.0,0.0,0.0,0.0,0.0,0.0,0.0,0.0,0.0,0.0,0.0,0.0,0.0,0.0,0.0,1.3963,1.4981,1.5716,1.5643,1.6238,1.6209,1.5146,1.5014,1.4142,1.2156,0.0,0.0,0.0,0.0,0.0,0.0,0.0,0.0,0.0,0.0,0.0,0.0,0.0,0.0,0.0,0.0,0.0,0.0,0.0,0.0,0.0,0.0,0.0,0.0,0.0,0.0,0.0,0.0,0.0,0.0,0.0,0.0,0.0,0.0,0.0,0.0,0.0,0.0,0.0,0.0,0.0,0.0,0.0,0.0,0.0,0.0,0.0,0.0,0.0,0.0,0.0,0.0,0.0,0.0,0.0,0.0,0.0,0.0,0.0,0.0,1.2688,0.0,0.0,0.0,0.0,0.0,0.0,0.0,0.0,0.0,0.0,0.0,0.0,0.0,0.0,0.0,0.0,0.0,0.0,0.0,0.0,0.0,0.0,0.0,0.0,0.0,0.0,0.0,0.0,0.0,0.0,0.0,0.0,0.0,0.0,0.0,0.0,0.0,0.0,0.0,0.0,0.0,1.324,1.4382,1.5249,1.5298,1.6259,1.6484,1.5488,1.5539,1.4863,1.3204,0.0,0.0,0.0,0.0,0.0,0.0,0.0,0.0,0.0,0.0,0.0,0.0,0.0,0.0,0.0,0.0,0.0,0.0,0.0,0.0,0.0,0.0,0.0,0.0,0.0,0.0,0.0,0.0,0.0,0.0,0.0,0.0,0.0,0.0,0.0,0.0,0.0,0.0,0.0,0.0,0.0,0.0,0.0,0.0,0.0,0.0,0.0,0.0,0.0,0.0,0.0,0.0,0.0,0.0,0.0,0.0,0.0,0.0,0.0,0.0,0.0,1.2531,0.0,0.0,0.0,0.0,0.0,0.0,0.0,0.0,0.0,0.0,0.0,0.0,0.0,0.0,0.0,0.0,0.0,0.0,0.0,0.0,0.0,0.0,0.0,0.0,0.0,0.0,0.0,0.0,0.0,0.0,0.0,0.0,0.0,0.0,0.0,0.0,0.0,0.0,0.0,0.0,1.3323,1.4378,1.5165,1.5204,1.6377,1.683,1.6017,1.6222,1.5823,1.4547,1.3497,0.0,0.0,0.0,0.0,0.0,0.0,0.0,0.0,0.0,0.0,0.0,0.0,0.0,0.0,0.0,0.0,0.0,0.0,0.0,0.0,0.0,0.0,0.0,0.0,0.0,0.0,0.0,0.0,0.0,0.0,0.0,0.0,0.0,0.0,0.0,0.0,0.0,0.0,0.0,0.0,0.0,0.0,0.0,0.0,0.0,0.0,0.0,0.0,0.0,0.0,0.0,0.0,0.0,1.4139,1.4574,1.4891,1.4509,1.4325,1.4245,1.3063,1.2219,1.1723,0.0,0.0,0.0,0.0,0.0,0.0,0.0,0.0,0.0,0.0,0.0,0.0,0.0,0.0,0.0,0.0,0.0,0.0,0.0,0.0,0.0,0.0,0.0,0.0,0.0,1.0904,1.1118,0.0,0.0,0.0,0.0,0.0,0.0,0.0,0.0,0.0,0.0,0.0,0.0,1.3755,1.4574,1.5169,1.5245,1.6413,1.7036,1.6572,1.6807,1.6639,1.5784,1.4763,1.3933,0.0,0.0,0.0,0.0,0.0,0.0,0.0,0.0,0.0,0.0,0.0,0.0,0.0,0.0,0.0,0.0,0.0,0.0,0.0,0.0,0.0,0.0,0.0,0.0,0.0,0.0,0.0,0.0,0.0,0.0,0.0,0.0,0.694,0.7931,0.0,0.0,0.0,0.0,0.0,0.0,0.0,0.0,0.0,0.0,0.0,0.0,0.0,1.3383,1.4312,1.486,1.493,1.4523,1.4387,1.4116,1.3696,1.2904,1.2485,1.232,1.1518,0.0,1.1795,1.1988,0.0,0.0,0.0,0.0,0.0,0.0,0.0,0.0,0.0,0.0,0.0,0.0,0.0,0.0,0.0,0.0,0.0,0.0,0.0,0.0,0.0,0.0,0.9589,0.9497,1.0323,1.1072,0.0,1.135,1.1769,1.1313,1.1392,0.0,0.0,0.0,0.0,0.0,0.0,0.0,1.4156,1.4582,1.5007,1.5425,1.6262,1.6872,1.7081,1.697,1.6727,1.633,1.4971,1.4072,1.381,1.2586,0.0,0.0,0.0,0.0,0.0,0.0,0.0,0.0,0.0,0.0,0.0,0.0,0.0,0.0,0.0,0.0,0.0,0.0,0.0,0.0,0.0,0.0,0.0,0.0,0.0,0.0,0.0,0.0,0.0,0.5386,0.7789,0.8268,0.75,0.6729,0.0,0.0,0.0,0.0,0.0,0.0,0.0,0.0,0.0,1.4063,1.4032,1.4058,1.4174,1.4016,1.3125,1.1538,1.1177,1.0268,0.8939,0.8703,0.8185,0.7418,0.6985,0.6405,0.608,0.9861,0.9659,0.7,0.0,0.0,0.0,0.0,0.4195,0.4122,0.4013,0.3774,0.0,0.1552,0.0,0.0,0.0,0.0,0.0,0.0,0.0,0.0,0.0,0.0,0.0,0.5138,0.6458,0.7784,0.9476,1.0849,1.1821,0.0,1.2258,1.2464,1.2507,0.0,0.0,0.0,0.0,0.0,1.5274,1.5436,1.5635,1.6067,1.6707,1.7179,1.7339,1.7239,1.7037,1.6839,1.5243,1.4495,1.4908,1.3484,1.2869,0.0,0.0,0.0,0.0,0.0,0.0,0.0,0.0,0.0,0.0,0.0,0.0,0.0,0.0,0.0,0.0,0.0,0.0,0.0,0.0,0.0,0.0,0.0,0.0,0.0,0.0,0.0,0.0,0.6587,0.8453,0.8615,0.7935,0.7158,0.0,0.0,0.0,0.0,0.0,0.0,1.2058,1.3186,1.4047,1.4592,1.404,1.3396,1.2675,1.122,0.9412,0.7329,0.6414,0.506,0.334,0.3386,0.28,0.171,0.1508,0.0834,0.0305,0.5913,0.6024,0.2704,0.3082,0.1035,-0.2124,-0.2089,-0.2435,-0.2867,-0.2533,-0.2677,-0.3081,-0.3389,0.0,-0.4076,-0.3607,0.0,0.0,0.0,0.0,-0.4412,-0.4907,-0.4214,-0.2815,-0.0594,0.0923,0.29,0.6661,0.864,1.0248,0.0,1.2842,1.3179,1.3126,0.0,0.0,0.0,0.0,1.5486,1.6303,1.6283,1.6294,1.6584,1.6949,1.7193,1.7341,1.7204,1.7112,1.7009,1.5591,1.5019,1.5634,1.4453,1.3916,1.423,0.0,0.0,0.0,0.0,0.0,0.0,0.0,0.0,0.0,0.0,0.0,0.0,0.0,0.0,0.0,0.0,0.0,0.0,0.0,0.0,0.0,0.0,0.0,0.0,0.0,0.0,0.0,0.0,0.0,0.8928,0.8657,0.0,0.0,0.0,0.0,1.0495,1.1376,1.28,1.4974,1.4974,1.4897,1.4882,1.2598,1.082,0.9633,0.6169,0.3799,0.2514,0.0457,-0.1137,-0.2304,-0.2807,-0.3443,-0.4185,-0.4391,-0.4081,-0.3233,-0.0281,-0.0026,-0.1483,-0.133,-0.1876,-0.2735,-0.2617,-0.3423,-0.4497,-0.3979,-0.4676,-0.6382,-0.9909,-1.1323,-1.1497,-1.0651,-0.8756,0.0,0.0,-0.7188,-0.6934,-0.7845,-0.7611,-0.7154,-0.7244,-0.6114,-0.3475,0.2095,0.412,0.6317,0.0,1.2895,1.37,1.4369,0.0,1.4573,1.5314,1.5885,1.6402,1.689,1.6775,1.667,1.6677,1.6539,1.6579,1.6892,1.6813,1.6635,1.6433,1.5977,1.5675,1.5507,1.5248,1.4673,1.3733,1.3312,0.0,0.0,0.0,0.0,0.0,0.0,0.0,0.0,0.0,0.0,0.0,0.0,0.0,0.0,0.0,0.0,0.0,0.0,0.0,0.0,0.0,0.0,0.0,0.0,0.0,0.0,0.0,0.0,0.9541,0.8956,0.0,0.0,0.8848,0.9495,1.0043,1.1535,1.2397,1.2411,1.315,1.2482,1.0071,0.8364,0.5883,0.2538,-0.0097,-0.2792,-0.5533,-0.686,-0.8604,-1.0625,-1.081,-1.1223,-1.1826,-1.2015,-1.1967,-1.1713,-1.1204,-0.9521,-0.728,-0.7358,-0.9383,-1.232,-1.2802,-1.3211,-1.3623,-1.3905,-1.4169,-1.4541,-1.5577,-1.5683,-1.5544,-1.6235,-1.5744,-1.5195,-1.6353,-1.6342,-1.6168,-1.7078,-1.6728,-1.5693,-1.3892,-1.2814,-1.1061,-0.6907,-0.4843,-0.2982,-0.024,0.7099,1.2988,1.344,1.4185,1.4873,1.5314,1.591,1.6524,1.712,1.6991,1.6673,1.624,1.6119,1.5997,1.5758,1.5419,1.5402,1.5806,1.492,1.4627,1.5222,1.4754,1.4384,1.4164,1.3599,1.2765,0.0,0.0,0.0,0.0,0.0,0.0,0.0,0.0,0.0,0.0,0.0,0.0,0.0,0.0,0.0,0.0,0.0,0.0,0.0,0.0,0.0,0.0,0.0,0.0,0.0,0.0,1.0237,0.9993,0.9576,0.8885,0.783,0.8681,0.918,0.8869,1.0609,1.1145,0.9851,1.0098,0.8516,0.4695,0.2331,-0.06,-0.4166,-0.7074,-0.975,-1.2186,-1.3446,-1.5051,-1.6969,-1.6985,-1.7311,-1.7867,-1.8,-1.78,-1.7462,-1.8468,-1.6686,-1.3297,-1.3227,-1.5244,-1.8286,-1.8932,-1.9461,-1.9904,-2.0525,-2.0485,-2.005,-1.9459,-1.9124,-1.9101,-2.0068,-2.0471,-2.084,-2.2054,-2.2167,-2.2116,-2.3009,-2.2825,-2.1939,-2.0019,-1.9269,-1.7966,-1.4206,-1.2266,-1.0573,-0.8248,0.2169,1.0783,1.1327,1.4071,1.628,1.6468,1.6979,1.7508,1.7926,1.7692,1.7206,1.6386,1.5908,1.5407,1.4881,1.4287,1.4185,1.4736,1.4161,1.408,1.4664,1.4473,1.4341,1.4308,1.3523,1.2594,1.156,0.0,0.0,0.0,0.0,0.0,0.0,0.0,0.0,0.0,0.0,0.0,0.0,0.0,0.0,0.0,0.0,0.0,0.0,0.0,0.0,0.0,0.0,0.0,0.9599,1.0073,1.0233,1.0195,1.0396,0.9292,0.6102,0.7134,0.7686,0.6962,0.838,0.8737,0.7465,0.5827,0.3054,-0.1035,-0.5312,-0.8406,-1.0185,-1.4566,-1.6841,-1.703,-1.8957,-2.0237,-2.0918,-2.0967,-2.1349,-2.1981,-2.1981,-2.1163,-1.9969,-2.1451,-2.0978,-1.9267,-1.864,-1.8905,-1.9673,-2.0014,-2.1084,-2.2443,-2.2874,-2.2757,-2.232,-2.1596,-2.1834,-2.24,-2.2284,-2.2701,-2.3328,-2.3917,-2.3935,-2.3982,-2.4893,-2.5195,-2.528,-2.5413,-2.5299,-2.3922,-1.9366,-1.7756,-1.601,-1.1982,-0.177,0.6597,0.7733,1.3498,1.7983,1.8026,1.839,0.0,1.8534,1.8219,1.7657,1.6765,1.5518,1.4583,1.4234,1.3416,1.3066,1.3345,1.385,1.4065,1.3882,1.451,1.4623,1.4101,1.3021,1.2004,1.0979,0.0,0.0,0.0,0.0,0.0,0.0,0.0,0.0,0.0,0.0,0.0,0.0,0.0,0.0,0.0,0.0,0.0,0.0,0.0,0.0,0.0,0.0,0.917,0.967,1.0837,1.067,0.807,0.7309,0.5485,0.1593,0.1164,0.0894,0.0355,0.0284,-0.0218,-0.1351,-0.2858,-0.5384,-0.9093,-1.1653,-1.4304,-1.712,-1.91,-2.0491,-2.1288,-2.15,-2.2233,-2.3335,-2.3099,-2.3316,-2.3843,-2.3809,-2.3508,-2.3065,-2.3392,-2.3058,-2.2223,-2.1167,-2.0629,-2.051,-2.0908,-2.1506,-2.2235,-2.307,-2.3354,-2.349,-2.4384,-2.4842,-2.5116,-2.5432,-2.5609,-2.5714,-2.5731,-2.5696,-2.5712,-2.5911,-2.6099,-2.6236,-2.632,-2.6463,-2.6256,-2.5149,-2.4322,-2.3511,-2.2561,-1.496,-0.7871,-0.5293,-0.2542,-0.0797,-0.1076,0.0381,0.0,0.1343,0.1984,0.3706,0.6953,0.6896,0.8103,1.1799,1.1897,1.1949,1.2432,1.2797,1.3103,1.3454,1.377,1.3933,1.3863,1.2973,1.2555,0.0,0.0,0.0,0.0,0.0,0.0,0.0,0.0,0.0,0.0,0.0,0.0,0.0,0.0,0.0,0.0,0.0,0.0,0.0,0.0,0.0,0.0,0.9322,0.9939,0.8118,0.8691,0.8631,0.6803,0.3894,0.0535,-0.3284,-0.3956,-0.4811,-0.6407,-0.6241,-0.6771,-0.8375,-0.9852,-1.2202,-1.5515,-1.7501,-1.9397,-2.1263,-2.2312,-2.3044,-2.3507,-2.3417,-2.3909,-2.4855,-2.4636,-2.4729,0.0,-2.5013,-2.476,-2.441,-2.4574,-2.4048,0.0,0.0,0.0,0.0,0.0,-2.2365,-2.276,-2.3711,-2.4141,-2.4391,-2.5304,-2.5818,-2.6148,-2.6325,-2.6537,-2.6674,-2.6556,-2.6418,-2.6365,-2.6555,-2.6521,-2.6538,-2.6791,-2.6973,-2.7222,-2.7787,-2.7247,-2.6937,-2.7901,-2.4159,0.0,-1.9137,-1.256,-0.74,-0.7221,-0.6516,-0.5687,-0.4824,-0.4067,-0.1433,0.4257,0.4201,0.5994,1.1489,1.1519,0.0,0.0,0.0,1.2787,1.3473,1.3676,0.0,0.0,0.0,0.0,0.0,0.0,0.0,0.0,1.4749,1.5555,0.0,0.0,0.0,0.0,0.0,0.0,0.0,0.0,0.0,0.0,0.0,0.0,0.0,0.0,0.0,0.0,0.9338,0.9472,0.5494,0.4323,0.412,0.4746,-0.0107,-0.4917,-0.8558,-0.8981,-1.0211,-1.307,-1.1994,-1.2139,-1.4282,0.0,0.0,0.0,0.0,-2.3533,-2.3552,-2.4471,-2.4735,-2.4377,-2.4716,-2.517,-2.5642,-2.568,-2.5768,-2.5907,-2.5907,-2.5495,-2.487,-2.5311,-2.451,-2.3096,-2.3608,-2.3202,-2.2427,-2.3113,-2.3429,-2.367,-2.4624,0.0,0.0,-2.527,-2.5776,-2.6271,-2.6102,-2.6409,-2.6808,-2.6791,-2.659,-2.6436,-2.6788,-2.6674,-2.6539,-2.6918,-2.7035,-2.7308,-2.8221,-2.7664,-2.7532,-2.936,-2.9503,-2.9711,-3.0961,-1.909,-0.916,-0.8334,-0.8923,-0.873,-0.6738,-0.6175,-0.3139,0.4168,0.0,0.0,1.1924,1.163,1.1127,1.116,1.2074,1.297,1.3819,1.4056,1.4162,1.4248,1.4729,1.4916,1.4742,1.5376,1.59,1.6262,1.6364,1.6825,0.0,0.0,0.0,0.0,0.0,0.0,0.0,0.0,0.0,0.0,0.0,0.0,0.0,0.0,0.0,0.5201,0.419,0.3084,0.2693,-0.1694,-0.4735,-0.4383,-0.6026,-0.9255,-1.4551,-1.6374,-1.7631,-1.8626,-1.9053,-1.9618,-2.0447,-2.1948,0.0,-2.4183,-2.5074,-2.5584,-2.5705,-2.5753,-2.5654,-2.5399,0.0,0.0,-2.5923,-2.6155,-2.6612,-2.7231,-2.7125,-2.7042,-2.6946,-2.625,-2.5908,-2.5665,-2.3915,-2.3214,-2.3264,-2.4032,-2.4072,-2.3952,-2.5429,-2.5657,-2.5557,-2.6961,-2.749,-2.7555,-2.7566,-2.7534,0.0,-2.7386,-2.7369,-2.7211,-2.6344,-2.6776,-2.7272,-2.6618,-2.6981,-2.7546,-2.7729,-2.7411,-2.7361,-2.827,-2.8357,-2.8596,-2.961,-2.8208,-2.7006,-2.7249,-2.5743,-2.4496,-2.4277,-2.2309,-1.6898,-0.6386,-0.5086,-0.0979,0.8922,1.0287,1.0522,1.0274,1.2058,1.3497,1.4236,1.4719,1.5042,1.5226,1.5442,1.5771,1.6175,1.6631,1.7239,1.7921,1.7307,1.7357,0.0,0.0,0.0,0.0,0.0,0.0,0.0,0.0,0.0,0.0,0.0,0.0447,0.0,0.0,0.1682,0.238,0.1314,-0.0388,-0.264,-0.5549,-0.7325,-0.6988,-1.0741,-1.4787,-1.846,-2.0321,-2.164,-2.2437,-2.3088,-2.3606,-2.393,-2.479,-2.5416,-2.578,-2.6165,-2.6366,-2.6452,-2.6279,-2.6173,-2.6155,-2.5774,-2.5895,-2.6452,-2.6556,-2.6877,-2.7352,-2.7284,-2.7284,-2.7284,-2.6454,-2.6199,-2.6259,-2.5206,-2.4763,-2.4756,-2.5266,-2.5054,-2.4698,-2.6004,-2.6314,-2.6299,-2.7164,-2.7723,-2.8046,-2.8014,-2.7864,-2.7701,-2.7751,-2.7627,-2.7517,-2.7639,-2.7622,-2.7651,-2.7861,-2.8059,-2.822,-2.8248,-2.8252,-2.8459,-2.9161,-2.9245,-2.9502,-3.0434,-3.116,-3.1485,-3.116,-3.0475,-2.963,-2.863,-2.7333,-2.1454,-0.8211,-0.707,-0.2464,0.9389,1.0763,1.119,1.1617,1.3089,1.4308,1.5061,1.516,1.5373,1.5728,1.5902,1.6235,1.6742,1.6936,1.7313,1.7815,1.8097,1.8461,0.0,0.0,0.0,0.0,0.0,0.0,0.0,0.0,-0.3918,-0.366,-0.2613,-0.1688,-0.1462,-0.134,-0.1324,-0.1483,-0.2269,-0.432,-0.8557,-0.9107,-0.9068,-0.9063,-1.4671,-1.9179,-2.0846,-2.2355,-2.3666,-2.478,-2.5185,-2.5492,-2.5738,-2.5956,-2.6189,-2.6453,-2.6589,-2.6657,-2.6674,-2.6572,-2.6572,-2.6691,-2.6538,-2.6624,-2.6942,-2.7061,-2.7194,-2.7358,-2.7374,-2.7288,-2.7083,-2.6559,-2.6364,-2.6394,-2.6606,-2.6442,-2.6139,-2.6291,-2.5979,-2.5596,-2.6437,-2.6817,-2.6939,-2.7166,-2.7692,-2.8209,-2.8136,-2.7979,-2.7847,-2.8025,-2.7803,-2.7762,-2.8827,-2.8499,-2.8153,-2.918,-2.9237,-2.9068,-2.9145,-2.9306,-2.9609,-3.0139,-3.0187,-3.0392,-3.1175,-3.101,-3.0598,-3.007,-3.0665,-3.0435,-2.8419,-2.8132,-2.226,-0.7015,-0.6206,-0.1603,1.1105,1.167,1.1877,1.3222,1.4217,1.5145,1.6039,1.5755,1.5781,1.6217,1.6406,1.6672,1.7053,1.7027,1.716,1.7453,1.8601,1.9426,-0.5736,-0.5747,0.0,-0.6114,-0.6173,-0.6558,0.0,0.0,-0.7324,-0.66,-0.6118,-0.5326,-0.3605,-0.565,-0.7511,-0.7312,-0.9889,-1.2323,-1.343,-1.4041,-1.4869,-1.6258,-1.7702,-1.9431,-2.1573,-2.2847,-2.3959,-2.4985,-2.522,-2.5508,-2.5937,-2.6154,-2.64,-2.6657,-2.6809,-2.6893,-2.6958,-2.6942,-2.6942,-2.6958,-2.6989,-2.7021,-2.7104,-2.7856,-2.8232,-2.8248,-2.8314,-2.79,-2.7197,-2.7238,-2.7298,-2.7344,-2.7313,-2.7016,-2.6627,-2.6584,-2.65,-2.649,-2.6782,-2.6934,-2.716,-2.8111,-2.8347,-2.8313,-2.8484,-2.8375,-2.8259,-2.8327,-2.8313,-2.8232,-2.8096,-2.8682,-2.9266,-2.916,-2.9571,-2.9971,-3.0033,-2.9803,-2.9541,-2.9383,-2.9293,-2.9291,-2.945,-2.9025,-2.9273,-3.1105,-3.1177,-3.0658,-2.9623,-2.9075,-2.2685,-0.6762,-0.4917,0.0183,1.2538,1.1808,1.1423,1.3173,1.4604,1.5901,1.698,1.6985,1.6994,1.7063,1.709,1.7296,1.7699,1.7512,1.7723,1.8294,1.8708,1.9263,-0.5898,0.0,0.0,0.0,-0.8007,-0.8747,-0.9622,-0.964,-0.945,-0.9264,-0.9236,-0.9099,-0.8632,-1.0364,-1.1804,0.0,-1.3735,-1.5511,-1.5884,-1.6721,-1.7558,-1.8272,-1.9014,-2.0125,-2.1793,-2.2947,-2.3924,-2.4748,-2.522,-2.5619,-2.5917,-2.6133,-2.6347,-2.6623,-2.6742,-2.6859,-2.6991,-2.7039,-2.7105,-2.717,-2.7119,-2.7135,-2.7234,-2.7559,-2.7746,-2.7811,-2.7889,-2.7714,-2.7371,-2.7481,-2.7572,-2.7562,-2.7113,-2.6804,-2.6641,-2.657,-2.6071,-2.545,-2.5532,-2.5993,-2.6591,-2.7007,-2.7752,-2.8484,-2.8536,-2.8458,-2.8367,-2.8445,-2.838,-2.8474,-2.9269,-2.9401,-2.9496,-3.0198,-3.0517,-3.0807,-3.1214,-3.127,-3.1331,-3.1696,-3.1549,-3.1334,-3.1204,-3.0523,-3.0244,-3.1007,-3.0582,-3.0075,-2.9805,-2.9935,-2.3628,-0.6794,0.3504,1.0528,1.392,1.3382,1.2898,1.2959,1.459,1.6094,1.7316,1.7504,1.7588,1.7723,1.7387,1.7334,1.7612,1.7531,1.7673,1.8007,1.9183,1.9864,-0.6058,0.0,0.0,-0.8766,-0.9926,-1.0782,-1.1173,-1.1298,-1.1406,-1.1645,-1.1878,-1.2218,-1.2842,-1.3986,0.0,-1.4769,-1.6019,-1.7117,-1.7497,-1.7912,-1.8453,-1.9245,-1.9463,-2.0126,-2.1588,-2.2482,-2.3479,-2.4637,-2.4853,-2.5197,-2.5811,-2.5808,-2.5923,-2.6184,-2.6471,-2.6522,-2.6312,-2.6627,-2.6739,-2.663,-2.6755,-2.6771,-2.6661,-2.6849,-2.7118,-2.7438,-2.7496,-2.7526,-2.7542,-2.7585,-2.7537,-2.735,-2.6823,-2.6363,-2.6004,-2.5922,-2.5469,-2.4872,-2.473,-2.5356,-2.6204,-2.6215,-2.7024,-2.8021,-2.8226,-2.8198,-2.8162,-2.8456,-2.8497,-2.8788,-3.0128,-3.0095,-3.0066,-3.1421,-3.1672,-3.176,-3.2399,-3.2606,-3.2771,-3.3225,-3.3134,-3.2818,-3.2412,-3.1647,-3.0963,-3.0607,-3.0237,-2.9911,-2.9725,-2.7869,-2.0787,-0.5679,0.8102,1.6093,1.583,1.5129,1.4183,1.2949,1.4451,1.6009,1.7462,1.7735,1.8031,1.8335,1.7743,1.7533,1.7669,1.7669,1.7791,1.8072,1.9515,2.0232,0.0,0.0,-0.8805,-1.0736,-1.1588,-1.2196,-1.3189,-1.3415,-1.3477,-1.366,-1.391,-1.4323,-1.4974,-1.5834,-1.644,-1.6433,-1.7013,-1.7758,-1.8536,-1.7452,-1.754,-2.0137,-1.9102,-1.8921,0.0,-2.1298,-2.2467,-2.4909,-2.3962,-2.3985,-2.5619,-2.5102,-2.4866,-2.5143,-2.5963,-2.5816,-2.4591,-2.5554,-2.5693,-2.4989,-2.5754,-2.5749,-2.5092,-2.587,-2.669,-2.7496,-2.7572,-2.7602,-2.7602,-2.7657,-2.728,-2.6616,-2.6598,-2.5764,-2.4539,-2.442,-2.4921,-2.5577,-2.5062,-2.5477,-2.6227,-2.6425,-2.6491,-2.6617,-2.747,-2.7537,-2.7511,-2.8357,-2.8864,-2.9322,-2.9951,-3.0595,-3.134,-3.2549,-3.2854,-3.2984,-3.3519,-3.3443,-3.3148,-3.2713,-3.273,-3.2585,-3.1857,-3.1204,-3.0607,-3.0025,-3.0525,-3.058,-2.954,-2.1373,-1.2087,-0.2706,0.4843,1.1881,1.8493,1.6673,1.464,1.3344,1.4238,1.5667,1.7501,1.7834,1.8304,1.8944,1.8383,1.8067,1.8063,1.8063,1.8378,1.8964,1.9538,2.0091,0.0,0.0,-1.0303,-1.2425,-1.3411,-1.4159,-1.5361,-1.5076,-1.4625,-1.4886,-1.4681,-1.477,-1.5753,-1.6225,-1.6463,-1.6553,-1.7438,-1.8001,-1.7742,-1.7708,-1.8004,-1.8872,-1.8932,0.0,0.0,0.0,0.0,-2.3409,-2.3331,-2.3499,-2.4129,-2.4423,-2.4448,-2.418,-2.506,-2.518,-2.443,-2.4807,-2.4961,-2.4903,-2.5261,-2.5305,-2.5077,-2.5392,-2.597,-2.671,-2.6819,-2.6912,-2.6938,-2.701,-2.6922,-2.6629,-2.5606,-2.5208,-2.5189,-2.4733,-2.4426,-2.4236,-2.4152,-2.4707,-2.5495,-2.5643,-2.6019,-2.6537,-2.7288,-2.7441,-2.7494,-2.8146,-2.8731,-2.9281,-2.9873,-3.0366,-3.0886,-3.166,-3.1803,-3.2024,-3.2912,-3.3004,-3.3151,-3.3978,-3.3624,-3.304,-3.2574,-3.18,-3.0946,-3.0029,-3.0196,-3.0499,-3.0812,-2.1988,-1.4495,-1.1297,-0.3306,0.4433,1.0939,0.8885,0.9112,1.3497,1.3886,1.4429,1.5549,1.7072,1.8149,1.8812,1.8341,1.819,1.8294,1.8294,1.8601,1.9168,2.0217,2.0907,0.0,-1.0128,-1.1812,-1.4317,-1.5012,-1.5382,-1.6539,-1.587,-1.5028,-1.5,-1.4645,-1.4547,-1.5187,-1.5539,-1.5807,-1.6123,-1.69,-1.7421,-1.7272,-1.7517,-1.7915,-1.8421,-1.883,0.0,0.0,0.0,0.0,-2.2474,-2.2625,-2.284,-2.3205,-2.3656,-2.3716,-2.3258,-2.4131,-2.4249,-2.3516,-2.3922,-2.4224,-2.443,-2.4301,-2.4541,-2.5086,-2.4924,-2.5397,-2.64,-2.618,-2.6321,-2.6623,-2.6366,-2.6153,-2.5879,-2.4908,-2.466,-2.4772,-2.4409,-2.3945,-2.3564,-2.4006,-2.4357,-2.4661,-2.4782,-2.516,-2.5768,-2.6731,-2.6971,-2.7084,-2.7951,-2.8542,-2.9051,-2.9665,-3.0128,-3.0649,-3.1521,-3.1659,-3.18,-3.259,-3.2741,-3.2927,-3.3705,-3.3414,-3.2879,-3.2375,-3.1374,-3.0381,-2.9568,-2.9592,-3.0068,-3.1078,-2.5591,-2.011,-1.6182,-1.0483,-0.4069,0.3033,0.3449,0.5122,0.9269,1.1414,1.3052,1.4247,1.6011,1.738,1.8187,1.7843,1.7756,1.7954,1.8204,1.8542,1.9068,2.0244,2.0977,-1.0091,-1.1634,-1.3313,-1.6231,-1.6297,-1.5882,-1.6815,-1.5891,-1.4722,-1.4225,-1.3981,-1.3759,0.0,0.0,-1.4636,-1.5207,-1.5571,-1.6127,-1.7038,-1.6911,-1.7267,0.0,0.0,0.0,0.0,0.0,0.0,-2.2094,0.0,-2.1984,-2.2738,-2.2835,-2.2678,-2.2345,-2.3177,-2.3078,-2.1913,-2.2868,-2.3398,-2.3525,-2.2976,-2.348,-2.4944,-2.4382,-2.5001,-2.6479,-2.5686,-2.5833,-2.6588,-2.5777,-2.5072,-2.4523,-2.455,-2.41,-2.3478,-2.3536,-2.3541,-2.3647,-2.4649,-2.4483,-2.3816,-2.3937,-2.4044,-2.4376,-2.5867,-2.6174,-2.6288,-2.7719,-2.8347,-2.8719,-2.9333,-2.9883,-3.0641,-3.2077,-3.2337,-3.2302,-3.2569,-3.263,-3.2512,-3.2089,-3.219,-3.2112,-3.1291,-3.0053,-2.9054,-2.8772,-2.8903,-2.9403,-3.0377,-3.1193,-2.7826,-1.7796,-1.6928,-1.356,-0.4934,0.0083,0.2425,0.163,0.734,1.1586,1.3482,1.4742,1.5946,1.7144,1.6937,1.6919,1.709,1.773,1.8259,1.8719,1.9621,2.0366,-1.0319,-1.2487,-1.4521,-1.609,-1.621,-1.6193,-1.7022,-1.5761,-1.4405,-1.453,-1.3762,-1.3074,0.0,0.0,0.0,-1.4038,-1.5039,0.0,-1.533,-1.6284,0.0,0.0,0.0,-1.8814,-1.9764,-1.9952,0.0,0.0,-2.0865,-2.0956,-2.1316,-2.1856,-2.1944,-2.1521,-2.2313,-2.2474,-2.1913,-2.2406,-2.268,-2.2708,-2.2654,-2.2838,-2.324,-2.3184,-2.4033,-2.5513,-2.4799,-2.5024,-2.5809,-2.5075,-2.475,-2.4665,-2.4028,-2.4052,-2.4456,-2.4473,-2.4063,-2.3635,-2.4588,-2.441,-2.3747,-2.3876,-2.3927,-2.4127,-2.5071,-2.5624,-2.6088,-2.685,-2.7779,-2.8657,-2.9214,-2.9756,-3.0349,-3.1199,-3.1361,-3.1381,-3.1561,-3.1731,-3.1918,-3.2036,-3.1902,-3.149,-3.0728,-3.0135,-2.9908,-3.0322,-2.9938,-2.9829,-3.0478,-3.0977,-3.0424,-2.8267,-2.8277,-2.4422,-1.4554,-1.0493,-0.5252,0.2291,0.7221,1.0356,1.1485,1.3233,1.4481,1.5148,1.58,1.6035,1.58,1.6486,1.7056,1.7497,1.8881,1.9829,-1.187,-1.3897,-1.5598,-1.654,-1.646,-1.6158,-1.6203,-1.5268,-1.4213,-1.363,-1.2968,0.0,0.0,0.0,0.0,0.0,0.0,0.0,-1.455,-1.5802,-1.676,0.0,-1.7874,0.0,-1.9367,-1.9503,-1.9686,0.0,-2.0479,-2.0684,-2.0494,-2.1217,-2.1294,-2.056,-2.1392,-2.1856,-2.1899,-2.2163,-2.2324,-2.2366,-2.2487,-2.2569,-2.2569,-2.2699,-2.3444,-2.4604,0.0,-2.4169,-2.4975,-2.4304,-2.4118,-2.4222,-2.3729,-2.383,-2.4276,-2.4212,-2.3868,-2.3489,-2.4051,-2.3931,-2.3567,-2.3779,-2.4099,-2.444,-2.4811,-2.5303,-2.5872,-2.6384,-2.7198,-2.8057,-2.863,-2.9004,-2.9473,-3.041,-3.0644,-3.069,-3.0787,-3.1016,-3.1234,-3.1369,-3.1227,-3.086,-3.0179,-2.9798,-2.9724,-3.0092,-2.9841,-2.9868,-3.0668,-3.1261,-3.1839,-3.2362,-3.2777,-3.0308,-2.3575,-1.6439,-0.956,-0.3049,0.5061,0.9904,1.0598,1.2161,1.3223,1.3688,1.4617,1.5009,1.4867,1.5549,1.6209,1.6866,1.8045,1.9047,-1.3689,-1.5228,-1.6295,-1.6948,-1.6545,-1.5742,-1.4915,-1.451,-1.3852,-1.239,0.0,0.0,-1.0733,0.0,-1.1185,-1.2053,0.0,-1.2967,-1.4243,-1.5399,-1.6231,-1.6605,-1.782,-1.8701,-1.8854,-1.8927,-1.9084,-1.9401,-2.0314,-2.0621,-2.0111,-2.0755,-2.0721,-1.9752,-2.0543,-2.116,-2.157,-2.1764,-2.1961,-2.2116,-2.2238,-2.2344,-2.2443,-2.2579,-2.3072,-2.3798,0.0,0.0,-2.4251,-2.3619,-2.3399,-2.3453,-2.3538,-2.352,-2.3419,-2.3383,-2.3324,-2.3277,-2.3336,-2.3395,-2.349,-2.3692,-2.4223,-2.4771,-2.4657,-2.505,-2.5637,-2.6033,-2.6647,-2.7305,-2.7929,-2.8101,-2.8442,-2.9731,-3.0036,-3.007,-3.0179,-3.0448,-3.0651,-3.0572,-3.0568,-3.0393,-2.9882,-2.9525,-2.9334,-2.9405,-2.9349,-2.9738,-3.0952,-3.171,-3.2305,-3.2764,-3.3281,-3.2203,-2.8773,-1.8122,-1.0553,-0.8064,0.3444,1.0218,1.0424,1.1472,1.2272,1.2742,1.3584,1.4087,1.4235,1.4792,1.5556,1.6496,1.7245,1.8169,-1.3509,-1.4812,-1.585,-1.5711,-1.5129,-1.459,-1.4403,-1.3471,0.0,0.0,0.0,-1.1277,-1.0508,-1.0612,0.0,-1.1115,0.0,0.0,0.0,0.0,-1.5918,0.0,0.0,0.0,0.0,0.0,0.0,0.0,0.0,-1.9718,-1.999,-2.0308,-2.0289,-1.9877,-2.0186,-2.0214,-1.9921,-2.0049,-2.0491,-2.122,-2.1189,-2.1488,-2.2084,-2.2217,-2.2751,-2.354,-2.2932,0.0,-2.4233,-2.3522,-2.2993,-2.2658,-2.3226,-2.3021,-2.2522,-2.3041,-2.3193,-2.3144,-2.3156,-2.3615,-2.4143,-2.3708,-2.3617,-2.3672,-2.3729,-2.4499,-2.5355,-2.5391,-2.6217,-2.7225,-2.7794,-2.8015,-2.8271,-2.896,-2.9179,-2.9289,-2.9642,-3.0153,-3.0609,-3.0855,-3.0915,-3.0865,-3.0767,-3.0617,-3.0613,-3.0944,-3.0072,-2.993,-3.1449,-3.1409,-3.1801,-3.3287,-3.3544,-2.9479,-1.9282,-1.3042,-0.5906,0.2978,0.9081,1.1823,1.0707,1.1322,1.1969,1.2545,1.35,1.3955,1.3904,1.417,1.487,1.5956,1.6697,1.7609,-1.448,-1.5515,-1.6104,-1.5716,-1.5047,-1.4232,-1.3259,0.0,0.0,0.0,0.0,-1.0403,-0.9577,0.0,0.0,0.0,0.0,0.0,0.0,0.0,0.0,0.0,0.0,0.0,0.0,0.0,0.0,0.0,0.0,-1.9564,-1.968,-1.9708,-1.9725,-1.9689,-1.9646,-1.9554,-1.9392,-1.9547,-1.9883,-2.0327,-2.0611,-2.0929,-2.129,-2.1761,-2.2216,-2.2605,-2.2569,0.0,-2.3402,-2.321,-2.3023,-2.2809,-2.2752,-2.2705,-2.2659,-2.2546,-2.2695,-2.294,-2.3015,-2.3277,-2.3535,-2.3352,-2.3584,-2.3844,-2.3419,-2.4134,-2.5068,-2.4982,-2.5628,-2.6531,-2.7249,-2.7213,-2.7262,-2.8253,-2.8616,-2.8936,-2.9657,-2.9635,-2.9796,-3.0946,-3.0511,-3.0224,-3.1021,-3.0417,-3.0032,-3.0687,-2.9782,-2.9439,-3.0556,-3.0386,-3.085,-3.259,-2.8236,-2.247,-1.5699,-0.5722,0.2119,0.6687,1.1641,1.3484,1.135,1.1726,1.2209,1.2706,1.3662,1.4239,1.4381,1.4859,1.5613,1.6665,1.722,1.7942,-1.5312,-1.6027,-1.6231,-1.5733,-1.4893,-1.38,-1.2265,-1.1713,0.0,0.0,0.0,0.0,0.0,0.0,0.0,0.0,0.0,0.0,0.0,0.0,0.0,0.0,0.0,0.0,0.0,0.0,0.0,0.0,0.0,0.0,-1.9406,-1.92,-1.9128,-1.9231,-1.8911,-1.8834,-1.9014,-1.9037,-1.9226,-1.9604,-1.9904,-2.0155,-2.032,-2.113,-2.1505,-2.1549,-2.2136,0.0,0.0,-2.2889,-2.2977,-2.2869,-2.2423,-2.2463,-2.2705,-2.2225,-2.2339,-2.2738,-2.2881,-2.2855,-2.279,-2.297,-2.346,-2.3884,-2.3207,-2.3752,-2.455,-2.4452,-2.504,-2.5856,-2.6582,-2.6507,-2.6503,-2.7621,-2.8091,-2.8572,-2.9595,-2.9196,-2.9156,-3.1025,-3.0162,-2.9582,-3.1079,-3.0016,-2.9231,-3.007,-2.9333,-2.8935,-2.9613,-2.9544,-2.9139,-2.8399,-2.167,-1.4668,-0.8323,0.2953,1.0039,1.0942,1.4531,1.5177,1.1975,1.2184,1.2585,1.3051,1.4087,1.4856,1.5355,1.5873,1.6651,1.7706,1.7922,1.8445,-1.4959,-1.5284,-1.5474,-1.4879,-1.3655,-1.2513,-1.2092,0.0,0.0,0.0,-0.9104,-0.8542,-0.8201,0.0,0.0,0.0,0.0,0.0,0.0,0.0,0.0,0.0,0.0,0.0,0.0,0.0,0.0,0.0,0.0,0.0,-1.9376,-1.8974,-1.8617,-1.833,-1.7817,-1.772,-1.8045,-1.75,-1.7911,-1.9242,-1.8613,-1.8678,-1.9358,-2.0159,-2.0557,-2.0677,-2.1642,0.0,0.0,-2.2668,-2.2421,-2.1977,-2.2528,-2.2288,-2.1711,-2.2315,-2.2487,-2.246,-2.2579,-2.2619,-2.2619,-2.2712,-2.275,-2.2758,-2.2742,-2.3103,-2.3539,-2.3524,-2.4571,-2.5754,-2.5949,-2.6506,-2.7034,-2.7171,-2.7385,-2.7878,-2.8961,-2.9047,-2.9512,-3.1398,-3.0523,-2.9884,-3.1247,-3.0145,-2.934,-3.0088,-2.9334,-2.8944,-2.96,-2.9577,-2.6122,-1.732,-1.6333,-0.819,1.1957,1.2956,1.5326,2.1897,2.038,1.7057,1.2182,1.2421,1.2973,1.3598,1.4913,1.598,1.6817,1.6575,1.7236,1.8664,1.8228,1.8543,-1.4066,-1.462,-1.4925,-1.4072,-1.3378,-1.2562,-1.1365,0.0,0.0,-0.8588,-0.7961,-0.7408,-0.6779,-0.6323,0.0,0.0,0.0,0.0,0.0,0.0,0.0,0.0,0.0,0.0,0.0,0.0,0.0,0.0,0.0,0.0,-1.9026,-1.8711,-1.8352,-1.797,-1.79,-1.7628,-1.7063,-1.7305,-1.7513,-1.7703,-1.7768,-1.8159,-1.8858,-1.9664,-2.0105,-2.0256,-2.1391,0.0,0.0,-2.2211,-2.2323,-2.2081,-2.1769,-2.1678,-2.1742,-2.1661,-2.187,-2.2189,-2.2363,-2.2419,-2.2432,-2.2538,-2.2398,-2.2229,-2.2497,-2.2841,-2.3167,-2.3195,-2.4044,-2.4932,-2.4979,-2.5681,-2.6417,-2.654,-2.6805,-2.7316,-2.8442,-2.8203,-2.8442,-3.0605,-2.9506,-2.8886,-3.0959,-2.9377,-2.8168,-2.9193,-2.8593,-2.8212,-2.8681,-2.9097,-2.3414,-0.7849,-0.6303,-0.016,1.5249,2.0568,2.3359,2.4046,2.1792,1.8235,1.3286,1.3198,1.3488,1.4053,1.5094,1.5963,1.6574,1.7019,1.7587,1.8258,1.8582,1.9104,-1.3416,-1.3991,-1.4321,-1.3722,-1.3267,-1.2562,0.0,0.0,-0.9142,-0.7894,-0.7166,-0.6544,-0.5835,-0.5509,-0.5313,0.0,0.0,0.0,0.0,0.0,0.0,0.0,0.0,0.0,0.0,0.0,0.0,0.0,0.0,0.0,0.0,-1.8317,-1.7939,-1.776,-1.7759,-1.7438,-1.6678,-1.7275,-1.7331,-1.6853,-1.7495,-1.7937,-1.8219,-1.9233,-1.9656,-1.9637,0.0,0.0,0.0,-2.1759,-2.2147,-2.211,-2.1404,-2.1435,-2.1818,-2.1401,-2.1506,-2.1913,-2.2092,-2.2152,-2.2166,-2.2189,-2.2015,-2.1823,-2.2075,-2.2385,-2.2651,-2.265,-2.3322,-2.4163,-2.4712,-2.5346,-2.5994,-2.6474,-2.6692,-2.7079,-2.8197,-2.7716,-2.772,-2.9798,-2.8644,-2.8094,-3.0493,-2.8677,-2.7335,-2.861,-2.8047,-2.7639,-2.8047,-2.8744,-2.1826,-0.2529,-0.0324,0.5439,1.9461,2.608,2.7984,2.446,2.2327,1.9027,1.4134,1.3825,1.3909,1.4205,1.5211,1.5986,1.6445,1.7429,1.8041,1.8349,1.919,2.0052,-1.3226,-1.342,-1.3524,-1.39,-1.3157,-1.2189,0.0,-1.0443,-0.9009,-0.7922,-0.69,-0.6113,-0.5756,-0.5324,-0.4911,-0.466,0.0,0.0,0.0,0.0,0.0,0.0,0.0,0.0,0.0,0.0,0.0,0.0,0.0,0.0,0.0,-1.7798,-1.726,-1.758,-1.7102,-1.6894,-1.7089,-1.7221,-1.7265,-1.7205,-1.7945,-1.7899,-1.7269,-1.8796,-1.9139,0.0,0.0,0.0,0.0,-2.1351,-2.1766,-2.1899,-2.1753,-2.1738,-2.1812,-2.1796,-2.1708,-2.1619,-2.1753,-2.1812,-2.1766,-2.1569,-2.1508,-2.1478,-2.1356,-2.1541,-2.1768,-2.165,-2.2391,-2.3626,-2.5423,-2.5848,-2.6083,-2.7213,-2.7231,-2.7261,-2.8279,-2.7859,-2.7739,-2.923,-2.8248,-2.7839,-2.9853,-2.8267,-2.7181,-2.8592,-2.7879,-2.7428,-2.8016,-2.8638,-2.1659,-0.2452,-0.0754,0.7466,2.8385,2.9269,2.7395,2.4296,2.2589,1.9439,1.4403,1.418,1.414,1.4007,1.5392,1.6339,1.679,1.7873,1.8723,1.9398,2.0071,2.1475,-1.1606,-1.1988,-1.2238,-1.1738,-1.1825,-1.161,-1.0061,-0.9796,-0.9257,-0.7166,-0.6557,-0.6171,-0.5431,-0.4975,-0.5262,-0.6872,-0.7614,0.0,0.0,0.0,0.0,0.0,0.0,0.0,0.0,0.0,0.0,0.0,0.0,0.0,0.0,-1.8053,-1.7758,-1.7412,-1.696,-1.6593,-1.6274,-1.7288,-1.7334,-1.6459,-1.7471,-1.788,-1.7791,-1.8628,0.0,0.0,0.0,0.0,0.0,-2.0698,-2.1245,-2.1227,-2.0635,-2.0381,-2.0318,-1.9896,-1.9704,-1.9709,-2.0403,-2.0609,-2.0659,-2.1193,-2.1246,-2.1103,-2.1103,-2.1198,-2.1484,-2.2272,-2.2376,-2.2571,-2.3966,-2.4384,-2.4689,-2.5695,-2.6242,-2.677,-2.7687,-2.7652,-2.7665,-2.8474,-2.7738,-2.7418,-2.8809,-2.7629,-2.6753,-2.7522,-2.7196,-2.7035,-2.7572,-2.7679,-2.33,-1.1755,-1.0016,0.0972,2.7315,2.831,2.6533,2.4175,2.187,1.897,1.5323,1.4631,1.4361,1.4418,1.4976,1.5609,1.6328,1.7077,1.8417,2.0327,2.1351,2.2526,0.0,-1.1219,-1.1456,-1.1219,-1.1293,-1.1087,-0.9652,-0.9427,-0.8989,-0.7109,-0.6546,-0.6193,-0.5547,-0.5196,-0.5584,-0.7344,0.0,0.0,0.0,0.0,0.0,0.0,0.0,0.0,0.0,0.0,0.0,0.0,0.0,0.0,0.0,-1.7999,-1.781,-1.7386,-1.732,-1.7049,-1.6548,-1.7692,-1.7725,-1.6683,-1.7898,-1.836,-1.8168,-1.8809,0.0,0.0,0.0,0.0,0.0,-1.9878,-2.04,-2.0369,-1.9594,-1.9311,-1.9264,-1.8837,-1.8806,-1.906,-1.9624,-1.9972,-2.0226,-2.062,-2.0663,-2.0614,-2.0713,-2.0909,-2.1295,-2.2221,-2.2132,-2.2008,-2.3274,-2.3665,-2.4035,-2.5259,-2.5715,-2.6161,-2.7191,-2.7176,-2.7132,-2.7668,-2.7263,-2.7114,-2.8045,-2.7114,-2.6457,-2.7059,-2.6798,-2.6623,-2.6778,-2.6847,-2.3519,-1.4747,-1.3521,-0.3363,2.1254,2.2377,2.2125,2.2989,2.1435,1.9111,1.6057,1.517,1.4708,1.4604,1.5077,1.5509,1.5919,1.7093,1.8709,2.0733,2.198,2.3098,0.0,-1.0905,-1.0992,-1.1731,-1.1246,-1.0504,-1.0109,-0.9285,0.0,-0.7473,-0.6737,-0.6209,-0.6189,-0.6015,-0.6147,-0.6967,0.0,0.0,0.0,0.0,0.0,0.0,0.0,0.0,0.0,0.0,0.0,0.0,0.0,0.0,0.0,-1.7647,-1.7492,-1.7511,-1.8054,-1.8091,-1.7584,-1.8323,-1.8323,-1.7616,-1.8936,-1.9135,-1.8349,-1.9135,0.0,0.0,0.0,0.0,0.0,-1.8932,-1.9355,-1.9404,-1.8671,-1.8451,-1.8543,-1.842,-1.8718,-1.9197,-1.9306,-1.9755,-2.0213,-1.9897,-1.9945,-2.0133,-2.0252,-2.0676,-2.1199,-2.1648,-2.1694,-2.1904,-2.318,-2.3508,-2.3927,-2.5547,-2.5502,-2.5455,-2.6769,-2.6528,-2.6283,-2.6948,-2.6841,-2.686,-2.748,-2.669,-2.6241,-2.6958,-2.6654,-2.62,-2.5816,-2.6179,-2.2897,-1.3493,-1.3145,-0.6696,1.0321,1.2555,1.5438,2.1051,2.114,1.9595,1.6476,1.5678,1.5108,1.4627,1.5579,1.5957,1.5728,1.7784,1.9461,2.078,2.2126,2.3398,-0.9614,0.0,-0.9802,-0.9387,-0.938,-0.9278,0.0,-0.8458,-0.818,0.0,0.0,0.0,0.0,0.0,0.0,0.0,0.0,0.0,0.0,0.0,0.0,0.0,0.0,0.0,0.0,0.0,0.0,0.0,0.0,0.0,0.0,-1.7376,-1.7544,-1.7644,-1.8327,-1.8263,-1.7386,-1.8202,-1.8285,-1.7612,-1.8794,-1.8723,-1.7587,-1.8138,0.0,0.0,0.0,0.0,-1.765,-1.8073,-1.8566,-1.8917,-1.7792,-1.7243,-1.7106,-1.7121,-1.7056,-1.7133,-1.841,-1.8895,-1.9039,-1.9604,-1.9945,-2.01,-2.015,-2.0594,-2.1151,-2.1418,-2.1587,-2.1817,-2.2439,-2.2674,-2.3007,-2.4024,-2.4219,-2.4611,-2.6095,-2.6167,-2.6099,-2.6689,-2.6538,-2.6327,-2.6313,-2.6016,-2.5768,-2.5816,-2.6325,-2.6376,-2.5463,-2.6009,-2.5388,-2.2457,-2.2113,-1.7996,-0.7813,0.4949,1.4734,2.0152,2.0107,1.8374,1.5036,1.5244,1.5266,1.4846,1.6112,1.6824,1.6912,1.8748,2.0169,2.1262,2.2674,2.3815,-0.8419,-0.8809,-0.9181,-0.8827,-0.8632,-0.8417,-0.79,0.0,0.0,0.0,0.0,0.0,0.0,0.0,0.0,0.0,0.0,0.0,0.0,0.0,0.0,0.0,0.0,0.0,0.0,0.0,0.0,0.0,0.0,0.0,0.0,-1.7115,-1.7413,-1.7557,-1.8068,-1.8106,-1.7621,-1.8488,-1.8573,-1.7888,-1.8691,-1.8524,-1.7545,-1.7734,-1.717,0.0,0.0,0.0,-1.6799,-1.7122,-1.7473,-1.7713,-1.6834,-1.6353,-1.6173,-1.6455,-1.6607,-1.6837,-1.8086,-1.8614,-1.88,-1.932,-1.957,-1.9714,-1.9871,-2.0359,-2.0909,-2.115,-2.1355,-2.1602,-2.2003,-2.2189,-2.2502,-2.3363,-2.3419,-2.3743,-2.5543,-2.5572,-2.5533,-2.6521,-2.6435,-2.6152,-2.5972,-2.5846,-2.5735,-2.5551,-2.6083,-2.6026,-2.4813,-2.538,-2.5475,-2.4333,-2.4511,-2.1669,-1.4081,-0.3852,0.5541,1.3508,1.5858,1.6165,1.4383,1.4845,1.5188,1.5319,1.6151,1.6776,1.7172,1.835,1.9523,2.066,2.1798,2.3052,-0.7412,-0.7931,-0.8583,-0.8639,-0.8161,-0.7644,-0.7642,0.0,0.0,0.0,0.0,0.0,0.0,0.0,0.0,0.0,0.0,0.0,0.0,0.0,0.0,0.0,0.0,0.0,0.0,0.0,0.0,0.0,0.0,0.0,0.0,-1.6808,-1.7102,-1.7227,-1.7464,-1.7644,-1.7746,-1.8708,-1.8844,-1.8213,-1.8478,-1.8214,-1.7491,-1.7287,-1.6564,0.0,0.0,0.0,-1.5886,-1.6171,-1.6342,-1.6402,-1.5965,-1.5697,-1.561,-1.6152,-1.6624,-1.7072,-1.7763,-1.8343,-1.8779,-1.8863,-1.9018,-1.9225,-1.9584,-2.0102,-2.0614,-2.0829,-2.1087,-2.1371,-2.1721,-2.1884,-2.2137,-2.2954,-2.2764,-2.2923,-2.4903,-2.482,-2.4805,-2.6236,-2.6261,-2.6026,-2.5901,-2.5826,-2.5803,-2.5884,-2.6204,-2.5904,-2.4514,-2.5211,-2.5095,-2.3208,-2.4024,-2.2117,-1.5719,-1.2366,-0.6534,0.304,0.9555,1.3317,1.3921,1.4342,1.4951,1.584,1.6057,1.6438,1.705,1.7622,1.8539,1.9805,2.0656,2.205,-0.7363,-0.7268,-0.698,-0.6774,-0.6591,-0.6459,-0.6451,0.0,0.0,0.0,0.0,0.0,0.0,0.0,0.0,0.0,0.0,0.0,0.0,0.0,0.0,0.0,0.0,0.0,0.0,0.0,0.0,0.0,0.0,0.0,0.0,-1.6358,-1.6441,-1.6463,-1.6573,-1.6626,-1.665,-1.7974,-1.8516,-1.8282,-1.7899,-1.7167,-1.6164,-1.5573,-1.5012,0.0,0.0,-1.5154,-1.563,-1.5353,-1.5608,-1.6118,-1.559,-1.5343,-1.5341,-1.5996,-1.6076,-1.5929,-1.6494,-1.7146,-1.7758,-1.7943,-1.842,-1.9043,-1.9548,-2.0048,-2.0427,-2.0409,-2.0844,-2.1293,-2.1308,-2.148,-2.1712,-2.1917,-2.1925,-2.2317,-2.3833,-2.3984,-2.4179,-2.5368,-2.5511,-2.5432,-2.541,-2.5301,-2.559,-2.6646,-2.7383,-2.7328,-2.6021,-2.7507,-2.7439,-2.4232,-2.5213,-2.5079,-2.2541,-1.7688,-1.3469,-1.0425,0.1649,0.9914,1.273,1.3446,1.4508,1.6109,1.6295,1.664,1.725,1.7955,1.8932,2.0124,2.0971,2.2444,-0.5981,-0.5736,-0.5459,-0.5276,-0.5858,-0.6549,-0.6823,0.0,0.0,0.0,0.0,0.0,0.0,0.0,0.0,0.0,0.0,0.0,0.0,0.0,0.0,0.0,0.0,0.0,0.0,0.0,0.0,0.0,0.0,0.0,0.0,0.0,-1.5954,-1.6129,-1.6097,-1.6279,-1.6677,-1.6877,-1.7096,-1.7326,-1.6938,-1.6304,-1.5496,-1.4815,-1.4306,-1.3927,0.0,-1.4452,-1.4894,-1.4859,-1.5057,-1.5392,-1.5277,-1.5147,-1.5112,-1.5757,-1.6068,-1.6263,-1.6808,-1.7126,-1.7361,-1.7903,-1.8351,-1.8765,-1.925,-1.9747,-2.015,-2.001,-2.0409,-2.086,-2.0861,-2.0974,-2.1119,-2.1371,-2.1402,-2.1807,-2.3391,-2.3585,-2.3886,-2.5236,-2.5394,-2.5406,-2.5794,-2.594,-2.6416,-2.7539,-2.807,-2.7921,-2.6687,-2.7821,-2.7727,-2.5096,-2.596,-2.6322,-2.5329,-2.1325,-1.5303,-0.7021,0.1087,0.7025,1.036,1.2194,1.3651,1.4822,1.5696,1.6255,1.6534,1.7484,1.8558,1.9837,2.0542,2.2193,-0.4924,-0.4642,-0.4474,-0.4523,0.0,-0.6429,-0.7412,0.0,0.0,0.0,0.0,0.0,0.0,0.0,0.0,0.0,0.0,0.0,0.0,0.0,0.0,0.0,0.0,0.0,0.0,0.0,0.0,0.0,0.0,0.0,0.0,0.0,-1.5329,-1.5408,-1.5473,-1.5684,-1.6039,-1.559,-1.5671,-1.6277,-1.5899,-1.5331,-1.4619,-1.4156,-1.3731,-1.3404,-1.3709,-1.3977,-1.4254,-1.4495,-1.4606,-1.4637,-1.4887,-1.4932,-1.4911,-1.5344,-1.5924,-1.6529,-1.6796,-1.6959,-1.7161,-1.7841,-1.8202,-1.8464,-1.8893,-1.9398,-1.9795,-1.9621,-1.9942,-2.0357,-2.0495,-2.0547,-2.0679,-2.1023,-2.0974,-2.1325,-2.3001,-2.3204,-2.3478,-2.4936,-2.525,-2.5437,-2.5928,-2.6491,-2.7165,-2.8085,-2.8552,-2.8371,-2.7209,-2.8096,-2.8056,-2.5916,-2.6649,-2.6852,-2.5819,-2.3167,-1.662,-0.5088,-0.0053,0.4102,0.7726,1.0522,1.2489,1.3533,1.4783,1.563,1.604,1.6869,1.8109,1.9708,2.0228,2.1915,-0.5208,-0.488,-0.4548,-0.5087,0.0,0.0,-0.7524,0.0,0.0,0.0,0.0,0.0,0.0,0.0,0.0,0.0,0.0,0.0,0.0,0.0,0.0,0.0,0.0,0.0,0.0,0.0,0.0,0.0,0.0,0.0,0.0,0.0,0.0,-1.37,-1.4263,-1.4275,-1.3564,-1.4053,-1.4752,-1.5673,-1.4884,-1.3986,-1.2983,-1.3116,-1.3032,-1.2801,-1.3378,-1.3769,-1.4049,-1.4238,-1.4208,-1.4081,-1.4287,-1.4509,-1.4699,-1.462,-1.5133,-1.5792,-1.5273,-1.5891,-1.6959,-1.72,-1.7622,-1.8127,-1.8669,-1.9064,-1.9325,-1.9258,-1.9479,-1.9851,-2.022,-2.0409,-2.0561,-2.0778,-2.0629,-2.0852,-2.2358,-2.2459,-2.264,-2.3876,-2.4713,-2.5185,-2.5201,-2.6186,-2.7211,-2.7908,-2.8774,-2.8963,-2.7955,-2.9397,-2.9502,-2.6807,-2.7468,-2.6944,-2.4045,-2.2504,-1.983,-1.5452,-0.6332,0.086,0.5267,0.8313,1.0921,1.3093,1.3745,1.4852,1.646,1.6595,1.7938,2.0337,2.0505,2.1945,-0.4314,-0.4942,-0.558,-0.5346,0.0,0.0,0.0,0.0,0.0,0.0,0.0,0.0,0.0,0.0,0.0,0.0,0.0,0.0,0.0,0.0,0.0,0.0,0.0,0.0,0.0,0.0,0.0,0.0,0.0,0.0,0.0,0.0,0.0,-1.3692,-1.4011,-1.4029,-1.3729,-1.3588,-1.3736,-1.4169,-1.3938,-1.3441,-1.2733,-1.2597,-1.2447,-1.2299,-1.2863,-1.3327,-1.3715,-1.3944,-1.3927,-1.3782,-1.4029,-1.4454,-1.4976,-1.5128,-1.5297,-1.5514,-1.6068,-1.6442,-1.6762,-1.7472,-1.7923,-1.824,-1.8528,-1.8912,-1.9272,-1.9455,-1.984,-2.0251,-2.0484,-2.0363,-2.031,-2.0866,-2.0745,-2.0983,-2.2663,-2.2725,-2.3005,-2.4834,-2.5223,-2.5529,-2.6336,-2.6946,-2.7673,-2.871,-2.9242,-2.9184,-2.8194,-2.9128,-2.9062,-2.6893,-2.6883,-2.6224,-2.4259,-2.3591,-2.1498,-1.7361,-1.0155,-0.4276,-0.0374,0.494,0.8619,1.0389,1.2881,1.4383,1.4878,1.6293,1.7908,1.9736,2.0846,2.262,-0.3982,-0.489,-0.5971,0.0,0.0,0.0,0.0,0.0,0.0,0.0,0.0,0.0,0.0,0.0,0.0,0.0,0.0,0.0,0.0,0.0,0.0,0.0,0.0,0.0,0.0,0.0,0.0,0.0,0.0,0.0,0.0,0.0,0.0,0.0,-1.3642,-1.3657,-1.3216,-1.3188,-1.3127,-1.305,-1.3185,-1.286,-1.2135,-1.2088,-1.1939,-1.1761,-1.2271,-1.2839,-1.3391,-1.3678,-1.3846,-1.3891,-1.398,-1.453,-1.5304,-1.5442,-1.5637,-1.595,-1.6726,-1.6979,-1.7056,-1.7819,-1.8155,-1.8293,-1.838,-1.8664,-1.9051,-1.9401,-1.9872,-2.0387,-2.0961,-2.0789,-2.0624,-2.132,-2.1163,-2.1311,-2.3001,-2.3041,-2.3213,-2.4925,-2.5417,-2.5712,-2.6399,-2.7162,-2.7922,-2.8592,-2.8914,-2.8838,-2.8184,-2.8555,-2.8431,-2.7289,-2.6796,-2.6161,-2.5239,-2.4657,-2.2909,-1.9551,-1.4488,-0.9496,-0.4778,0.0698,0.4971,0.7866,1.0822,1.2933,1.4083,1.5978,1.7717,1.934,2.0819,2.2556,-0.4475,-0.4714,0.0,0.0,0.0,0.0,0.0,0.0,0.0,0.0,0.0,0.0,0.0,0.0,0.0,0.0,0.0,0.0,0.0,0.0,0.0,0.0,0.0,0.0,0.0,0.0,0.0,0.0,0.0,0.0,0.0,0.0,0.0,0.0,-1.2994,-1.2927,-1.1518,-1.2684,-1.3018,-1.2508,-1.2627,-1.2058,-1.0916,-1.1518,-1.1547,-1.1123,-1.1664,-1.2343,-1.3124,-1.3459,-1.3947,-1.4474,-1.4152,-1.4702,-1.5678,-1.5417,-1.6121,-1.7155,-1.6902,-1.7288,-1.7922,-1.8143,-1.8202,-1.8202,-1.8202,-1.8341,-1.8585,-1.8996,-1.9396,-2.0067,-2.1592,-2.1756,-2.1635,-2.2194,-2.1863,-2.1804,-2.3197,-2.326,-2.3198,-2.3813,-2.5058,-2.5754,-2.494,-2.6652,-2.7894,-2.7295,-2.7599,-2.789,-2.7888,-2.7763,-2.7814,-2.8162,-2.7539,-2.7,-2.6824,-2.5468,-2.4199,-2.3179,-1.9732,-1.4495,-0.7256,-0.4379,-0.015,0.5783,0.7322,1.018,1.4415,1.5616,1.7253,1.9293,2.0378,2.1588,-0.4606,-0.6008,0.0,0.0,0.0,0.0,0.0,0.0,0.0,0.0,0.0,0.0,0.0,0.0,0.0,0.0,0.0,0.0,0.0,0.0,0.0,0.0,0.0,0.0,0.0,0.0,0.0,0.0,0.0,0.0,0.0,0.0,0.0,0.0,-1.2748,-1.2655,-1.2001,-1.2303,-1.2409,-1.2282,-1.2276,-1.1819,-1.0971,-1.1399,-1.1319,-1.0908,-1.146,-1.2152,-1.2908,-1.3306,-1.4087,-1.5001,-1.4496,-1.5019,-1.6062,-1.6165,-1.6515,-1.6994,-1.7493,-1.7766,-1.7942,-1.8195,-1.8319,-1.8378,-1.8248,-1.8341,-1.8565,-1.8934,-1.9517,-2.0331,-2.1549,-2.2171,-2.2525,-2.2738,-2.2495,-2.2608,-2.3918,-2.3938,-2.4069,-2.5347,-2.5887,-2.6057,-2.5761,-2.6681,-2.7357,-2.7034,-2.7109,-2.7041,-2.6624,-2.6538,-2.6635,-2.696,-2.6772,-2.6662,-2.6786,-2.6542,-2.5521,-2.3505,-2.1427,-1.7643,-1.1714,-0.7987,-0.4513,-0.125,0.3456,0.6866,0.8958,1.3507,1.6621,1.8412,1.9824,2.0868,-0.5578,0.0,0.0,0.0,0.0,0.0,0.0,0.0,0.0,0.0,0.0,0.0,0.0,0.0,0.0,0.0,0.0,0.0,0.0,0.0,0.0,0.0,0.0,0.0,0.0,0.0,0.0,0.0,0.0,0.0,0.0,0.0,0.0,0.0,-1.2336,-1.2264,-1.2048,-1.1993,-1.1975,-1.1963,-1.1975,-1.1617,-1.096,-1.1052,-1.0953,-1.0719,-1.1657,-1.2465,-1.3141,-1.3967,-1.4697,-1.5285,-1.504,-1.5581,-1.648,-1.6547,-1.6757,-1.711,-1.7605,-1.7861,-1.7955,-1.8141,-1.8338,-1.847,-1.8293,-1.8274,-1.8434,-1.914,-1.9657,-2.0301,-2.1607,-2.2376,-2.2877,-2.3179,-2.3242,-2.3444,-2.4256,-2.4514,-2.4817,-2.5475,-2.5852,-2.5868,-2.5214,-2.606,-2.6686,-2.6229,-2.6757,-2.68,-2.5629,-2.6379,-2.6887,-2.656,-2.688,-2.7032,-2.6868,-2.701,-2.6217,-2.4157,-2.2495,-1.9674,-1.539,-1.1899,-0.8682,-0.5779,-0.1882,0.075,0.209,0.9058,1.2998,1.4143,1.841,2.0452,0.0,0.0,0.0,0.0,0.0,0.0,0.0,0.0,0.0,0.0,0.0,0.0,0.0,0.0,0.0,0.0,0.0,0.0,0.0,0.0,0.0,0.0,0.0,0.0,0.0,0.0,0.0,0.0,0.0,0.0,0.0,0.0,0.0,-1.1888,-1.1854,-1.1818,-1.1774,-1.1756,-1.17,0.0,-1.17,-1.1478,-1.0957,-1.0675,-1.0578,-1.07,-1.2183,-1.3124,-1.3698,-1.5086,-1.5567,-1.5465,-1.5771,-1.631,-1.6896,-1.6651,-1.6929,-1.7404,-1.7468,-1.772,-1.8002,-1.7988,-1.8214,-1.8459,-1.8319,-1.8127,-1.8214,-1.9347,-1.9671,-2.0038,-2.1653,-2.2369,-2.283,-2.3421,-2.3904,-2.4247,-2.4283,-2.4966,-2.5374,-2.4678,-2.5257,-2.5365,-2.3826,-2.5038,-2.5936,-2.5101,-2.6382,-2.6776,-2.4927,-2.6687,-2.7704,-2.6634,-2.7359,-2.7633,-2.6916,-2.6969,-2.6375,-2.4864,-2.2972,-2.0751,-1.8127,-1.567,-1.2532,-0.86,-0.7874,-0.6766,-0.5162,0.368,0.8036,0.8373,1.6889,2.0524,0.0,0.0,0.0,0.0,0.0,0.0,0.0,0.0,0.0,0.0,0.0,0.0,0.0,0.0,0.0,0.0,0.0,0.0,0.0,0.0,0.0,0.0,0.0,0.0,0.0,0.0,0.0,0.0,0.0,0.0,0.0,0.0,0.0,-1.1601,-1.1442,-1.1449,-1.1634,-1.1442,-1.1452,0.0,-1.1437,-1.1345,-1.1366,-1.1142,-1.122,-1.1583,-1.2653,-1.3568,-1.4323,-1.4968,-1.5693,-1.6406,-1.6541,-1.6811,-1.7123,-1.7055,-1.719,-1.7404,-1.7468,-1.7693,-1.7929,-1.7982,-1.8115,-1.8228,-1.8101,-1.7908,-1.7889,-1.8516,-1.9038,-1.9647,-2.0873,-2.186,-2.2649,-2.3091,-2.3874,-2.4471,-2.4333,-2.4861,-2.5277,-2.4956,-2.5232,-2.5011,-2.3466,-2.4531,-2.5451,-2.4998,-2.5258,-2.53,-2.4699,-2.4916,-2.5287,-2.5703,-2.5808,-2.6062,-2.6541,-2.6523,-2.5892,-2.4582,-2.3008,-2.0933,-1.8263,-1.7105,-1.5236,-1.2536,-1.1023,-0.9523,-0.7985,0.3639,0.9372,0.9702,1.8485,2.2134,0.0,0.0,0.0,0.0,0.0,0.0,0.0,0.0,0.0,0.0,0.0,0.0,0.0,0.0,0.0,0.0,0.0,0.0,0.0,0.0,0.0,0.0,0.0,0.0,0.0,0.0,0.0,0.0,0.0,0.0,0.0,-1.1824,-1.1435,-1.1274,-1.0975,-1.0957,-1.1266,-1.122,-1.1268,-1.1402,-1.1327,-1.1365,-1.1493,-1.1398,-1.1529,-1.19,-1.2918,-1.3839,-1.4726,-1.5743,-1.6445,-1.6915,-1.731,-1.7424,-1.731,-1.7165,-1.7136,-1.7162,-1.7128,-1.7303,-1.7604,-1.772,-1.7922,-1.8095,-1.8095,-1.7861,-1.7785,-1.8639,-1.9017,-1.9451,-2.0801,-2.1699,-2.2342,-2.2678,-2.3603,-2.4229,-2.3625,-2.4329,-2.489,-2.4169,-2.4334,-2.4216,-2.2993,-2.3538,-2.4096,-2.3973,-2.4352,-2.445,-2.3814,-2.4161,-2.451,-2.4591,-2.5072,-2.551,-2.584,-2.5963,-2.5516,-2.4317,-2.315,-2.1324,-1.874,-1.8115,-1.687,-1.4891,-1.4843,-1.4868,-1.491,-0.0994,0.5358,0.4889,1.7588,2.2782,0.0,0.0,0.0,0.0,0.0,0.0,0.0,0.0,0.0,0.0,0.0,0.0,0.0,0.0,0.0,0.0,0.0,0.0,0.0,0.0,0.0,0.0,0.0,0.0,0.0,0.0,0.0,0.0,0.0,0.0,-1.2126,-1.1375,-1.0945,-1.0886,-1.0578,-1.0589,-1.09,-1.109,-1.1166,-1.1158,-1.1338,-1.144,-1.1493,-1.1576,-1.1742,-1.2065,-1.3187,-1.4185,-1.5123,-1.667,-1.7337,-1.7432,-1.8054,-1.7996,-1.7537,-1.718,-1.6985,-1.6897,-1.6718,-1.6876,-1.7178,-1.7344,-1.7618,-1.7915,-1.8112,-1.7895,-1.7811,-1.9047,-1.9219,-1.9422,-2.0874,-2.1602,-2.2044,-2.2278,-2.3149,-2.3679,-2.2759,-2.3624,-2.4269,-2.3253,-2.3216,-2.313,-2.2447,-2.2386,-2.253,-2.2827,-2.3503,-2.3716,-2.2937,-2.377,-2.4172,-2.3513,-2.447,-2.5106,-2.4932,-2.51,-2.4883,-2.408,-2.3144,-2.1611,-1.944,-1.8874,-1.7917,-1.6348,-1.813,-1.9733,-2.106,-0.733,-0.0613,-0.0227,1.4928,2.197,0.0,0.0,0.0,0.0,0.0,0.0,0.0,0.0,0.0,0.0,0.0,0.0,0.0,0.0,0.0,0.0,0.0,0.0,0.0,0.0,0.0,0.0,0.0,0.0,0.0,0.0,0.0,0.0,0.0,0.0,-1.176,-1.0904,-1.039,-1.039,-1.0503,-1.0674,-1.0907,-1.104,-1.1231,-1.1448,-1.1402,-1.144,-1.1504,-1.1857,-1.2171,-1.2478,-1.3796,-1.4928,-1.5924,-1.6959,-1.7828,-1.8502,-1.8586,-1.8352,-1.7888,-1.7428,-1.7126,-1.6942,-1.6565,-1.6663,-1.6939,-1.696,-1.7212,-1.7546,-1.7929,-1.7944,-1.8046,-1.9035,-1.9333,-1.9571,-2.0478,-2.1251,-2.1864,-2.202,-2.2482,-2.2798,-2.2432,-2.2834,-2.3259,-2.3257,-2.2498,-2.1932,-2.2096,-2.1456,-2.1321,-2.2621,-2.2531,-2.2477,-2.2927,-2.2992,-2.2934,-2.2844,-2.3189,-2.3516,-2.3715,-2.3441,-2.341,-2.3735,-2.2517,-2.1325,-2.0343,-1.9542,-1.8504,-1.7263,-1.8903,-1.9667,-1.9492,-1.2543,-0.5374,0.2031,1.039,1.8103,0.0,0.0,0.0,0.0,0.0,0.0,0.0,0.0,0.0,0.0,0.0,0.0,0.0,0.0,0.0,0.0,0.0,0.0,0.0,0.0,0.0,0.0,0.0,0.0,0.0,0.0,0.0,0.0,0.0,-1.1113,-1.1183,-1.0238,-0.9868,-1.0293,-1.0134,-1.0331,-1.0897,-1.104,-1.1239,-1.1504,-1.1477,-1.1477,-1.1504,-1.184,-1.2174,-1.2556,-1.3446,-1.4589,-1.589,-1.6642,-1.76,-1.8595,-1.8673,-1.8484,-1.8088,-1.7387,-1.7118,-1.7005,-1.638,-1.6392,-1.6693,-1.6757,-1.6939,-1.7159,-1.7457,-1.7407,-1.7443,-1.8452,-1.8674,-1.8901,-2.0064,-2.0858,-2.1396,-2.1602,-2.1992,-2.224,-2.1969,-2.2227,-2.2325,-2.1716,-2.1653,-2.1564,-2.1173,-2.1105,-2.1348,-2.2066,-2.1849,-2.1548,-2.1387,-2.2009,-2.2328,-2.1964,-2.2254,-2.2724,-2.3342,-2.2707,-2.2465,-2.2899,-2.1986,-2.1109,-2.0419,-1.9623,-1.8947,-1.8421,-1.9915,-2.046,-2.0043,-1.3295,-0.6118,0.1502,1.0055,1.7886,0.0,0.0,0.0,0.0,0.0,0.0,0.0,0.0,0.0,0.0,0.0,0.0,0.0,0.0,0.0,0.0,0.0,0.0,0.0,0.0,0.0,0.0,0.0,0.0,0.0,0.0,0.0,0.0,0.0,-1.0535,-1.0624,-0.966,-0.9422,-1.0137,-0.9798,-1.0019,-1.0829,-1.1078,-1.1306,-1.1504,-1.1504,-1.1504,-1.1504,-1.1901,-1.221,-1.2473,-1.3325,-1.4341,-1.553,-1.6505,-1.7432,-1.8273,-1.8539,-1.8405,-1.7979,-1.7293,-1.6936,-1.672,-1.6092,-1.6032,-1.625,-1.6315,-1.6543,-1.6782,-1.7029,-1.705,-1.7204,-1.8127,-1.8384,-1.8585,-1.9559,-2.0321,-2.0845,-2.0883,-2.1361,-2.1698,-2.1361,-2.1598,-2.1511,-2.017,-2.0673,-2.1049,-2.0263,-2.0653,-2.117,-2.1401,-2.131,-2.0907,-2.0135,-2.1228,-2.1827,-2.125,-2.1564,-2.2076,-2.2751,-2.2007,-2.1647,-2.2039,-2.1623,-2.1213,-2.0828,-2.0239,-1.9907,-1.9825,-2.1121,-2.1481,-2.0836,-1.5698,-0.9476,-0.2226,0.6917,1.4748,0.0,0.0,0.0,0.0,0.0,0.0,0.0,0.0,0.0,0.0,0.0,0.0,0.0,0.0,0.0,0.0,0.0,0.0,0.0,0.0,0.0,0.0,0.0,0.0,0.0,0.0,0.0,0.0,0.0,-1.0001,-1.0137,-0.9298,-0.91,-0.9704,-0.9704,-1.0018,-1.0696,-1.122,-1.1485,-1.1504,-1.1504,-1.1504,-1.1526,-1.2243,-1.2453,-1.2311,-1.3987,-1.4738,-1.491,-1.6925,-1.7658,-1.7609,-1.8273,-1.8042,-1.7341,-1.7235,-1.6545,-1.5678,-1.5566,-1.5536,-1.5536,-1.5413,-1.5812,-1.639,-1.672,-1.7294,-1.7931,-1.8437,-1.8941,-1.923,-1.8874,-1.9593,-2.0258,-1.9657,-2.0396,-2.1106,-2.0573,-2.0914,-2.0834,-1.9197,-1.9437,-1.9853,-1.9662,-1.9824,-2.0153,-2.0683,-2.086,-2.0663,-1.9905,-2.0768,-2.1308,-2.086,-2.1063,-2.1316,-2.1471,-2.0978,-2.0885,-2.1417,-2.1537,-2.1775,-2.2175,-2.2049,-2.1834,-2.1578,-2.2583,-2.2497,-2.1279,-2.2788,-1.9041,-1.0328,-0.2805,0.5016,0.0,0.0,0.0,0.0,0.0,0.0,0.0,0.0,0.0,0.0,0.0,0.0,0.0,0.0,0.0,0.0,0.0,0.0,0.0,0.0,0.0,0.0,0.0,0.0,0.0,0.0,0.0,0.0,0.0,0.0,-0.9213,-0.8914,-0.8949,-0.9428,-0.9723,-1.0232,-1.0954,-1.1268,-1.1459,-1.1504,-1.1504,-1.1504,-1.1515,-1.1859,-1.2013,-1.2052,-1.3087,-1.4015,-1.4877,-1.5395,-1.6112,-1.6871,-1.7126,-1.6928,-1.6507,-1.6355,-1.6114,-1.5807,-1.5398,-1.5367,-1.5546,-1.5446,-1.5669,-1.6076,-1.6518,-1.6867,-1.723,-1.8002,-1.7945,-1.7765,-1.8189,-1.837,-1.8536,-1.9033,-1.9742,-2.0188,-1.9838,-2.0317,-2.0511,-1.9348,-1.9517,-1.9813,-1.9678,-1.9547,-1.9625,-2.0106,-1.9896,-1.9541,-1.9153,-1.9802,-2.0085,-1.9522,-2.0045,-2.049,-2.0615,-2.0447,-2.066,-2.1369,-2.1239,-2.1583,-2.2521,-2.2053,-2.1875,-2.2077,-2.2733,-2.271,-2.1943,-2.2878,-1.8983,-1.065,-0.7916,0.0346,0.0,0.0,0.0,0.0,0.0,0.0,0.0,0.0,0.0,0.0,0.0,0.0,0.0,0.0,0.0,0.0,0.0,0.0,0.0,0.0,0.0,0.0,0.0,0.0,0.0,0.0,0.0,0.0,0.0,0.0,-0.8609,-0.8471,-0.8672,-0.9241,-0.9837,-1.0409,-1.1021,-1.1241,-1.1384,-1.1477,-1.1477,-1.1485,-1.1515,-1.1799,-1.1916,-1.1913,-1.235,-1.3101,-1.41,-1.4425,-1.5057,-1.5847,-1.6274,-1.6198,-1.5828,-1.5801,-1.5636,-1.5342,-1.5073,-1.5108,-1.5266,-1.5221,-1.5435,-1.5741,-1.6029,-1.622,-1.6492,-1.7165,-1.6915,-1.6602,-1.7382,-1.733,-1.7255,-1.8142,-1.888,-1.928,-1.9,-1.9701,-2.0188,-1.9523,-1.9347,-1.9379,-1.9597,-1.9222,-1.9011,-1.9418,-1.9199,-1.8843,-1.8498,-1.9097,-1.9301,-1.876,-1.9352,-1.9824,-1.9976,-2.0151,-2.0498,-2.0968,-2.1356,-2.1934,-2.277,-2.2542,-2.2535,-2.2793,-2.3106,-2.3082,-2.2708,-2.2709,-1.9974,-1.4722,-1.1733,-0.2172,0.0,0.0,0.0,0.0,0.0,0.0,0.0,0.0,0.0,0.0,0.0,0.0,0.0,0.0,0.0,0.0,0.0,0.0,0.0,0.0,0.0,0.0,0.0,0.0,0.0,0.0,0.0,0.0,0.0,-0.8092,-0.8344,-0.8012,-0.8242,-0.918,-0.9992,-1.0553,-1.0897,-1.1099,-1.1271,-1.1384,-1.1384,-1.1421,-1.1507,-1.21,-1.2198,-1.1906,-1.1986,-1.2163,-1.2525,-1.4133,-1.463,-1.4496,-1.5747,-1.5825,-1.5309,-1.5639,-1.5094,-1.4245,-1.4575,-1.4639,-1.4604,-1.4581,-1.4983,-1.5424,-1.5165,-1.5417,-1.5837,-1.6051,-1.6008,-1.6011,-1.6415,-1.6475,-1.6534,-1.6932,-1.776,-1.8346,-1.8042,-1.9003,-1.9859,-1.9629,-1.8787,-1.8377,-1.9295,-1.8724,-1.8265,-1.8589,-1.8756,-1.861,-1.805,-1.8666,-1.9014,-1.868,-1.9031,-1.9352,-1.9559,-2.0099,-2.0346,-2.0207,-2.1894,-2.2942,-2.3002,-2.3653,-2.3961,-2.3818,-2.3818,-2.3711,-2.3509,-2.2834,-2.2756,-2.3078,-1.4414,-0.2878,-0.8849,0.0,0.0,0.0,0.0,0.0,0.0,0.0,0.0,0.0,0.0,0.0,0.0,0.0,0.0,0.0,0.0,0.0,0.0,0.0,0.0,0.0,0.0,0.0,0.0,0.0,0.0,0.0,-0.7511,-0.7468,-0.7391,-0.7967,-0.8646,-0.9394,-1.0021,-1.0467,-1.0753,-1.1004,-1.1176,-1.1241,-1.1118,-1.1107,-1.13,-1.176,-1.1893,-1.179,-1.2245,-1.2361,-1.2254,-1.2384,-1.2999,-1.3917,-1.4167,-1.4374,-1.4535,-1.4823,-1.463,-1.4222,-1.4318,-1.4396,-1.4407,-1.4127,-1.4373,-1.4776,-1.4694,-1.514,-1.5731,-1.6033,-1.6015,-1.577,-1.5211,-1.4924,-1.4915,-1.551,-1.6067,-1.6684,-1.7415,-1.8019,-1.857,-1.912,-1.8555,-1.803,-1.8217,-1.7586,-1.7158,-1.7508,-1.7246,-1.7098,-1.732,-1.7579,-1.7595,-1.7226,-1.8322,-1.8961,-1.869,-1.9822,-2.0498,-2.0346,-2.1997,-2.3017,-2.315,-2.3846,-2.4198,-2.4156,-2.4024,-2.3861,-2.3711,-2.3006,-2.2721,-2.2665,-1.4088,-0.515,0.0,0.0,0.0,0.0,0.0,0.0,0.0,0.0,0.0,0.0,0.0,0.0,0.0,0.0,0.0,0.0,0.0,0.0,0.0,0.0,0.0,0.0,0.0,0.0,0.0,0.0,0.0,-0.7135,-0.7083,-0.7179,-0.7399,-0.8163,-0.8886,-0.9556,-0.999,-1.0351,-1.0668,-1.09,-1.0976,-1.0947,-1.0831,-1.085,-1.1004,-1.1217,-1.1429,-1.1633,-1.1968,-1.2117,-1.209,-1.1916,-1.2527,-1.3641,-1.3876,-1.4157,-1.4484,-1.4665,-1.4558,-1.435,-1.4303,-1.421,-1.4116,-1.3892,-1.4055,-1.4377,-1.4408,-1.4782,-1.5237,-1.534,-1.5262,-1.4961,-1.3998,-1.3886,-1.4067,-1.4324,-1.4906,-1.5648,-1.6582,-1.722,-1.7921,-1.8918,-1.846,-1.789,-1.7897,-1.7094,-1.654,-1.6774,-1.6286,-1.6089,-1.6549,-1.6574,-1.6521,-1.6495,-1.7639,-1.8348,-1.8236,-1.9683,-2.051,-2.0321,-2.2053,-2.3157,-2.3318,-2.39,-2.4287,-2.4431,-2.4135,-2.3798,-2.338,-2.292,-2.2598,-2.2196,-1.3758,-0.7619,-0.998,-0.9877,0.0,0.0,0.0,0.0,-0.9316,-0.9097,0.0,0.0,0.0,0.0,0.0,0.0,0.0,0.0,0.0,0.0,0.0,0.0,0.0,0.0,0.0,0.0,0.0,-0.7117,-0.6961,-0.6987,-0.6856,-0.7122,-0.7906,-0.8411,-0.8955,-0.9574,-0.9892,-1.0235,-1.0563,-1.0775,-1.0775,-1.0621,-1.0602,-1.0622,-1.0739,-1.0691,-1.1002,-1.1575,-1.159,-1.1798,-1.2175,-1.2383,-1.288,-1.3552,-1.4224,-1.4605,-1.4776,-1.4857,-1.4766,-1.4557,-1.443,-1.4093,-1.375,-1.3754,-1.3882,-1.4012,-1.4108,-1.4292,-1.4485,-1.4334,-1.4174,-1.3854,-1.3045,-1.3273,-1.3661,-1.3463,-1.4128,-1.5004,-1.5654,-1.6482,-1.745,-1.8509,-1.8189,-1.7723,-1.7649,-1.6693,-1.5969,-1.601,-1.5484,-1.5177,-1.5455,-1.5485,-1.563,-1.6071,-1.6985,-1.7672,-1.8057,-1.9579,-2.0434,-2.0233,-2.1983,-2.3157,-2.3511,-2.3788,-2.4153,-2.4623,-2.4204,-2.3553,-2.2717,-2.2661,-2.2386,-2.1747,-1.4392,-1.063,-1.0104,-0.9938,-0.9722,0.0,0.0,0.0,0.0,-0.8021,0.0,0.0,0.0,0.0,0.0,0.0,0.0,0.0,0.0,0.0,0.0,0.0,0.0,0.0,0.0,0.0,0.0,-0.6248,-0.6162,-0.62,-0.659,-0.7026,-0.7558,-0.8152,-0.8618,-0.8964,-0.9556,-1.003,-1.0361,-1.0573,-1.0688,-1.0765,-1.0544,-1.0607,-1.0943,-1.1034,-1.144,-1.21,-1.2514,-1.2845,-1.314,-1.3394,-1.3449,-1.3374,-1.3739,-1.4181,-1.465,-1.4765,-1.4673,-1.443,-1.4303,-1.3894,-1.3481,-1.3536,-1.3193,-1.278,-1.2972,-1.3108,-1.338,-1.4026,-1.3633,-1.3093,-1.356,-1.3149,-1.2763,-1.3416,-1.3625,-1.3955,-1.4881,-1.5252,-1.5581,-1.624,-1.6539,-1.638,-1.5421,-1.4505,-1.381,-1.3617,-1.3304,-1.3045,-1.3008,-1.3961,-1.4723,-1.5005,-1.6269,-1.7341,-1.7881,-1.9293,-2.0182,-2.0346,-2.1342,-2.244,-2.3618,-2.3119,-2.3442,-2.4808,-2.4068,-2.3208,-2.225,-2.2216,-2.1953,-2.1401,-2.0054,-1.5725,-1.0503,-1.0329,-1.0101,-0.9653,0.0,0.0,0.0,0.0,0.0,0.0,0.0,0.0,0.0,0.0,0.0,0.0,0.0,0.0,0.0,0.0,0.0,0.0,0.0,0.0,0.0,-0.5914,-0.5846,-0.6087,-0.666,-0.7181,-0.7587,-0.8139,-0.8488,-0.8546,-0.9327,-0.974,-0.9744,-1.0319,-1.0544,-1.0448,-1.0428,-1.0498,-1.0696,-1.0666,-1.1125,-1.1965,-1.2388,-1.2886,-1.3474,-1.3934,-1.4034,-1.3977,-1.4344,-1.4593,-1.4799,-1.5197,-1.5036,-1.4569,-1.4373,-1.4066,-1.3713,-1.3554,-1.3292,-1.3101,-1.3454,-1.3462,-1.3372,-1.3504,-1.3002,-1.2471,-1.2814,-1.2597,-1.2471,-1.3142,-1.3238,-1.3431,-1.4324,-1.4492,-1.4541,-1.4634,-1.4548,-1.4491,-1.4568,-1.3592,-1.2759,-1.2614,-1.1922,-1.1463,-1.1643,-1.2332,-1.3037,-1.3696,-1.4902,-1.6116,-1.7124,-1.8098,-1.9005,-1.9809,-2.0107,-2.0761,-2.1917,-2.2026,-2.2678,-2.397,-2.3303,-2.2729,-2.2296,-2.2021,-2.1697,-2.1293,-2.148,-1.8833,0.0,0.0,0.0,0.0,0.0,-0.8385,0.0,0.0,0.0,0.0,0.0,0.0,0.0,0.0,0.0,0.0,0.0,0.0,0.0,0.0,0.0,0.0,0.0,0.0,0.0,-0.5589,-0.564,-0.6117,-0.6667,-0.7167,-0.7652,-0.8129,-0.8339,-0.825,-0.9092,-0.9433,-0.9207,-0.9952,-1.0262,-1.0157,-1.0243,-1.0389,-1.0567,-1.0381,-1.0895,-1.1944,-1.2159,-1.2758,-1.3658,-1.4197,-1.45,-1.4706,-1.5074,-1.5102,-1.4983,-1.5543,-1.5335,-1.4753,-1.45,-1.4249,-1.4013,-1.3748,-1.3647,-1.3668,-1.4005,-1.3788,-1.3355,-1.2964,-1.2475,-1.2076,-1.2126,-1.22,-1.2397,-1.2958,-1.3007,-1.313,-1.3815,-1.3825,-1.3591,-1.3342,-1.2554,-1.2412,-1.3834,-1.2697,-1.1589,-1.1612,-1.0507,-0.9792,-1.0095,-1.0426,-1.1002,-1.1985,-1.3056,-1.4235,-1.5574,-1.6438,-1.7411,-1.8557,-1.8601,-1.9034,-2.0007,-2.0959,-2.1872,-2.2701,-2.2387,-2.2297,-2.2454,-2.2002,-2.1648,-2.1387,-2.1371,-2.0623,0.0,0.0,0.0,0.0,-0.9272,0.0,0.0,0.0,0.0,0.0,0.0,0.0,0.0,0.0,0.0,0.0,0.0,0.0,0.0,0.0,0.0,0.0,0.0,0.0,0.0,0.0,-0.5192,-0.5878,-0.6051,-0.6576,-0.757,-0.7844,-0.7977,-0.8032,-0.8649,-0.9061,-0.9207,-0.93,-0.9695,-1.036,-1.0032,-1.0336,-1.1196,-1.1044,-1.164,-1.275,-1.2722,-1.325,-1.4134,-1.4328,-1.4581,-1.4869,-1.4925,-1.4937,-1.4915,-1.5131,-1.5017,-1.4753,-1.45,-1.4176,-1.3952,-1.4156,-1.3807,-1.3313,-1.3122,-1.2628,-1.2204,-1.2615,-1.2336,-1.2076,-1.2783,-1.2554,-1.2338,-1.3156,-1.3045,-1.2881,-1.3371,-1.2774,-1.2133,-1.211,-1.0964,-1.0471,-1.1959,-1.0425,-0.9039,-0.9094,-0.8127,-0.7283,-0.705,-0.7902,-0.8823,-0.9522,-1.0561,-1.1617,-1.2694,-1.4461,-1.5721,-1.6173,-1.7023,-1.8085,-1.9441,-2.0497,-2.1159,-2.1327,-2.1678,-2.2004,-2.2324,-2.2144,-2.1955,-2.1736,-2.1678,-2.0991,0.0,0.0,0.0,0.0,0.0,0.0,0.0,0.0,-0.6955,0.0,0.0,0.0,0.0,0.0,0.0,0.0,0.0,0.0,0.0,0.0,0.0,0.0,0.0,0.0,0.0,0.0,0.0,0.0,0.0,-0.6229,-0.7028,-0.7525,-0.7651,-0.738,-0.8131,-0.8511,-0.8451,-0.8958,-0.9412,-0.9818,-0.9845,-1.0362,-1.1286,-1.108,-1.1851,-1.3353,-1.3207,-1.3631,-1.4454,-1.45,-1.4674,-1.4903,-1.4903,-1.496,-1.5051,-1.5348,-1.5117,-1.4627,-1.4302,-1.409,-1.3973,-1.3789,-1.3827,-1.3819,-1.3113,-1.2648,-1.2395,-1.2546,-1.2467,-1.2466,-1.2966,-1.3148,-1.3314,-1.3805,-1.3482,-1.298,-1.2749,-1.2121,-1.1405,-1.075,-0.98,-0.9167,-0.9276,-0.8423,-0.7564,-0.7097,-0.6487,-0.5893,-0.5356,-0.6112,-0.689,-0.7459,-0.844,-0.953,-1.0689,-1.1579,-1.2663,-1.409,-1.5069,-1.6064,-1.7103,-1.8068,-1.8868,-1.9512,-1.9689,-2.0051,-2.0622,-2.0471,-2.0573,-2.0879,-2.1197,-2.0894,-1.0915,0.0,0.0,0.0,0.0,0.0,0.0,0.0,0.0,0.0,0.0,0.0,0.0,0.0,0.0,0.0,0.0,0.0,0.0,0.0,0.0,0.0,0.0,0.0,0.0,0.0,0.0,0.0,0.0,0.0,-0.6752,-0.7199,-0.7287,-0.6959,-0.7668,-0.8042,-0.8003,-0.8612,-0.9133,-0.96,-0.9787,-1.0352,-1.1279,-1.1302,-1.2127,-1.3542,-1.3561,-1.3965,-1.4627,-1.4569,-1.4685,-1.4869,-1.4869,-1.4926,-1.5051,-1.5369,-1.5091,-1.4511,-1.4174,-1.4052,-1.4018,-1.3847,-1.388,-1.3862,-1.3135,-1.2679,-1.2444,-1.2503,-1.2556,-1.267,-1.3012,-1.3484,-1.391,-1.4028,-1.3623,-1.3014,-1.2336,-1.149,-1.0531,-0.953,-0.8531,-0.7537,-0.6603,-0.6504,-0.6305,-0.5582,-0.502,-0.4477,-0.4,-0.441,-0.4905,-0.5285,-0.6185,-0.7134,-0.8107,-0.863,-0.9809,-1.1939,-1.2797,-1.3684,-1.4692,-1.5592,-1.6664,-1.7972,-1.8099,-1.8532,-1.9246,-1.9311,-1.9575,-2.0059,-2.0638,-2.0567,0.0,0.0,0.0,-0.8199,0.0,0.0,0.0,0.0,-0.7478,0.0,0.0,0.0,0.0,0.0,0.0,0.0,0.0,0.0,0.0,0.0,0.0,0.0,0.0,0.0,0.0,0.0,0.0,0.0,0.0,0.0,-0.699,-0.6871,-0.6839,-0.709,-0.7311,-0.7698,-0.8282,-0.8181,-0.8794,-1.0079,-0.989,-1.0289,-1.1236,-1.1994,-1.2626,-1.3153,-1.3721,-1.4257,-1.4674,-1.4489,-1.4557,-1.4799,-1.4799,-1.4799,-1.4822,-1.4891,-1.4708,-1.4384,-1.4246,-1.4066,-1.4037,-1.479,-1.4082,-1.2956,-1.2996,-1.2404,-1.1839,-1.2353,-1.2401,-1.2438,-1.2959,-1.3313,-1.3491,-1.343,-1.3154,-1.2775,-1.2311,-1.0714,-0.919,-0.8564,-0.6918,-0.526,-0.4192,-0.4644,-0.5054,-0.4698,-0.3591,-0.2784,-0.2764,-0.2661,-0.2683,-0.289,-0.358,-0.4128,-0.4347,-0.5919,-0.7708,-0.9603,-1.0047,-1.1005,-1.2714,-1.3691,-1.5062,-1.6903,-1.7517,-1.8175,-1.8912,-1.9439,-1.9671,-1.9625,-2.0172,-1.9991,0.0,0.0,-0.954,-0.84,0.0,0.0,0.0,0.0,0.0,0.0,0.0,0.0,0.0,0.0,0.0,0.0,0.0,0.0,0.0,0.0,0.0,0.0,0.0,0.0,0.0,0.0,0.0,0.0,-0.4486,0.0,0.0,-0.6613,-0.6721,-0.71,-0.6914,-0.7179,-0.7967,-0.7782,-0.8332,-0.9573,-0.9414,-1.0138,-1.1601,-1.1959,-1.2796,-1.3993,-1.4265,-1.4441,-1.45,-1.4419,-1.4361,-1.4278,-1.4278,-1.4208,-1.4174,-1.4569,-1.4454,-1.4057,-1.3641,-1.3631,-1.3755,-1.3258,-1.2794,-1.2357,-1.219,-1.1835,-1.1517,-1.1679,-1.1948,-1.2391,-1.2986,-1.3562,-1.4014,-1.4278,-1.3616,-1.267,-1.1858,-1.0262,-0.8625,-0.7433,-0.617,-0.4799,-0.3246,-0.3055,-0.2937,-0.2418,-0.2135,-0.1881,-0.1678,-0.1719,-0.1862,-0.2103,-0.2563,-0.3003,-0.3375,-0.4871,-0.6198,-0.7104,-0.7717,-0.8444,-0.9347,-0.991,-1.1422,-1.4068,-1.405,-1.521,-1.7628,-1.7882,-1.8208,-1.8623,-1.926,-1.9503,-1.0414,-1.0003,0.0,-0.8294,-0.8284,0.0,-0.7432,0.0,0.0,0.0,0.0,0.0,0.0,0.0,0.0,0.0,0.0,0.0,0.0,0.0,0.0,0.0,0.0,0.0,0.0,0.0,-0.281,-0.382,-0.4018,0.0,0.0,0.0,-0.6372,-0.6799,-0.6512,-0.6714,-0.7467,-0.7534,-0.8114,-0.9189,-0.935,-1.0186,-1.1591,-1.2044,-1.2925,-1.4099,-1.4261,-1.4361,-1.4373,-1.4082,-1.3928,-1.3868,-1.3868,-1.375,-1.3644,-1.415,-1.4116,-1.3827,-1.3531,-1.3404,-1.3231,-1.2315,-1.1965,-1.1831,-1.1532,-1.134,-1.1197,-1.1269,-1.1503,-1.1891,-1.2493,-1.3301,-1.3895,-1.3758,-1.3301,-1.2502,-1.1032,-0.9424,-0.7772,-0.6232,-0.5003,-0.3678,-0.1916,-0.1496,-0.129,-0.0986,-0.1138,-0.1162,-0.0827,-0.0851,-0.0964,-0.1144,-0.1343,-0.1674,-0.2142,-0.3099,-0.3919,-0.45,-0.5156,-0.5961,-0.6988,-0.7415,-0.8792,-1.1311,-1.1252,-1.2338,-1.4657,-1.522,-1.5766,-1.6282,-1.7394,-1.8029]},{"header":{"parameterUnit":"m.s-1","parameterCategory":1,"la1":30.6,"la2":29.2853,"lo1":-89.7004,"lo2":-87.6739,"dy":0.0162,"dx":0.0183,"nx":112,"ny":82,"refTime":"2026-03-14T12:00:00:Z","depth":0,"parameterNumber":3,"parameterNumberName":"V-component_of_WINDS"},"data":[0.0,0.0,0.0,0.0,0.0,0.0,0.0,0.0,0.0,0.0,0.0,0.0,0.0,0.0,0.0,0.0,0.0,0.0,0.0,0.0,0.0,0.0,0.0,0.0,0.0,0.0,0.0,0.0,0.0,0.0,0.0,0.0,0.0,0.0,0.0,0.0,0.0,0.0,0.0,0.0,0.0,0.0,0.0,0.0,0.0,0.0,0.0,0.0,0.0,0.0,0.0,0.0,0.0,0.0,0.0,0.0,0.0,0.0,0.0,0.0,0.0,0.0,0.0,0.0,0.0,0.0,0.0,0.0,0.0,0.0,0.0,0.0,0.0,0.0,0.0,0.0,0.0,0.0,0.0,0.0,0.0,0.0,0.0,0.0,0.0,0.0,0.0,0.0,0.0,0.0,0.0,2.2688,2.5295,2.7198,2.7813,2.8053,2.7723,2.6677,0.0,0.0,0.0,0.0,0.0,0.0,0.0,0.0,0.0,0.0,0.0,0.0,0.0,0.0,0.0,0.0,0.0,0.0,0.0,0.0,0.0,0.0,0.0,0.0,0.0,0.0,0.0,0.0,0.0,0.0,0.0,0.0,0.0,0.0,0.0,0.0,0.0,0.0,0.0,0.0,0.0,0.0,0.0,0.0,0.0,0.0,0.0,0.0,0.0,0.0,0.0,0.0,0.0,0.0,0.0,0.0,0.0,0.0,0.0,0.0,0.0,0.0,0.0,0.0,0.0,0.0,0.0,0.0,0.0,0.0,0.0,0.0,0.0,0.0,0.0,0.0,0.0,0.0,0.0,0.0,0.0,0.0,0.0,0.0,0.0,0.0,0.0,0.0,0.0,0.0,0.0,0.0,0.0,0.0,0.0,0.0,0.0,0.0,0.0,0.0,0.0,0.0,0.0,0.0,2.1388,2.4448,2.5967,2.7004,2.7672,2.7908,2.7892,2.7613,0.0,0.0,0.0,0.0,0.0,0.0,0.0,0.0,0.0,0.0,0.0,0.0,0.0,0.0,0.0,0.0,0.0,0.0,0.0,0.0,0.0,0.0,0.0,0.0,0.0,0.0,0.0,0.0,0.0,0.0,0.0,0.0,0.0,0.0,0.0,0.0,0.0,0.0,0.0,0.0,0.0,0.0,0.0,0.0,0.0,0.0,0.0,0.0,0.0,0.0,0.0,0.0,0.0,0.0,0.0,0.0,0.0,0.0,0.0,0.0,0.0,0.0,0.0,0.0,0.0,0.0,0.0,0.0,0.0,0.0,0.0,0.0,0.0,0.0,0.0,0.0,0.0,0.0,0.0,0.0,0.0,0.0,0.0,0.0,0.0,0.0,0.0,0.0,0.0,0.0,0.0,0.0,0.0,0.0,0.0,0.0,0.0,0.0,0.0,0.0,0.0,0.0,0.0,2.1488,2.326,2.5013,2.659,2.772,2.8259,2.8158,2.8143,2.8319,2.8203,0.0,0.0,0.0,0.0,0.0,0.0,0.0,0.0,0.0,0.0,0.0,0.0,0.0,0.0,0.0,0.0,0.0,0.0,0.0,0.0,0.0,0.0,0.0,0.0,0.0,0.0,0.0,0.0,0.0,0.0,0.0,0.0,0.0,0.0,0.0,0.0,0.0,0.0,0.0,0.0,0.0,0.0,0.0,0.0,0.0,0.0,0.0,0.0,0.0,0.0,0.0,0.0,0.0,0.0,0.0,0.0,0.0,0.0,0.0,0.0,0.0,0.0,0.0,0.0,0.0,0.0,0.0,0.0,0.0,0.0,0.0,0.0,0.0,0.0,0.0,0.0,0.0,0.0,0.0,0.0,0.0,0.0,0.0,0.0,0.0,0.0,0.0,0.0,0.0,0.0,0.0,0.0,0.0,0.0,0.0,0.0,0.0,0.0,0.0,0.0,0.0,0.0,2.3512,2.515,2.568,2.7199,2.8266,2.8479,2.8088,2.8128,2.8828,2.8211,0.0,0.0,0.0,0.0,0.0,0.0,0.0,0.0,0.0,0.0,0.0,0.0,0.0,0.0,0.0,0.0,0.0,0.0,0.0,0.0,0.0,0.0,0.0,0.0,0.0,0.0,0.0,0.0,0.0,0.0,0.0,0.0,0.0,0.0,0.0,0.0,0.0,0.0,0.0,0.0,0.0,0.0,0.0,0.0,0.0,0.0,0.0,0.0,0.0,0.0,0.0,0.0,0.0,0.0,0.0,0.0,0.0,0.0,0.0,0.0,0.0,0.0,0.0,0.0,0.0,0.0,0.0,0.0,0.0,0.0,0.0,0.0,0.0,0.0,0.0,0.0,0.0,0.0,0.0,0.0,0.0,0.0,0.0,0.0,0.0,0.0,0.0,0.0,0.0,0.0,0.0,0.0,0.0,0.0,0.0,0.0,0.0,0.0,0.0,0.0,0.0,0.0,2.474,2.6079,2.7216,2.7792,2.7977,2.762,2.7226,2.7576,2.8986,2.7749,0.0,0.0,0.0,0.0,0.0,0.0,0.0,0.0,0.0,0.0,0.0,0.0,0.0,0.0,0.0,0.0,0.0,0.0,0.0,0.0,0.0,0.0,0.0,0.0,0.0,0.0,0.0,0.0,0.0,0.0,0.0,0.0,0.0,0.0,0.0,0.0,0.0,0.0,0.0,0.0,0.0,0.0,0.0,0.0,0.0,0.0,0.0,0.0,0.0,0.0,0.0,0.0,0.0,0.0,0.0,0.0,0.0,0.0,0.0,0.0,0.0,0.0,0.0,0.0,0.0,0.0,0.0,0.0,0.0,0.0,0.0,0.0,0.0,0.0,0.0,0.0,0.0,0.0,0.0,0.0,0.0,0.0,0.0,0.0,0.0,0.0,0.0,0.0,0.0,0.0,0.0,0.0,0.0,0.0,0.0,0.0,0.0,0.0,0.0,0.0,0.0,0.0,2.5165,2.6893,0.0,2.892,2.9557,2.8976,2.9195,2.9447,2.9777,0.0,0.0,0.0,0.0,0.0,0.0,0.0,0.0,0.0,0.0,0.0,0.0,0.0,0.0,0.0,0.0,0.0,0.0,0.0,0.0,0.0,0.0,0.0,0.0,0.0,0.0,0.0,0.0,0.0,0.0,0.0,0.0,0.0,0.0,0.0,0.0,0.0,0.0,0.0,0.0,0.0,0.0,0.0,0.0,0.0,0.0,0.0,0.0,0.0,0.0,0.0,0.0,0.0,0.0,0.0,0.0,0.0,0.0,0.0,0.0,0.0,0.0,0.0,0.0,0.0,0.0,0.0,0.0,0.0,0.0,0.0,0.0,0.0,0.0,0.0,0.0,0.0,0.0,0.0,0.0,0.0,0.0,0.0,0.0,0.0,0.0,0.0,0.0,0.0,0.0,0.0,0.0,0.0,0.0,0.0,0.0,0.0,0.0,0.0,0.0,0.0,0.0,2.3178,2.5851,2.7727,0.0,2.9676,3.0404,2.9546,3.0033,3.0242,2.9876,0.0,0.0,0.0,0.0,0.0,0.0,0.0,0.0,0.0,0.0,0.0,0.0,0.0,0.0,0.0,0.0,0.0,0.0,0.0,0.0,0.0,0.0,0.0,0.0,0.0,0.0,0.0,0.0,0.0,0.0,0.0,0.0,0.0,0.0,0.0,0.0,0.0,0.0,0.0,0.0,0.0,0.0,0.0,0.0,0.0,0.0,0.0,0.0,0.0,0.0,0.0,0.0,0.0,0.0,0.0,0.0,0.0,0.0,0.0,0.0,0.0,0.0,0.0,0.0,0.0,0.0,0.0,0.0,0.0,0.0,0.0,0.0,0.0,0.0,0.0,0.0,0.0,0.0,0.0,0.0,0.0,0.0,0.0,0.0,0.0,0.0,0.0,0.0,0.0,0.0,0.0,0.0,0.0,0.0,0.0,0.0,0.0,0.0,0.0,0.0,0.0,0.0,2.4654,2.7002,2.8609,2.887,2.9931,3.0127,2.8903,2.9265,2.9419,0.0,0.0,0.0,0.0,0.0,0.0,0.0,0.0,0.0,0.0,0.0,0.0,0.0,0.0,0.0,0.0,0.0,0.0,0.0,0.0,0.0,0.0,0.0,0.0,0.0,0.0,0.0,0.0,0.0,0.0,0.0,0.0,0.0,0.0,0.0,0.0,0.0,0.0,0.0,0.0,0.0,0.0,0.0,0.0,0.0,0.0,0.0,0.0,0.0,0.0,0.0,0.0,0.0,0.0,0.0,0.0,0.0,0.0,0.0,0.0,0.0,0.0,0.0,0.0,0.0,0.0,0.0,0.0,0.0,0.0,0.0,0.0,0.0,0.0,0.0,0.0,0.0,0.0,0.0,0.0,0.0,0.0,0.0,0.0,0.0,0.0,0.0,0.0,0.0,0.0,0.0,0.0,0.0,0.0,0.0,0.0,0.0,0.0,0.0,0.0,0.0,0.0,0.0,2.3582,2.6584,2.8758,2.9086,3.1072,3.1566,2.96,3.1466,3.1614,2.898,0.0,0.0,0.0,0.0,0.0,0.0,0.0,0.0,0.0,0.0,0.0,0.0,0.0,0.0,0.0,0.0,0.0,0.0,0.0,0.0,0.0,0.0,0.0,0.0,0.0,0.0,0.0,0.0,0.0,0.0,0.0,0.0,0.0,0.0,0.0,0.0,0.0,0.0,0.0,0.0,0.0,0.0,0.0,0.0,0.0,0.0,0.0,0.0,0.0,0.0,0.0,0.0,0.0,0.0,0.0,0.0,0.0,0.0,0.0,0.0,0.0,0.0,0.0,0.0,0.0,0.0,0.0,0.0,0.0,0.0,0.0,0.0,0.0,0.0,0.0,0.0,0.0,0.0,0.0,0.0,0.0,0.0,0.0,0.0,0.0,0.0,0.0,0.0,0.0,0.0,0.0,0.0,0.0,0.0,0.0,0.0,0.0,0.0,0.0,0.0,0.0,0.0,2.3106,2.6236,2.8656,2.9247,3.1301,3.1984,3.0467,3.2302,3.2271,2.9328,0.0,0.0,0.0,0.0,0.0,0.0,0.0,0.0,0.0,0.0,0.0,0.0,0.0,0.0,0.0,0.0,0.0,0.0,0.0,0.0,0.0,0.0,0.0,0.0,0.0,0.0,0.0,0.0,0.0,0.0,0.0,0.0,0.0,0.0,0.0,0.0,0.0,0.0,0.0,0.0,0.0,0.0,0.0,0.0,0.0,0.0,0.0,0.0,0.0,0.0,0.0,0.0,0.0,0.0,0.0,0.0,0.0,0.0,0.0,0.0,0.0,0.0,0.0,0.0,0.0,0.0,0.0,0.0,0.0,0.0,0.0,0.0,0.0,0.0,0.0,0.0,0.0,0.0,0.0,0.0,0.0,0.0,0.0,0.0,0.0,0.0,0.0,0.0,0.0,0.0,0.0,0.0,0.0,0.0,0.0,0.0,0.0,0.0,0.0,0.0,0.0,0.0,2.3123,2.6014,2.8425,2.942,3.1027,3.1812,3.1314,3.2199,3.1951,2.9993,0.0,0.0,0.0,0.0,0.0,0.0,0.0,0.0,0.0,0.0,0.0,0.0,0.0,0.0,0.0,0.0,0.0,0.0,0.0,0.0,0.0,0.0,0.0,0.0,0.0,0.0,0.0,0.0,0.0,0.0,0.0,0.0,0.0,0.0,0.0,0.0,0.0,0.0,0.0,0.0,0.0,0.0,0.0,0.0,0.0,0.0,0.0,0.0,0.0,0.0,0.0,0.0,0.0,0.0,0.0,0.0,0.0,0.0,0.0,0.0,1.5054,0.0,0.0,0.0,0.0,0.0,0.0,0.0,0.0,0.0,0.0,0.0,0.0,0.0,0.0,0.0,0.0,0.0,0.0,0.0,0.0,0.0,0.0,0.0,0.0,0.0,0.0,0.0,0.0,0.0,0.0,0.0,0.0,0.0,0.0,0.0,0.0,0.0,0.0,0.0,0.0,0.0,2.3522,2.635,2.8678,2.9623,3.1654,3.2439,3.1234,3.2578,3.2613,3.055,0.0,0.0,0.0,0.0,0.0,0.0,0.0,0.0,0.0,0.0,0.0,0.0,0.0,0.0,0.0,0.0,0.0,0.0,0.0,0.0,0.0,0.0,0.0,0.0,0.0,0.0,0.0,0.0,0.0,0.0,0.0,0.0,0.0,0.0,0.0,0.0,0.0,0.0,0.0,0.0,0.0,0.0,0.0,0.0,0.0,0.0,0.0,0.0,0.0,0.0,0.0,0.0,0.0,0.0,0.0,0.0,0.0,0.0,0.0,0.0,0.0,1.5134,0.0,0.0,0.0,0.0,0.0,0.0,0.0,0.0,0.0,0.0,0.0,0.0,0.0,0.0,0.0,0.0,0.0,0.0,0.0,0.0,0.0,0.0,0.0,0.0,0.0,0.0,0.0,0.0,0.0,0.0,0.0,0.0,0.0,0.0,0.0,0.0,0.0,0.0,0.0,0.0,2.4035,2.6619,2.89,3.0328,3.2055,3.2854,3.2302,3.2985,3.2896,3.1554,3.104,0.0,0.0,0.0,0.0,0.0,0.0,0.0,0.0,0.0,0.0,0.0,0.0,0.0,0.0,0.0,0.0,0.0,0.0,0.0,0.0,0.0,0.0,0.0,0.0,0.0,0.0,0.0,0.0,0.0,0.0,0.0,0.0,0.0,0.0,0.0,0.0,0.0,0.0,0.0,0.0,0.0,0.0,0.0,0.0,0.0,0.0,0.0,0.0,0.0,0.0,0.0,0.0,0.0,2.0428,2.0385,2.059,1.9562,1.9139,1.9077,1.6909,1.571,1.5278,0.0,0.0,0.0,0.0,0.0,0.0,0.0,0.0,0.0,0.0,0.0,0.0,0.0,0.0,0.0,0.0,0.0,0.0,0.0,0.0,0.0,0.0,0.0,0.0,0.0,2.0082,2.0854,0.0,0.0,0.0,0.0,0.0,0.0,0.0,0.0,0.0,0.0,0.0,0.0,2.4688,2.6912,2.8985,3.0744,3.2212,3.3166,3.3421,3.3435,3.3192,3.2633,3.1303,3.031,0.0,0.0,0.0,0.0,0.0,0.0,0.0,0.0,0.0,0.0,0.0,0.0,0.0,0.0,0.0,0.0,0.0,0.0,0.0,0.0,0.0,0.0,0.0,0.0,0.0,0.0,0.0,0.0,0.0,0.0,0.0,0.0,1.2298,1.2847,0.0,0.0,0.0,0.0,0.0,0.0,0.0,0.0,0.0,0.0,0.0,0.0,0.0,2.2218,2.3528,2.4131,2.372,2.231,2.2421,2.1737,2.0305,1.8907,1.8294,1.8265,1.6565,0.0,1.5199,1.5071,0.0,0.0,0.0,0.0,0.0,0.0,0.0,0.0,0.0,0.0,0.0,0.0,0.0,0.0,0.0,0.0,0.0,0.0,0.0,0.0,0.0,0.0,1.6948,1.7134,1.8864,2.0391,0.0,2.0528,2.0696,1.9945,1.9832,0.0,0.0,0.0,0.0,0.0,0.0,0.0,2.5538,2.7352,2.8828,2.9711,3.1916,3.3293,3.3164,3.3943,3.4107,3.3388,3.2197,3.1513,3.1479,2.9561,0.0,0.0,0.0,0.0,0.0,0.0,0.0,0.0,0.0,0.0,0.0,0.0,0.0,0.0,0.0,0.0,0.0,0.0,0.0,0.0,0.0,0.0,0.0,0.0,0.0,0.0,0.0,0.0,0.0,1.1819,1.2773,1.3625,1.3707,1.395,0.0,0.0,0.0,0.0,0.0,0.0,0.0,0.0,0.0,2.3814,2.3469,2.3339,2.3589,2.3501,2.2733,2.1249,2.0801,2.0371,1.9901,1.8246,1.7453,1.7369,1.6556,1.5274,1.3777,1.3573,1.2307,1.0427,0.0,0.0,0.0,0.0,0.897,0.9368,0.8581,0.8731,0.0,0.8174,0.0,0.0,0.0,0.0,0.0,0.0,0.0,0.0,0.0,0.0,0.0,1.593,1.7624,1.9205,1.8648,1.9622,2.0734,0.0,2.1721,2.1807,2.1126,0.0,0.0,0.0,0.0,0.0,2.5866,2.7284,2.8648,2.9902,3.142,3.2739,3.3756,3.3742,3.3801,3.4052,3.2048,3.0997,3.1342,2.9249,2.8734,0.0,0.0,0.0,0.0,0.0,0.0,0.0,0.0,0.0,0.0,0.0,0.0,0.0,0.0,0.0,0.0,0.0,0.0,0.0,0.0,0.0,0.0,0.0,0.0,0.0,0.0,0.0,0.0,1.2069,1.3141,1.4374,1.4538,1.4676,0.0,0.0,0.0,0.0,0.0,0.0,2.2677,2.3485,2.4027,2.4226,2.3895,2.3321,2.2518,2.1903,2.1016,1.98,1.8964,1.8804,1.9184,1.7627,1.6958,1.6984,1.6611,1.527,1.3297,1.2716,1.1573,1.0134,0.9451,0.8826,0.8327,0.8658,0.9457,1.0251,0.9411,0.9533,0.9923,0.8887,0.0,0.7096,0.6575,0.0,0.0,0.0,0.0,1.157,1.2824,1.4518,1.5766,1.5125,1.6576,1.7931,1.7297,1.8319,1.9899,0.0,2.2872,2.3175,2.2008,0.0,0.0,0.0,0.0,2.4662,2.5902,2.6833,2.794,2.9462,3.0577,3.1913,3.358,3.3584,3.3675,3.4208,3.2054,3.0964,3.1358,2.9632,2.9175,3.0258,0.0,0.0,0.0,0.0,0.0,0.0,0.0,0.0,0.0,0.0,0.0,0.0,0.0,0.0,0.0,0.0,0.0,0.0,0.0,0.0,0.0,0.0,0.0,0.0,0.0,0.0,0.0,0.0,0.0,1.5233,1.6367,0.0,0.0,0.0,0.0,2.1458,2.2327,2.3453,2.5045,2.5295,2.4977,2.4049,2.2963,2.182,2.0657,2.0416,1.9775,1.8778,1.8217,1.7952,1.7958,1.7115,1.7018,1.7515,1.6678,1.585,1.4967,1.3552,1.209,1.0718,1.0364,1.0438,1.0671,1.0257,1.0655,1.1307,1.0502,1.0852,1.1514,1.0441,0.9628,0.8982,0.851,0.8949,0.0,0.0,1.1122,1.1919,1.2555,1.3802,1.4873,1.4894,1.5875,1.6892,1.7217,1.7329,1.8089,0.0,2.2392,2.3551,2.3973,0.0,2.4374,2.493,2.4756,2.4839,2.564,2.5832,2.6294,2.7348,2.9308,3.0935,3.1853,3.3629,3.4391,3.3599,3.2757,3.2317,3.242,3.1525,3.0848,3.0487,3.0524,0.0,0.0,0.0,0.0,0.0,0.0,0.0,0.0,0.0,0.0,0.0,0.0,0.0,0.0,0.0,0.0,0.0,0.0,0.0,0.0,0.0,0.0,0.0,0.0,0.0,0.0,0.0,0.0,1.6863,1.7159,0.0,0.0,1.9471,2.0247,2.0309,2.1694,2.2136,2.1228,2.1994,2.1458,1.9243,1.9705,1.9095,1.7236,1.7754,1.7751,1.7219,1.646,1.6483,1.7128,1.5511,1.5166,1.5837,1.5448,1.5113,1.4791,1.4569,1.2926,1.0543,1.0656,1.0421,1.0111,1.06,1.1086,1.1507,1.1565,1.1397,1.0983,0.99,0.9009,0.8374,0.8362,0.8862,0.9518,1.0021,1.1049,1.2101,1.2579,1.3667,1.4443,1.3562,1.3954,1.4383,1.3929,1.4217,1.482,1.5701,1.9115,2.1885,2.1932,2.3148,2.3917,2.3357,2.3476,2.3599,2.3509,2.3602,2.3923,2.4595,2.6498,2.8492,3.0352,3.1877,3.3031,3.3704,3.2178,3.1367,3.1647,3.0419,2.9904,3.0289,2.9926,2.9357,0.0,0.0,0.0,0.0,0.0,0.0,0.0,0.0,0.0,0.0,0.0,0.0,0.0,0.0,0.0,0.0,0.0,0.0,0.0,0.0,0.0,0.0,0.0,0.0,0.0,0.0,1.5802,1.7707,1.7869,1.7918,1.817,1.916,1.9575,1.9074,2.0218,2.0262,1.8674,1.9449,1.8742,1.6107,1.7127,1.6669,1.4471,1.575,1.6107,1.5562,1.5536,1.6035,1.6895,1.5462,1.5215,1.5912,1.5821,1.5576,1.528,1.5878,1.4505,1.1999,1.1988,1.1671,1.1316,1.183,1.2309,1.2741,1.2856,1.2248,1.1286,1.0456,0.9876,0.9576,0.9869,1.0374,1.0936,1.1481,1.2382,1.3288,1.3621,1.4298,1.4625,1.363,1.3274,1.3053,1.2652,1.2482,1.2545,1.304,1.6617,1.9503,1.9373,2.1158,2.2357,2.1657,2.188,2.2011,2.1697,2.151,2.1777,2.2762,2.4322,2.6286,2.8739,3.0123,3.1398,3.2713,3.1344,3.063,3.0917,2.9839,2.9404,2.9746,2.9166,2.8621,2.8169,0.0,0.0,0.0,0.0,0.0,0.0,0.0,0.0,0.0,0.0,0.0,0.0,0.0,0.0,0.0,0.0,0.0,0.0,0.0,0.0,0.0,0.0,0.0,1.4959,1.5698,1.6659,1.7614,1.8421,1.8435,1.7233,1.7276,1.7572,1.8018,1.8074,1.8012,1.7858,1.8068,1.7212,1.5042,1.5481,1.4745,1.2662,1.463,1.5097,1.4069,1.5662,1.6719,1.7244,1.7092,1.7365,1.7919,1.7919,1.7407,1.6645,1.7487,1.6799,1.5121,1.4433,1.4311,1.4458,1.3981,1.4322,1.4961,1.4293,1.3472,1.2628,1.2281,1.2416,1.2803,1.3159,1.364,1.419,1.4836,1.5211,1.5463,1.5669,1.5553,1.5378,1.5157,1.4023,1.3124,1.3782,1.2404,1.1525,1.3048,1.5092,1.6588,1.663,1.8367,1.9841,2.0196,2.0157,0.0,2.0316,1.9623,1.987,2.1897,2.2845,2.4391,2.6983,2.8526,2.9694,3.051,3.0391,3.0335,3.0462,3.0082,2.957,2.8912,2.8408,2.7941,2.752,0.0,0.0,0.0,0.0,0.0,0.0,0.0,0.0,0.0,0.0,0.0,0.0,0.0,0.0,0.0,0.0,0.0,0.0,0.0,0.0,0.0,0.0,1.6332,1.6133,1.6296,1.6313,1.5967,1.6415,1.6392,1.5485,1.6384,1.7066,1.7145,1.738,1.6659,1.4704,1.5421,1.4793,1.2345,1.3857,1.4367,1.3617,1.5363,1.6593,1.7316,1.7178,1.7606,1.8479,1.7765,1.777,1.8336,1.8476,1.8449,1.8347,1.869,1.8137,1.7014,1.595,1.53,1.4867,1.4303,1.3933,1.3693,1.3555,1.318,1.2854,1.3377,1.3558,1.3708,1.4425,1.4823,1.5109,1.5537,1.5708,1.5795,1.5956,1.5798,1.557,1.5388,1.4744,1.4145,1.4012,1.3206,1.2403,1.2027,1.2948,1.4127,1.5157,1.688,1.8244,1.8582,1.8375,0.0,1.9211,1.7761,1.7622,2.0122,1.9955,2.1178,2.4948,2.6879,2.8495,2.9922,2.9875,3.0317,3.1505,3.0127,2.9211,2.8984,2.7741,2.7311,0.0,0.0,0.0,0.0,0.0,0.0,0.0,0.0,0.0,0.0,0.0,0.0,0.0,0.0,0.0,0.0,0.0,0.0,0.0,0.0,0.0,0.0,1.656,1.5945,1.4683,1.4941,1.5178,1.5015,1.4344,1.3994,1.4296,1.4894,1.5317,1.5421,1.5594,1.4901,1.3052,1.394,1.3822,1.2341,1.4109,1.5018,1.4888,1.6473,1.7483,1.7875,1.7767,1.7894,1.8224,1.7695,1.7598,0.0,1.8007,1.7989,1.7939,1.8309,1.7673,0.0,0.0,0.0,0.0,0.0,1.3705,1.3273,1.3381,1.321,1.3037,1.3525,1.3764,1.3976,1.463,1.509,1.5439,1.5642,1.5874,1.5999,1.5681,1.5739,1.5749,1.5235,1.4951,1.4742,1.4426,1.4109,1.3688,1.3047,1.3461,0.0,1.4651,1.5614,1.6524,1.7219,1.7143,1.7374,1.8321,1.7442,1.748,1.9402,1.9554,2.0733,2.3819,2.5722,0.0,0.0,0.0,2.9942,3.071,2.9245,0.0,0.0,0.0,0.0,0.0,0.0,0.0,0.0,2.8257,2.8135,0.0,0.0,0.0,0.0,0.0,0.0,0.0,0.0,0.0,0.0,0.0,0.0,0.0,0.0,0.0,0.0,1.5351,1.4412,1.1683,1.2123,1.3016,1.3734,1.2207,1.1726,1.3305,1.3284,1.3337,1.3742,1.3797,1.3512,1.286,0.0,0.0,0.0,0.0,1.6174,1.6111,1.7455,1.7725,1.6911,1.7549,1.7583,1.7134,1.7078,1.7015,1.6945,1.6945,1.6755,1.6461,1.7032,1.6261,1.4856,1.6339,1.6171,1.4985,1.4129,1.3561,1.3256,1.3509,0.0,0.0,1.3085,1.3382,1.3785,1.4062,1.4639,1.5206,1.5235,1.5584,1.5806,1.5002,1.5323,1.5594,1.4768,1.4717,1.4827,1.4691,1.4826,1.4988,1.504,1.5359,1.5467,1.4934,1.4681,1.4911,1.6095,1.6223,1.6549,1.7497,1.7745,1.8267,1.9401,0.0,0.0,2.3276,2.4941,2.6615,2.833,2.9331,2.9651,2.9135,2.8347,2.825,2.8971,2.8752,2.9117,3.0143,2.9934,2.9748,2.9641,2.9294,2.8851,0.0,0.0,0.0,0.0,0.0,0.0,0.0,0.0,0.0,0.0,0.0,0.0,0.0,0.0,0.0,1.2834,1.1631,1.0453,0.9549,0.8664,0.8181,0.8375,1.0005,1.1152,1.1292,1.3112,1.4599,1.5388,1.5637,1.5465,1.4788,1.5476,0.0,1.5111,1.5859,1.6221,1.6102,1.6645,1.694,1.6971,0.0,0.0,1.6634,1.6304,1.6308,1.6605,1.6704,1.6652,1.6472,1.6483,1.6072,1.5345,1.4727,1.4226,1.3841,1.3805,1.3377,1.2904,1.3414,1.3144,1.2603,1.2932,1.3186,1.3365,1.3296,1.3541,0.0,1.4181,1.4172,1.4052,1.4229,1.4125,1.3933,1.3709,1.3859,1.3998,1.3939,1.4345,1.4894,1.5389,1.5638,1.577,1.5744,1.4802,1.4359,1.5299,1.4825,1.4901,1.626,1.5913,1.6605,1.9365,1.8817,1.9487,2.2578,2.4235,2.564,2.6852,2.9844,3.104,2.9931,3.0263,3.0169,2.9484,2.935,2.9661,3.042,3.0952,3.1422,3.1757,2.9677,2.8534,0.0,0.0,0.0,0.0,0.0,0.0,0.0,0.0,0.0,0.0,0.0,1.4622,0.0,0.0,1.2564,1.2172,1.1311,1.0149,0.8567,0.8669,0.8769,0.8439,0.9671,1.1143,1.2658,1.4394,1.5903,1.7023,1.6968,1.6683,1.6179,1.6369,1.6231,1.5682,1.5877,1.596,1.5855,1.6104,1.6275,1.6304,1.6066,1.5907,1.5855,1.5642,1.5557,1.5593,1.5673,1.5673,1.5555,1.5235,1.4974,1.4668,1.3828,1.3621,1.3793,1.3718,1.3287,1.2789,1.3107,1.2834,1.2368,1.2595,1.2781,1.2967,1.2989,1.3216,1.3511,1.3498,1.3662,1.3795,1.3593,1.3584,1.3524,1.3177,1.3534,1.3917,1.3816,1.459,1.5452,1.5998,1.6211,1.6311,1.6438,1.524,1.4557,1.524,1.4863,1.4854,1.5829,1.5268,1.6057,1.9345,1.8479,1.9198,2.3022,2.5433,2.7266,2.8484,3.0557,3.1578,3.1225,3.0742,3.0418,3.0214,3.0145,3.0454,3.1158,3.1519,3.1804,3.1974,3.0799,3.0125,0.0,0.0,0.0,0.0,0.0,0.0,0.0,0.0,1.5428,1.6013,1.5306,1.4669,1.5007,1.3763,1.2469,1.1762,1.1278,1.0239,0.812,0.9451,1.0594,1.0495,1.061,1.1839,1.4801,1.5982,1.7037,1.8128,1.7799,1.7357,1.6955,1.6655,1.6285,1.5816,1.5662,1.5546,1.5478,1.5652,1.5652,1.5488,1.571,1.5565,1.5088,1.5155,1.5035,1.4777,1.4747,1.4701,1.4628,1.4159,1.3944,1.3887,1.352,1.3582,1.3825,1.3577,1.3201,1.2832,1.2716,1.2505,1.2241,1.2166,1.2329,1.256,1.2674,1.2972,1.3208,1.292,1.3299,1.3653,1.3137,1.3289,1.3428,1.3068,1.3556,1.4138,1.398,1.4932,1.5951,1.6449,1.6647,1.676,1.6751,1.5673,1.4923,1.5239,1.4874,1.4721,1.5071,1.4567,1.537,1.8395,1.8024,1.9289,2.3613,2.668,2.9032,3.0499,3.1469,3.2202,3.2704,3.1428,3.089,3.1236,3.1182,3.1439,3.1988,3.2024,3.202,3.2061,3.1975,3.1779,1.8833,1.6343,0.0,1.406,1.5137,1.593,0.0,0.0,1.6793,1.665,1.6417,1.6033,1.5384,1.3853,1.205,1.0042,0.854,0.77,0.7871,0.871,1.0124,1.2307,1.295,1.386,1.5531,1.6867,1.7728,1.7945,1.7783,1.7368,1.6684,1.6343,1.5941,1.5468,1.5323,1.5215,1.5059,1.5088,1.5088,1.5059,1.4922,1.4824,1.4754,1.5006,1.509,1.5059,1.4936,1.4757,1.4499,1.4255,1.4097,1.4007,1.4067,1.3617,1.2951,1.3038,1.3032,1.292,1.2489,1.2204,1.1986,1.1752,1.1996,1.2274,1.1872,1.2081,1.2398,1.2243,1.2274,1.2459,1.2952,1.3033,1.3068,1.3443,1.3947,1.4335,1.4204,1.49,1.5666,1.6162,1.6405,1.6488,1.6324,1.5636,1.4996,1.4587,1.3475,1.2699,1.2689,1.2529,1.313,1.5055,1.6082,1.8593,2.3395,2.6213,2.8541,3.0478,3.2515,3.3811,3.4244,3.4067,3.3625,3.2866,3.283,3.2788,3.2683,3.2762,3.307,3.3605,3.2568,3.1901,1.8086,0.0,0.0,0.0,1.5714,1.6364,1.6093,1.6739,1.7315,1.7061,1.6407,1.5721,1.5065,1.3785,1.2277,0.0,1.0071,0.9858,0.9926,1.0937,1.2039,1.3063,1.4263,1.5513,1.6836,1.7449,1.7906,1.8271,1.7783,1.7239,1.6751,1.6449,1.6066,1.5604,1.54,1.5196,1.5,1.4872,1.4793,1.4714,1.4686,1.4656,1.4595,1.4692,1.4714,1.4632,1.4441,1.4312,1.421,1.404,1.386,1.3704,1.3555,1.3255,1.2922,1.3067,1.2575,1.1834,1.1703,1.1437,1.1185,1.1152,1.1495,1.1872,1.1747,1.1934,1.2151,1.1965,1.212,1.2492,1.3108,1.3244,1.3365,1.4082,1.4597,1.4984,1.5308,1.6322,1.7322,1.7751,1.8169,1.8228,1.743,1.7007,1.6421,1.5375,1.3616,1.2266,1.1891,1.0308,0.9969,1.1887,1.5888,1.9442,2.1955,2.4582,2.7194,2.9804,3.1922,3.3741,3.5211,3.5205,3.4988,3.4503,3.3578,3.3033,3.2863,3.2884,3.272,3.2403,3.306,3.2655,1.8239,0.0,0.0,1.653,1.6685,1.7007,1.7707,1.7906,1.786,1.7635,1.6885,1.6104,1.551,1.4514,0.0,1.2175,1.2072,1.2125,1.2025,1.2659,1.3346,1.3918,1.4901,1.6081,1.7443,1.7446,1.7653,1.8355,1.7524,1.6956,1.6842,1.656,1.6159,1.5694,1.5593,1.5274,1.4773,1.4608,1.4443,1.4234,1.4414,1.4384,1.4176,1.4238,1.423,1.4207,1.401,1.395,1.392,1.3791,1.358,1.3339,1.3083,1.2823,1.2578,1.2748,1.2114,1.1171,1.101,1.0796,1.0587,1.0558,1.085,1.125,1.1368,1.1644,1.1882,1.1787,1.2243,1.2892,1.3532,1.3794,1.418,1.524,1.5705,1.6095,1.6776,1.7842,1.8825,1.9328,1.9713,1.967,1.8666,1.8271,1.7697,1.6489,1.4503,1.2812,1.1934,0.9223,0.8032,0.9689,1.4356,1.8229,2.0399,2.2589,2.5456,2.9169,3.1168,3.3283,3.5704,3.5962,3.5968,3.5792,3.4449,3.359,3.3231,3.3231,3.2767,3.1941,3.3296,3.2934,0.0,0.0,1.7281,1.818,1.8277,1.8253,1.8661,1.8764,1.872,1.8587,1.8376,1.8006,1.734,1.6504,1.5533,1.4379,1.3563,1.3171,1.3498,1.2796,1.3038,1.5175,1.4857,1.5118,0.0,1.6677,1.6854,1.785,1.6856,1.6446,1.6957,1.6536,1.611,1.5711,1.5833,1.5321,1.4126,1.4128,1.3914,1.3533,1.3802,1.3727,1.3341,1.3539,1.3783,1.401,1.386,1.3799,1.3799,1.3601,1.3305,1.3017,1.3009,1.2358,1.1475,1.1681,1.172,1.1555,1.0638,1.0455,1.053,1.0077,1.0069,1.0284,1.0407,1.0882,1.1466,1.1565,1.2476,1.3557,1.4286,1.484,1.5626,1.7079,1.7423,1.7676,1.8532,1.9066,1.9574,2.0293,2.0303,2.0017,1.9522,1.8981,1.8345,1.7642,1.6102,1.4463,1.2883,0.9853,0.8172,0.8956,1.0327,1.3429,1.9067,2.0452,2.3372,2.8862,3.0621,3.2754,3.5685,3.6566,3.6814,3.6489,3.5789,3.4985,3.4061,3.4061,3.3848,3.3434,3.3169,3.2309,0.0,0.0,1.854,1.9318,1.979,2.0128,2.0339,2.0236,2.0083,1.989,1.9482,1.9119,1.8983,1.8059,1.69,1.564,1.5159,1.461,1.3614,1.3465,1.3753,1.4547,1.4725,0.0,0.0,0.0,0.0,1.7125,1.6565,1.6188,1.6199,1.6357,1.6143,1.5516,1.5659,1.5279,1.4247,1.4142,1.3908,1.3486,1.3396,1.3314,1.3159,1.3148,1.3304,1.3573,1.3444,1.3345,1.3248,1.3101,1.2877,1.263,1.2145,1.1889,1.1746,1.1337,1.1067,1.0822,1.0283,1.0171,1.0204,0.9715,0.9825,1.022,1.0715,1.1017,1.1353,1.202,1.2829,1.3693,1.4449,1.5389,1.6422,1.7414,1.7719,1.8164,1.9435,1.9929,2.0365,2.118,2.1267,2.0948,2.0109,1.9727,1.9103,1.7865,1.5635,1.3222,1.076,0.908,0.7809,0.7094,0.8585,1.129,1.5372,1.7437,2.0466,2.5053,2.8235,3.0855,3.2875,3.5004,3.6302,3.6623,3.5899,3.5318,3.4955,3.4955,3.4438,3.3452,3.4152,3.3458,0.0,1.9455,2.0356,2.1276,2.1439,2.1416,2.1652,2.1252,2.0732,2.0365,2.002,1.9704,1.9439,1.8602,1.7594,1.655,1.5898,1.5178,1.4175,1.409,1.4218,1.4554,1.5012,0.0,0.0,0.0,0.0,1.6974,1.6476,1.6142,1.6098,1.6373,1.6148,1.5322,1.5484,1.5079,1.3991,1.3916,1.3705,1.3334,1.2955,1.2878,1.3059,1.2734,1.2836,1.3234,1.3017,1.2909,1.2913,1.2682,1.2404,1.2068,1.1516,1.1401,1.1485,1.0963,1.0661,1.046,1.0128,0.9996,0.987,0.9451,0.9501,0.9827,1.053,1.0931,1.1323,1.2226,1.3196,1.413,1.4871,1.5851,1.6901,1.7743,1.8094,1.8592,1.9971,2.0359,2.0725,2.1576,2.1596,2.1199,2.0427,1.9891,1.9123,1.7722,1.5859,1.3663,1.1005,0.9409,0.8099,0.7015,0.7669,0.9645,1.3271,1.572,1.8706,2.2586,2.6408,2.9144,3.0552,3.2827,3.4481,3.5407,3.4925,3.4662,3.4582,3.5156,3.478,3.3532,3.4454,3.3898,2.1456,2.1996,2.2601,2.3895,2.3113,2.2163,2.2569,2.1722,2.0687,2.0081,2.0014,1.9788,0.0,0.0,1.7676,1.7188,1.5915,1.5039,1.514,1.4604,1.4456,0.0,0.0,0.0,0.0,0.0,0.0,1.734,0.0,1.6193,1.652,1.6552,1.6101,1.5107,1.5268,1.4738,1.3396,1.3437,1.3339,1.3074,1.241,1.2419,1.295,1.229,1.2363,1.2986,1.2563,1.253,1.2717,1.233,1.1858,1.137,1.122,1.0983,1.0699,1.0571,1.0512,1.0466,1.021,0.9892,0.9562,0.9309,0.914,0.9144,0.9897,1.0608,1.1396,1.2269,1.3521,1.4791,1.5515,1.6267,1.7116,1.8148,1.8482,1.8932,2.0154,2.0389,2.0613,2.1441,2.1255,2.0804,2.0418,1.9563,1.8554,1.7416,1.6813,1.5634,1.3406,1.0855,0.9041,0.8512,0.7404,0.8412,1.2646,1.5176,1.7962,2.1305,2.5081,2.763,2.8668,3.0143,3.1551,3.2846,3.3063,3.3116,3.3006,3.461,3.4797,3.3683,3.407,3.3562,2.1694,2.2644,2.3812,2.4366,2.3697,2.3019,2.3483,2.1793,2.0289,2.0703,2.0118,1.9429,0.0,0.0,0.0,1.7182,1.663,0.0,1.4772,1.4955,0.0,0.0,0.0,1.6463,1.7718,1.6816,0.0,0.0,1.6375,1.5613,1.5487,1.5806,1.5616,1.4756,1.5015,1.4595,1.3396,1.3067,1.2864,1.2815,1.2429,1.2336,1.2455,1.2101,1.2245,1.2825,1.2331,1.2138,1.2172,1.1759,1.1345,1.0917,1.0761,1.0709,1.0761,1.0673,1.0588,1.0492,1.0405,1.0173,0.9836,0.9465,0.9335,0.9413,1.0002,1.0712,1.1513,1.2342,1.3662,1.4997,1.5738,1.6579,1.7434,1.8149,1.8335,1.8763,2.0107,2.0167,2.0237,2.1204,2.0767,2.011,1.967,1.9616,1.9284,1.8174,1.7635,1.6365,1.361,1.2007,1.0327,0.8273,0.728,0.7759,1.0167,1.3736,1.6406,1.7704,2.2728,2.5391,2.4772,2.7206,2.8965,2.981,3.1603,3.2249,3.169,3.3246,3.3747,3.3256,3.3458,3.3247,2.3937,2.4878,2.5832,2.6214,2.5407,2.4297,2.3465,2.2164,2.0875,2.0019,1.964,0.0,0.0,0.0,0.0,0.0,0.0,0.0,1.5299,1.5631,1.5905,0.0,1.6342,0.0,1.7864,1.7217,1.6888,0.0,1.6546,1.5907,1.5513,1.5916,1.5649,1.4564,1.4771,1.4432,1.342,1.3055,1.2856,1.2783,1.2529,1.2382,1.2382,1.2101,1.2237,1.2672,0.0,1.1886,1.1879,1.1333,1.0896,1.0564,1.0472,1.0486,1.0587,1.0685,1.0689,1.0674,1.0614,1.0499,1.0308,0.9758,0.9645,0.9843,1.0277,1.0969,1.1756,1.2691,1.3821,1.4879,1.5626,1.6202,1.6802,1.7602,1.7782,1.8168,1.9613,1.9617,1.9564,2.0226,1.9941,1.9424,1.8858,1.9167,1.9028,1.7681,1.7142,1.5923,1.3176,1.2353,1.1314,0.9509,0.8286,0.8157,0.9585,1.4164,1.6897,1.6756,2.2364,2.4983,2.3459,2.5143,2.6449,2.7156,2.9158,3.0185,3.0147,3.1705,3.2511,3.2572,3.2471,3.2416,2.6651,2.7401,2.7871,2.8347,2.7199,2.5377,2.3243,2.2505,2.1535,1.8898,0.0,0.0,1.7863,0.0,1.7514,1.7785,0.0,1.6013,1.6241,1.6405,1.6445,1.6318,1.7171,1.7747,1.7698,1.7534,1.7334,1.7127,1.6932,1.6587,1.6069,1.6325,1.5828,1.4416,1.4485,1.4139,1.3283,1.3077,1.2936,1.2865,1.2614,1.2545,1.2569,1.2323,1.2397,1.2654,0.0,0.0,1.1763,1.1045,1.0541,1.0228,1.0326,1.0318,1.0305,1.0625,1.0845,1.0947,1.082,1.0878,1.086,1.0118,1.0064,1.0324,1.0593,1.1251,1.2125,1.3051,1.3909,1.471,1.5442,1.5616,1.5847,1.6821,1.7037,1.7448,1.8858,1.898,1.8875,1.8965,1.9008,1.8808,1.8222,1.8539,1.833,1.6764,1.6143,1.503,1.2702,1.2331,1.1918,1.0844,0.9425,0.878,0.9349,1.4708,1.7607,1.658,2.2215,2.4899,2.3345,2.3719,2.4282,2.5007,2.6661,2.7873,2.8629,3.0162,3.12,3.1774,3.1352,3.139,2.637,2.7139,2.8015,2.8271,2.647,2.4523,2.4089,2.1982,0.0,0.0,0.0,1.8584,1.7884,1.7617,0.0,1.7489,0.0,0.0,0.0,0.0,1.707,0.0,0.0,0.0,0.0,0.0,0.0,0.0,0.0,1.673,1.6188,1.6009,1.5428,1.4276,1.3939,1.3411,1.2569,1.2437,1.2465,1.2656,1.2669,1.2816,1.3074,1.2924,1.2937,1.3048,1.2451,0.0,1.1754,1.1251,1.0539,0.9852,1.0402,1.0431,1.0205,1.0806,1.1124,1.1226,1.12,1.1327,1.1354,1.0617,1.0484,1.0601,1.0472,1.1424,1.2572,1.2763,1.372,1.4859,1.5645,1.5729,1.5792,1.6636,1.6804,1.7081,1.8165,1.875,1.8942,1.8539,1.8438,1.8408,1.8305,1.8442,1.8258,1.7374,1.6328,1.5127,1.3634,1.277,1.1418,0.9036,0.8519,0.7624,0.5872,1.1164,1.4085,1.2963,1.8213,2.1606,2.2136,2.277,2.3428,2.4098,2.6353,2.7611,2.7812,2.8813,2.9906,3.1063,3.0672,3.0654,2.8418,2.9333,2.9971,2.9713,2.8078,2.6009,2.3981,0.0,0.0,0.0,0.0,1.7356,1.6842,0.0,0.0,0.0,0.0,0.0,0.0,0.0,0.0,0.0,0.0,0.0,0.0,0.0,0.0,0.0,0.0,1.7385,1.6624,1.5853,1.5136,1.4469,1.3724,1.3097,1.2563,1.2393,1.2334,1.2396,1.2754,1.2983,1.3142,1.327,1.3349,1.3382,1.2704,0.0,1.202,1.1446,1.0889,1.0425,1.0549,1.0648,1.0747,1.0936,1.1254,1.1594,1.1444,1.1574,1.167,1.1107,1.1029,1.1118,1.092,1.1869,1.305,1.3214,1.3951,1.4782,1.5299,1.5123,1.5034,1.5944,1.6646,1.7258,1.7688,1.8027,1.8214,1.8002,1.766,1.7494,1.791,1.7783,1.7514,1.7274,1.5877,1.4358,1.2892,1.1474,1.0098,0.8847,0.7204,0.5942,0.5215,0.9641,1.2577,1.2879,1.8011,2.1422,2.2275,2.2586,2.3083,2.377,2.5695,2.7136,2.8074,2.8773,2.9833,3.1177,3.0359,3.0233,3.0296,3.1202,3.1515,3.0629,2.915,2.7011,2.3561,2.1799,0.0,0.0,0.0,0.0,0.0,0.0,0.0,0.0,0.0,0.0,0.0,0.0,0.0,0.0,0.0,0.0,0.0,0.0,0.0,0.0,0.0,0.0,1.6944,1.5827,1.5045,1.4624,1.3645,1.2975,1.2675,1.2392,1.2278,1.2339,1.2741,1.2964,1.307,1.3397,1.3536,1.3465,1.2909,0.0,0.0,1.1694,1.13,1.1031,1.0876,1.1017,1.132,1.1233,1.1567,1.2026,1.1753,1.1803,1.1927,1.1578,1.1601,1.1713,1.1539,1.2364,1.3399,1.3659,1.4167,1.4628,1.4811,1.4542,1.4428,1.5232,1.6382,1.7295,1.7216,1.7241,1.7346,1.7509,1.6892,1.6609,1.7494,1.7112,1.6792,1.7056,1.5474,1.3647,1.2002,1.0065,0.8701,0.8379,0.5908,0.4397,0.4685,0.8195,1.1198,1.3127,1.7864,2.113,2.2345,2.2499,2.288,2.3605,2.5219,2.687,2.8577,2.9007,2.9961,3.1295,3.0199,2.9952,3.0167,3.0572,3.0783,2.9201,2.7238,2.5166,2.3167,0.0,0.0,0.0,1.6257,1.5897,1.5966,0.0,0.0,0.0,0.0,0.0,0.0,0.0,0.0,0.0,0.0,0.0,0.0,0.0,0.0,0.0,0.0,0.0,1.6918,1.6098,1.5245,1.4353,1.3579,1.2993,1.2606,1.2055,1.211,1.2827,1.2466,1.251,1.2934,1.328,1.335,1.3236,1.3165,0.0,0.0,1.2116,1.1579,1.0987,1.1541,1.1664,1.1544,1.199,1.2369,1.2578,1.2323,1.2249,1.2249,1.2076,1.2128,1.2196,1.206,1.2708,1.3487,1.3513,1.4043,1.4571,1.4421,1.4504,1.4678,1.4753,1.5771,1.6668,1.6595,1.6602,1.6654,1.6915,1.6315,1.6141,1.7232,1.6882,1.66,1.7023,1.5556,1.3767,1.2034,0.9717,0.7676,0.6091,0.4896,0.3646,0.2257,0.5367,0.8649,1.1612,1.5046,1.8331,2.1315,2.201,2.264,2.3317,2.5444,2.7264,2.8765,2.8927,2.9629,3.0757,3.0039,2.9892,2.9407,3.0311,3.0857,2.9339,2.7505,2.5403,2.2858,0.0,0.0,1.5983,1.5012,1.4617,1.4876,1.5033,0.0,0.0,0.0,0.0,0.0,0.0,0.0,0.0,0.0,0.0,0.0,0.0,0.0,0.0,0.0,0.0,1.7282,1.6373,1.5502,1.4617,1.4079,1.3344,1.2368,1.24,1.2377,1.231,1.2557,1.2952,1.3451,1.3801,1.385,1.3663,1.3497,0.0,0.0,1.2503,1.2342,1.2052,1.2253,1.2453,1.2616,1.2443,1.2627,1.2973,1.2749,1.2652,1.2627,1.2397,1.2608,1.2866,1.2471,1.3055,1.3851,1.3766,1.4057,1.4394,1.4313,1.4382,1.4381,1.4112,1.4973,1.5851,1.5685,1.5593,1.5766,1.6574,1.5689,1.544,1.7427,1.6536,1.5896,1.6897,1.5284,1.3532,1.2359,1.0161,0.7948,0.6037,0.3731,0.2182,0.1771,0.4021,0.703,1.0769,1.4458,1.7725,2.0459,2.1485,2.2337,2.3045,2.4813,2.6501,2.8138,2.8464,2.9125,3.0089,2.9522,2.9559,2.8936,3.009,3.0712,2.9094,2.7429,2.5403,0.0,0.0,1.7656,1.5662,1.4693,1.4318,1.4579,1.4934,1.5109,0.0,0.0,0.0,0.0,0.0,0.0,0.0,0.0,0.0,0.0,0.0,0.0,0.0,0.0,0.0,0.0,1.6493,1.5594,1.4902,1.4381,1.3624,1.2625,1.2871,1.2795,1.2357,1.3034,1.3486,1.3729,1.4199,1.4248,1.3974,0.0,0.0,0.0,1.301,1.3045,1.2991,1.2956,1.3167,1.3403,1.2923,1.305,1.3396,1.3176,1.3113,1.3089,1.2973,1.3228,1.3505,1.3166,1.3484,1.3949,1.3914,1.4048,1.4162,1.4268,1.434,1.4261,1.3818,1.453,1.5243,1.5072,1.4853,1.5011,1.6137,1.523,1.5017,1.734,1.6266,1.5544,1.6811,1.5268,1.3593,1.2634,1.0568,0.8378,0.6182,0.3147,0.165,0.2562,0.3607,0.6332,1.1276,1.4534,1.7397,1.9907,2.1087,2.1939,2.2514,2.4166,2.5708,2.7168,2.7893,2.8662,2.9437,2.927,2.9729,2.9023,2.9878,3.011,2.8032,2.646,2.4716,0.0,1.9797,1.7922,1.6562,1.5869,1.5519,1.5655,1.6507,1.6919,1.6117,0.0,0.0,0.0,0.0,0.0,0.0,0.0,0.0,0.0,0.0,0.0,0.0,0.0,0.0,0.0,1.6309,1.5507,1.5114,1.4318,1.3803,1.3593,1.3394,1.3338,1.3382,1.3926,1.3953,1.3522,1.4325,1.4422,0.0,0.0,0.0,0.0,1.3668,1.3634,1.342,1.3692,1.3716,1.3597,1.3586,1.3763,1.3939,1.3692,1.3597,1.3634,1.3907,1.4001,1.4048,1.4303,1.4022,1.3668,1.3926,1.3924,1.3882,1.4201,1.4402,1.4421,1.4091,1.4517,1.4995,1.4918,1.4541,1.4517,1.5501,1.5059,1.5037,1.6804,1.6156,1.5772,1.6842,1.5573,1.4013,1.2657,1.085,0.8696,0.6087,0.3334,0.2553,0.4686,0.4211,0.6703,1.3537,1.5058,1.6935,1.9689,2.0826,2.1464,2.1621,2.3702,2.516,2.5915,2.7261,2.8221,2.8827,2.9409,3.0599,2.6068,2.6689,2.6854,2.5171,2.4177,2.291,2.0125,1.9755,1.9193,1.6286,1.6541,1.7187,1.6841,1.6595,1.669,1.7445,1.7305,0.0,0.0,0.0,0.0,0.0,0.0,0.0,0.0,0.0,0.0,0.0,0.0,0.0,0.0,1.7548,1.6669,1.5337,1.4517,1.3831,1.3267,1.3875,1.3788,1.3004,1.4085,1.4479,1.4279,1.4984,0.0,0.0,0.0,0.0,0.0,1.4126,1.4363,1.4284,1.4182,1.4172,1.4161,1.3706,1.3606,1.3736,1.3795,1.3803,1.3869,1.416,1.4432,1.4605,1.4605,1.4501,1.4322,1.4223,1.3948,1.3629,1.3525,1.3377,1.3266,1.3198,1.3588,1.401,1.4107,1.409,1.4363,1.53,1.51,1.5316,1.7012,1.6437,1.6075,1.699,1.598,1.4717,1.3597,1.182,0.989,0.7929,0.4724,0.3154,0.4204,0.5119,0.7734,1.2652,1.5853,1.8002,1.9007,2.0512,2.1341,2.1325,2.2573,2.3864,2.5144,2.5985,2.7369,2.9233,3.0352,3.129,0.0,2.4979,2.5065,2.3991,2.3089,2.1817,1.9412,1.9436,1.9277,1.68,1.7278,1.8049,1.7727,1.6997,1.6812,1.795,0.0,0.0,0.0,0.0,0.0,0.0,0.0,0.0,0.0,0.0,0.0,0.0,0.0,0.0,0.0,1.7881,1.7124,1.6036,1.5323,1.4593,1.3824,1.4617,1.4546,1.3661,1.4919,1.5372,1.5144,1.5748,0.0,0.0,0.0,0.0,0.0,1.4475,1.472,1.4663,1.4268,1.4159,1.4157,1.3748,1.3789,1.4071,1.4193,1.4378,1.4594,1.4982,1.522,1.5288,1.5153,1.4949,1.4636,1.4157,1.3897,1.3652,1.3202,1.2983,1.2915,1.3149,1.3244,1.3402,1.4004,1.4034,1.4162,1.4984,1.5112,1.5497,1.6768,1.6534,1.6372,1.7032,1.6302,1.5255,1.4163,1.2626,1.1029,0.935,0.6359,0.4917,0.6019,0.6496,0.8687,1.3306,1.6373,1.8335,1.9009,2.0361,2.1103,2.1199,2.2247,2.3321,2.4338,2.5763,2.7478,2.9473,3.0744,3.1719,0.0,2.4349,2.4331,2.3853,2.2742,2.1301,1.9575,1.8984,0.0,1.7876,1.802,1.8291,1.8298,1.7594,1.7238,1.7974,0.0,0.0,0.0,0.0,0.0,0.0,0.0,0.0,0.0,0.0,0.0,0.0,0.0,0.0,0.0,1.757,1.7115,1.7096,1.658,1.5865,1.5018,1.5477,1.5477,1.5012,1.6173,1.6451,1.5986,1.6451,0.0,0.0,0.0,0.0,0.0,1.4725,1.4784,1.4688,1.4038,1.3778,1.3752,1.3786,1.4234,1.4797,1.4848,1.5193,1.5686,1.6148,1.6151,1.5979,1.5859,1.5335,1.4638,1.3858,1.3821,1.3854,1.3249,1.3064,1.3195,1.3691,1.3275,1.311,1.4346,1.4217,1.4012,1.4632,1.5147,1.5664,1.6228,1.6516,1.6717,1.7009,1.6574,1.5743,1.442,1.3411,1.2143,1.0424,0.8154,0.7585,0.9666,0.835,0.9717,1.5085,1.6815,1.8193,1.9549,2.0294,2.0842,2.1183,2.2614,2.3491,2.3762,2.6429,2.8383,2.9608,3.0735,3.1911,2.0795,0.0,2.1633,2.0362,2.0172,1.9896,0.0,1.9452,2.0056,0.0,0.0,0.0,0.0,0.0,0.0,0.0,0.0,0.0,0.0,0.0,0.0,0.0,0.0,0.0,0.0,0.0,0.0,0.0,0.0,0.0,0.0,1.8674,1.8327,1.8231,1.7544,1.6553,1.5247,1.5649,1.5582,1.5076,1.6337,1.6419,1.5492,1.6225,0.0,0.0,0.0,0.0,1.4942,1.4799,1.4967,1.5216,1.4152,1.3839,1.4007,1.402,1.4312,1.4795,1.5312,1.5645,1.5869,1.6197,1.6151,1.5988,1.5957,1.5413,1.4707,1.421,1.3952,1.3699,1.3086,1.2796,1.272,1.2976,1.2776,1.2744,1.3657,1.4023,1.4393,1.51,1.571,1.6212,1.6602,1.6814,1.7015,1.7331,1.7342,1.6723,1.5111,1.4715,1.3821,1.1847,0.9586,0.9293,1.1973,1.118,1.2065,1.5638,1.8184,1.9532,1.9507,2.0183,2.0678,2.0958,2.2957,2.4365,2.5132,2.7214,2.8938,3.0295,3.1424,3.2332,1.9596,2.0321,2.099,2.0121,1.9972,1.983,1.9073,0.0,0.0,0.0,0.0,0.0,0.0,0.0,0.0,0.0,0.0,0.0,0.0,0.0,0.0,0.0,0.0,0.0,0.0,0.0,0.0,0.0,0.0,0.0,0.0,1.9176,1.8879,1.8745,1.8226,1.7295,1.5866,1.6213,1.6145,1.5653,1.6719,1.6789,1.6007,1.6465,1.6011,0.0,0.0,0.0,1.5027,1.4688,1.4727,1.4896,1.3846,1.357,1.3813,1.4116,1.4596,1.516,1.5722,1.6217,1.6597,1.6684,1.6603,1.6432,1.6272,1.5657,1.4949,1.4536,1.4269,1.3928,1.3286,1.2973,1.2861,1.3084,1.2782,1.2757,1.3905,1.4175,1.4446,1.5235,1.5884,1.6381,1.6666,1.6825,1.6994,1.7234,1.7141,1.6581,1.5243,1.5212,1.4782,1.3349,1.1988,1.195,1.3898,1.4376,1.5172,1.6606,1.9453,2.0831,2.0257,2.0574,2.1194,2.2082,2.3666,2.4871,2.564,2.7013,2.834,2.9643,3.049,3.1439,1.931,2.0135,2.1178,2.0987,2.0653,2.0308,2.0038,0.0,0.0,0.0,0.0,0.0,0.0,0.0,0.0,0.0,0.0,0.0,0.0,0.0,0.0,0.0,0.0,0.0,0.0,0.0,0.0,0.0,0.0,0.0,0.0,1.942,1.9161,1.9049,1.8646,1.7876,1.6767,1.6993,1.693,1.6579,1.7156,1.7209,1.678,1.6766,1.6136,0.0,0.0,0.0,1.501,1.4528,1.4394,1.4385,1.3546,1.3318,1.354,1.4196,1.487,1.5541,1.6029,1.6698,1.7321,1.7171,1.7086,1.6972,1.6616,1.5954,1.5288,1.496,1.4628,1.428,1.3705,1.3443,1.3367,1.3521,1.311,1.3068,1.4523,1.4547,1.4575,1.5531,1.6132,1.6581,1.674,1.6892,1.6998,1.7051,1.6774,1.6226,1.5318,1.5639,1.5605,1.4643,1.4435,1.4604,1.5213,1.7137,1.8198,1.7928,2.0607,2.1893,2.1234,2.1212,2.1908,2.3429,2.4317,2.5072,2.5698,2.6373,2.7357,2.8549,2.9025,3.0211,1.9182,1.9968,2.0711,1.9956,2.0284,2.0408,1.8869,0.0,0.0,0.0,0.0,0.0,0.0,0.0,0.0,0.0,0.0,0.0,0.0,0.0,0.0,0.0,0.0,0.0,0.0,0.0,0.0,0.0,0.0,0.0,0.0,1.98,1.9681,1.9663,1.8691,1.8064,1.7855,1.774,1.7686,1.7732,1.7285,1.6944,1.6701,1.6267,1.5614,0.0,0.0,1.4925,1.5193,1.4379,1.4334,1.4673,1.3976,1.3754,1.3873,1.4371,1.4893,1.5417,1.6068,1.6631,1.7037,1.6842,1.699,1.7146,1.6659,1.6054,1.5568,1.5625,1.504,1.4396,1.4339,1.4116,1.3865,1.3762,1.3601,1.3709,1.4748,1.5096,1.559,1.6911,1.7329,1.7479,1.7545,1.7634,1.7629,1.7387,1.7613,1.741,1.626,1.7272,1.7271,1.4995,1.5224,1.5406,1.5061,1.7611,1.9371,1.9763,2.1558,2.2332,2.172,2.1676,2.2181,2.3221,2.4159,2.4962,2.5635,2.6124,2.7038,2.8277,2.8798,2.992,1.9718,2.0339,2.0921,2.004,2.0345,2.0851,2.0845,0.0,0.0,0.0,0.0,0.0,0.0,0.0,0.0,0.0,0.0,0.0,0.0,0.0,0.0,0.0,0.0,0.0,0.0,0.0,0.0,0.0,0.0,0.0,0.0,0.0,2.0102,1.9962,1.9484,1.9102,1.8808,1.8417,1.8134,1.7941,1.7772,1.7484,1.706,1.649,1.5819,1.5133,0.0,1.4933,1.4992,1.4444,1.4351,1.448,1.403,1.3941,1.4123,1.4662,1.5215,1.5774,1.6446,1.6903,1.7248,1.7365,1.7491,1.7537,1.7031,1.6423,1.5957,1.6132,1.5625,1.4983,1.4949,1.4823,1.4617,1.4246,1.4199,1.44,1.5154,1.5536,1.6036,1.7142,1.7534,1.779,1.8019,1.7912,1.7734,1.7587,1.7625,1.7236,1.5956,1.7174,1.7326,1.5229,1.6025,1.6368,1.556,1.8456,2.0966,2.2525,2.3158,2.3157,2.2473,2.2693,2.2945,2.321,2.4227,2.4912,2.5219,2.5618,2.6442,2.7618,2.7635,2.8662,2.0411,2.0516,2.0714,2.0403,0.0,2.1195,2.2152,0.0,0.0,0.0,0.0,0.0,0.0,0.0,0.0,0.0,0.0,0.0,0.0,0.0,0.0,0.0,0.0,0.0,0.0,0.0,0.0,0.0,0.0,0.0,0.0,0.0,2.0388,1.9811,1.9983,1.9718,1.8947,1.8661,1.8389,1.8117,1.7931,1.7598,1.7078,1.6574,1.5935,1.5184,1.5226,1.5087,1.4825,1.459,1.4479,1.4447,1.4189,1.417,1.4306,1.4785,1.531,1.5892,1.6542,1.707,1.7502,1.7763,1.7926,1.7909,1.7427,1.6863,1.6426,1.6573,1.6185,1.5691,1.5479,1.5378,1.5232,1.4754,1.4789,1.5106,1.5808,1.6134,1.6593,1.7542,1.8011,1.8354,1.8708,1.842,1.8194,1.8326,1.7885,1.7174,1.6188,1.7175,1.7277,1.5495,1.6693,1.7355,1.6687,1.9396,2.2056,2.4197,2.4473,2.4186,2.3344,2.3494,2.3488,2.3264,2.4064,2.4594,2.4818,2.5068,2.5803,2.694,2.6601,2.749,2.1085,2.0039,1.9315,2.0692,0.0,0.0,2.0395,0.0,0.0,0.0,0.0,0.0,0.0,0.0,0.0,0.0,0.0,0.0,0.0,0.0,0.0,0.0,0.0,0.0,0.0,0.0,0.0,0.0,0.0,0.0,0.0,0.0,0.0,1.8944,1.9452,1.903,1.7558,1.8069,1.8463,1.8719,1.7236,1.6411,1.6176,1.6018,1.5428,1.4596,1.5155,1.5225,1.4967,1.4841,1.4842,1.4936,1.4794,1.4604,1.4413,1.4493,1.4807,1.525,1.5851,1.6746,1.7562,1.7464,1.7815,1.8167,1.7639,1.724,1.6947,1.6964,1.671,1.6328,1.5869,1.5625,1.5424,1.5131,1.53,1.5784,1.6771,1.7156,1.7688,1.8992,1.957,1.9854,1.9867,1.9643,1.9634,2.0137,1.909,1.8186,1.8024,1.8414,1.7946,1.5869,1.7039,1.8174,1.8744,2.0308,2.1831,2.3125,2.4931,2.5435,2.4259,2.3639,2.3354,2.338,2.3276,2.3653,2.4518,2.4545,2.5206,2.6444,2.6363,2.704,2.1565,2.1089,2.0646,2.0304,0.0,0.0,0.0,0.0,0.0,0.0,0.0,0.0,0.0,0.0,0.0,0.0,0.0,0.0,0.0,0.0,0.0,0.0,0.0,0.0,0.0,0.0,0.0,0.0,0.0,0.0,0.0,0.0,0.0,1.9645,1.9779,1.9309,1.8096,1.7909,1.782,1.7853,1.7213,1.6635,1.6151,1.6232,1.5754,1.492,1.5569,1.5638,1.5299,1.5118,1.5133,1.5239,1.5012,1.5066,1.524,1.5062,1.5197,1.5615,1.6603,1.7327,1.7858,1.7935,1.804,1.8082,1.7814,1.7406,1.7125,1.771,1.7514,1.7068,1.6849,1.6379,1.5975,1.612,1.6464,1.6916,1.7627,1.8117,1.8796,2.02,2.0153,2.0081,2.0761,2.0676,2.0524,2.0526,2.0004,1.9179,1.8048,1.829,1.7766,1.5723,1.6313,1.7316,1.8531,1.9189,2.0445,2.2473,2.4291,2.5048,2.4509,2.3749,2.3363,2.3403,2.3119,2.3186,2.3637,2.4042,2.4819,2.5895,2.5743,2.6426,2.1748,2.1181,2.0739,0.0,0.0,0.0,0.0,0.0,0.0,0.0,0.0,0.0,0.0,0.0,0.0,0.0,0.0,0.0,0.0,0.0,0.0,0.0,0.0,0.0,0.0,0.0,0.0,0.0,0.0,0.0,0.0,0.0,0.0,0.0,1.9393,1.8927,1.7578,1.7501,1.7302,1.6968,1.6913,1.6423,1.5602,1.5933,1.563,1.4852,1.5496,1.5715,1.561,1.5359,1.5445,1.5666,1.519,1.5479,1.6092,1.5577,1.574,1.6337,1.7245,1.7814,1.8171,1.8252,1.8195,1.8055,1.8023,1.7672,1.7457,1.8371,1.8209,1.7839,1.8101,1.7521,1.6925,1.6996,1.7407,1.7962,1.8584,1.9121,1.9826,2.1008,2.0998,2.1008,2.1617,2.1606,2.1522,2.1545,2.0911,2.0006,1.8743,1.8499,1.7895,1.6397,1.638,1.6949,1.8128,1.8328,1.9309,2.1477,2.2797,2.3801,2.444,2.3681,2.3264,2.3339,2.2817,2.2686,2.2981,2.3193,2.3943,2.5091,2.5032,2.555,2.1632,2.0019,0.0,0.0,0.0,0.0,0.0,0.0,0.0,0.0,0.0,0.0,0.0,0.0,0.0,0.0,0.0,0.0,0.0,0.0,0.0,0.0,0.0,0.0,0.0,0.0,0.0,0.0,0.0,0.0,0.0,0.0,0.0,0.0,1.8008,1.7671,1.5531,1.6756,1.7042,1.6301,1.6234,1.5538,1.4322,1.4943,1.4847,1.4236,1.4829,1.5413,1.5885,1.5551,1.5799,1.6324,1.5377,1.58,1.6813,1.5929,1.6333,1.7343,1.7617,1.8059,1.8478,1.8262,1.8202,1.8202,1.8202,1.8063,1.8065,1.8872,1.8771,1.8631,1.957,1.9122,1.8275,1.7654,1.8063,1.8829,1.9725,2.022,2.0705,2.1394,2.2316,2.2886,2.2506,2.2414,2.2689,2.3467,2.1904,2.0591,2.0495,1.9395,1.8453,1.8027,1.7587,1.745,1.7755,1.8041,1.8737,2.0016,2.0478,2.1744,2.4108,2.3343,2.2988,2.3196,2.2285,2.2083,2.2682,2.1944,2.2434,2.3985,2.4179,2.4347,2.2642,2.223,0.0,0.0,0.0,0.0,0.0,0.0,0.0,0.0,0.0,0.0,0.0,0.0,0.0,0.0,0.0,0.0,0.0,0.0,0.0,0.0,0.0,0.0,0.0,0.0,0.0,0.0,0.0,0.0,0.0,0.0,0.0,0.0,1.7872,1.7458,1.6218,1.6627,1.6694,1.6448,1.6477,1.572,1.4329,1.5059,1.5021,1.4377,1.5037,1.5589,1.6011,1.5682,1.617,1.7031,1.6278,1.6754,1.7838,1.7373,1.7365,1.7637,1.7997,1.8277,1.8459,1.8155,1.8002,1.7942,1.8129,1.8063,1.8085,1.8934,1.9263,1.9462,1.979,1.9919,1.9667,1.8536,1.8585,1.9181,2.0293,2.0809,2.1577,2.3277,2.3206,2.3104,2.3866,2.3606,2.3365,2.3708,2.2446,2.0937,1.9477,1.893,1.8521,1.8185,1.7973,1.7857,1.7813,1.7651,1.8204,1.9723,1.9894,2.112,2.3753,2.2553,2.2182,2.2896,2.2134,2.1611,2.1362,2.1615,2.1957,2.2385,2.2308,2.2575,2.2583,0.0,0.0,0.0,0.0,0.0,0.0,0.0,0.0,0.0,0.0,0.0,0.0,0.0,0.0,0.0,0.0,0.0,0.0,0.0,0.0,0.0,0.0,0.0,0.0,0.0,0.0,0.0,0.0,0.0,0.0,0.0,0.0,0.0,1.7375,1.7114,1.662,1.6659,1.6672,1.6657,1.6672,1.6063,1.4948,1.5074,1.4904,1.4519,1.5329,1.574,1.5871,1.6067,1.6648,1.7353,1.6814,1.7457,1.8669,1.8137,1.8049,1.8228,1.8431,1.8456,1.8392,1.8181,1.7982,1.7875,1.8055,1.8075,1.8274,1.9308,1.9786,2.0081,2.0415,2.0594,2.0419,1.9321,1.9459,2.0156,2.1366,2.1928,2.2641,2.4228,2.4055,2.3808,2.419,2.4089,2.3923,2.3877,2.2954,2.1558,1.9666,1.9743,1.9714,1.9033,1.8953,1.884,1.8596,1.7793,1.8061,1.9825,1.9641,2.0642,2.3307,2.2496,2.2253,2.2754,2.2068,2.1471,2.099,2.0831,2.0851,2.1017,2.0717,2.0949,0.0,0.0,0.0,0.0,0.0,0.0,0.0,0.0,0.0,0.0,0.0,0.0,0.0,0.0,0.0,0.0,0.0,0.0,0.0,0.0,0.0,0.0,0.0,0.0,0.0,0.0,0.0,0.0,0.0,0.0,0.0,0.0,0.0,1.6782,1.6735,1.676,1.6815,1.6828,1.6866,0.0,1.6866,1.6545,1.5979,1.5105,1.4694,1.4727,1.5664,1.5885,1.5654,1.6535,1.7101,1.7403,1.7099,1.7956,1.9266,1.8412,1.8475,1.8993,1.8855,1.8592,1.8319,1.8305,1.8135,1.7942,1.8002,1.8167,1.8575,1.9817,2.0237,2.048,2.1185,2.1088,2.0646,2.0003,2.0461,2.1405,2.2644,2.323,2.3765,2.4571,2.4874,2.4764,2.3931,2.4232,2.4451,2.4082,2.3443,2.2418,2.0824,2.1418,2.1548,2.0345,2.0291,2.0215,1.9872,1.8449,1.8382,2.0224,1.9837,2.057,2.2891,2.2907,2.2843,2.2849,2.2158,2.1622,2.1297,1.9738,1.9164,1.9488,1.8881,1.8972,0.0,0.0,0.0,0.0,0.0,0.0,0.0,0.0,0.0,0.0,0.0,0.0,0.0,0.0,0.0,0.0,0.0,0.0,0.0,0.0,0.0,0.0,0.0,0.0,0.0,0.0,0.0,0.0,0.0,0.0,0.0,0.0,0.0,1.6959,1.7043,1.7014,1.6888,1.7043,1.7059,0.0,1.7117,1.706,1.6811,1.5875,1.5338,1.5164,1.559,1.5921,1.6118,1.6086,1.6718,1.7709,1.7583,1.8186,1.9143,1.8941,1.8925,1.8993,1.8855,1.8644,1.8445,1.8338,1.8234,1.8149,1.822,1.8383,1.8728,1.964,2.0194,2.0613,2.0918,2.0972,2.0845,2.0384,2.0526,2.1179,2.2591,2.3285,2.4039,2.534,2.5453,2.5341,2.5386,2.5292,2.4956,2.4245,2.3917,2.3387,2.2336,2.2533,2.2323,2.1235,2.1322,2.1104,2.0274,1.9941,2.0093,2.0718,2.1549,2.2301,2.2908,2.2596,2.2964,2.4081,2.3046,2.2098,2.1286,1.8612,1.6734,1.5564,1.4088,1.3966,0.0,0.0,0.0,0.0,0.0,0.0,0.0,0.0,0.0,0.0,0.0,0.0,0.0,0.0,0.0,0.0,0.0,0.0,0.0,0.0,0.0,0.0,0.0,0.0,0.0,0.0,0.0,0.0,0.0,0.0,0.0,1.8427,1.7609,1.7154,1.686,1.6872,1.7183,1.7236,1.7228,1.7186,1.7236,1.7211,1.7079,1.6053,1.5474,1.5265,1.5498,1.5815,1.6176,1.6374,1.6918,1.7631,1.7847,1.8361,1.8974,1.9105,1.9157,1.9186,1.9191,1.9007,1.8755,1.8592,1.8397,1.8254,1.8254,1.8456,1.8906,1.99,2.0482,2.0905,2.14,2.1417,2.1202,2.0871,2.0836,2.1248,2.2517,2.3392,2.43,2.5692,2.5643,2.5351,2.5369,2.5132,2.4952,2.5043,2.4619,2.4079,2.3556,2.3537,2.3259,2.2484,2.2476,2.2127,2.116,2.0884,2.0847,2.0999,2.1968,2.2817,2.3402,2.3396,2.3761,2.4479,2.3243,2.22,2.1343,1.7843,1.5672,1.4717,1.2201,1.1859,0.0,0.0,0.0,0.0,0.0,0.0,0.0,0.0,0.0,0.0,0.0,0.0,0.0,0.0,0.0,0.0,0.0,0.0,0.0,0.0,0.0,0.0,0.0,0.0,0.0,0.0,0.0,0.0,0.0,0.0,1.9691,1.8203,1.7389,1.738,1.6766,1.6782,1.7486,1.7366,1.7318,1.7346,1.7252,1.7162,1.7079,1.6117,1.5583,1.5408,1.5578,1.5823,1.6182,1.6889,1.73,1.7509,1.7936,1.8352,1.8765,1.9039,1.924,1.9395,1.9574,1.9413,1.912,1.8969,1.8688,1.8431,1.8512,1.8775,1.931,2.056,2.1066,2.1382,2.2141,2.1983,2.1568,2.1326,2.1166,2.1367,2.2512,2.347,2.4482,2.5713,2.5615,2.5297,2.515,2.4917,2.5077,2.6144,2.5537,2.4883,2.4597,2.4561,2.4331,2.3719,2.3527,2.3107,2.2252,2.1676,2.1299,2.1211,2.2059,2.2923,2.374,2.4266,2.4547,2.464,2.331,2.2206,2.1338,1.7215,1.4772,1.3885,1.0921,1.0421,0.0,0.0,0.0,0.0,0.0,0.0,0.0,0.0,0.0,0.0,0.0,0.0,0.0,0.0,0.0,0.0,0.0,0.0,0.0,0.0,0.0,0.0,0.0,0.0,0.0,0.0,0.0,0.0,0.0,0.0,1.9866,1.8512,1.7726,1.7726,1.7523,1.7419,1.7413,1.7329,1.7253,1.7133,1.7186,1.7162,1.7095,1.6661,1.6336,1.6152,1.6188,1.6362,1.6634,1.6959,1.733,1.7673,1.7754,1.7996,1.8403,1.8812,1.9062,1.9277,1.9654,1.9596,1.9358,1.9339,1.9116,1.9023,1.9652,1.9928,2.0308,2.1754,2.2142,2.2219,2.2693,2.2296,2.1722,2.1592,2.1196,2.1259,2.2728,2.3645,2.451,2.5604,2.5654,2.5678,2.6333,2.6203,2.6388,2.7319,2.6911,2.6317,2.5744,2.5816,2.5527,2.4391,2.4118,2.3826,2.3406,2.2736,2.2119,2.1654,2.2863,2.3374,2.2892,2.3706,2.45,2.5177,2.3871,2.2525,2.1133,1.6569,1.2508,0.8932,0.7497,0.6904,0.0,0.0,0.0,0.0,0.0,0.0,0.0,0.0,0.0,0.0,0.0,0.0,0.0,0.0,0.0,0.0,0.0,0.0,0.0,0.0,0.0,0.0,0.0,0.0,0.0,0.0,0.0,0.0,0.0,2.0257,2.0174,1.8375,1.7486,1.7783,1.7333,1.7194,1.7396,1.7329,1.7224,1.7095,1.7137,1.7137,1.7095,1.6792,1.6528,1.6289,1.6024,1.6274,1.6855,1.6642,1.7033,1.7801,1.772,1.7889,1.8206,1.885,1.9095,1.9221,1.9782,1.9797,1.9545,1.949,1.9358,1.9268,1.9473,1.9675,2.011,2.151,2.1962,2.2179,2.2929,2.2663,2.2156,2.1983,2.1565,2.1477,2.2307,2.3118,2.3993,2.5091,2.5863,2.6393,2.6558,2.6711,2.7141,2.8117,2.7592,2.6908,2.6411,2.6405,2.6085,2.5212,2.4878,2.4476,2.3805,2.3361,2.2613,2.1494,2.2373,2.2936,2.2877,2.3078,2.3661,2.4612,2.3317,2.1941,2.053,1.62,1.2073,0.8203,0.7024,0.6422,0.0,0.0,0.0,0.0,0.0,0.0,0.0,0.0,0.0,0.0,0.0,0.0,0.0,0.0,0.0,0.0,0.0,0.0,0.0,0.0,0.0,0.0,0.0,0.0,0.0,0.0,0.0,0.0,0.0,2.0564,2.0518,1.8311,1.7309,1.7872,1.7099,1.6925,1.7415,1.7305,1.7203,1.7095,1.7095,1.7095,1.7095,1.7036,1.6767,1.6328,1.6201,1.6389,1.6763,1.6723,1.7093,1.7685,1.7747,1.7773,1.7901,1.8831,1.91,1.9108,1.9917,2.0065,1.9889,1.9836,1.9672,1.952,1.959,1.9831,2.0367,2.1555,2.2104,2.2546,2.3362,2.312,2.2649,2.264,2.2217,2.1888,2.2217,2.2909,2.3734,2.4631,2.5757,2.6581,2.6647,2.6915,2.7527,2.8724,2.828,2.7556,2.6842,2.6988,2.6834,2.5893,2.5529,2.5062,2.4397,2.3755,2.2862,2.1516,2.1908,2.2305,2.2532,2.233,2.26,2.347,2.2257,2.1109,2.0121,1.6363,1.2546,0.8765,0.7649,0.6916,0.0,0.0,0.0,0.0,0.0,0.0,0.0,0.0,0.0,0.0,0.0,0.0,0.0,0.0,0.0,0.0,0.0,0.0,0.0,0.0,0.0,0.0,0.0,0.0,0.0,0.0,0.0,0.0,0.0,2.085,2.0785,1.8498,1.748,1.8155,1.7152,1.688,1.7497,1.7236,1.7108,1.7095,1.7095,1.7095,1.7128,1.7607,1.7339,1.6524,1.7349,1.7104,1.6272,1.7757,1.789,1.7191,1.7685,1.7614,1.7379,1.8645,1.895,1.8893,2.0059,2.0477,2.0477,2.0594,2.0239,1.9926,2.074,2.1356,2.1946,2.2717,2.339,2.396,2.4266,2.3715,2.3201,2.3687,2.3054,2.2486,2.2949,2.3535,2.4072,2.446,2.4991,2.5756,2.6877,2.6975,2.7485,2.9198,2.9312,2.8636,2.7085,2.8002,2.8085,2.6283,2.5894,2.5686,2.5531,2.3921,2.2692,2.2081,2.1964,2.1728,2.1321,2.1339,2.1503,2.1815,2.083,2.0257,2.0193,1.7368,1.3866,0.9801,0.8966,0.7874,0.0,0.0,0.0,0.0,0.0,0.0,0.0,0.0,0.0,0.0,0.0,0.0,0.0,0.0,0.0,0.0,0.0,0.0,0.0,0.0,0.0,0.0,0.0,0.0,0.0,0.0,0.0,0.0,0.0,0.0,2.1189,1.9225,1.8148,1.8256,1.7768,1.7457,1.7361,1.7228,1.7149,1.7095,1.7095,1.7095,1.7111,1.7255,1.7077,1.6665,1.7406,1.7502,1.7114,1.7098,1.7316,1.7701,1.789,1.7916,1.8014,1.9319,1.9723,1.9695,2.0434,2.0579,2.0444,2.0544,2.0375,2.0255,2.1001,2.1348,2.1758,2.299,2.3281,2.3468,2.4469,2.3619,2.2586,2.2936,2.2511,2.2323,2.3434,2.4052,2.4552,2.5159,2.5841,2.6473,2.6961,2.7153,2.7577,2.8648,2.8414,2.7972,2.748,2.7571,2.7268,2.6203,2.5656,2.5303,2.5175,2.3941,2.2844,2.2128,2.1518,2.1117,2.0955,2.0655,2.0758,2.1366,2.0695,2.0048,1.9499,1.7476,1.4435,1.0535,0.9975,0.8567,0.0,0.0,0.0,0.0,0.0,0.0,0.0,0.0,0.0,0.0,0.0,0.0,0.0,0.0,0.0,0.0,0.0,0.0,0.0,0.0,0.0,0.0,0.0,0.0,0.0,0.0,0.0,0.0,0.0,0.0,2.1442,1.9425,1.813,1.7847,1.7883,1.7715,1.7341,1.7269,1.7199,1.7137,1.7137,1.7108,1.7111,1.7249,1.7097,1.674,1.7556,1.7664,1.7257,1.7267,1.7552,1.803,1.8434,1.8552,1.8614,1.9775,2.0104,2.0084,2.0699,2.0794,2.0678,2.0712,2.0577,2.0467,2.0984,2.1282,2.1737,2.3039,2.3175,2.3328,2.4881,2.4128,2.2898,2.2554,2.2351,2.2524,2.3568,2.4006,2.449,2.5443,2.5968,2.643,2.6972,2.7073,2.7341,2.8057,2.7805,2.7481,2.7361,2.721,2.6873,2.6179,2.5623,2.5259,2.5114,2.3962,2.3016,2.2535,2.1402,2.0724,2.0683,2.0119,2.0069,2.0658,2.0308,1.9889,1.9395,1.7663,1.5292,1.2354,1.1158,0.9361,0.0,0.0,0.0,0.0,0.0,0.0,0.0,0.0,0.0,0.0,0.0,0.0,0.0,0.0,0.0,0.0,0.0,0.0,0.0,0.0,0.0,0.0,0.0,0.0,0.0,0.0,0.0,0.0,0.0,2.1642,2.1525,1.9048,1.7426,1.6951,1.7438,1.7607,1.7396,1.7338,1.7273,1.7199,1.7199,1.7174,1.714,1.7729,1.7543,1.6769,1.7854,1.7615,1.6583,1.8377,1.8684,1.8143,1.9316,1.9455,1.9118,1.9928,2.0076,1.9971,2.0815,2.1151,2.1199,2.1215,2.0909,2.0561,2.0777,2.1318,2.205,2.2976,2.3291,2.3738,2.546,2.5188,2.4114,2.2726,2.2732,2.3116,2.3354,2.3415,2.3824,2.5238,2.5216,2.5468,2.6925,2.6803,2.6763,2.7559,2.7611,2.7332,2.6697,2.7033,2.7029,2.6188,2.5837,2.5623,2.549,2.4006,2.315,2.3297,2.1609,2.0522,2.0395,1.9759,1.9447,1.9591,1.9591,1.972,1.999,1.8041,1.6495,1.5275,1.2475,1.0248,2.1428,0.0,0.0,0.0,0.0,0.0,0.0,0.0,0.0,0.0,0.0,0.0,0.0,0.0,0.0,0.0,0.0,0.0,0.0,0.0,0.0,0.0,0.0,0.0,0.0,0.0,0.0,0.0,2.286,2.1844,2.185,1.9658,1.8229,1.7855,1.7803,1.7681,1.7462,1.7398,1.7334,1.7269,1.7326,1.7309,1.7277,1.798,1.7799,1.6995,1.8456,1.8543,1.7623,1.7604,1.7933,1.8468,1.8843,1.9249,1.9688,2.059,2.0943,2.0986,2.1228,2.1293,2.1309,2.1496,2.1309,2.1151,2.194,2.2605,2.3267,2.4052,2.4369,2.4342,2.3819,2.3539,2.3243,2.2567,2.2318,2.2496,2.3535,2.3643,2.3983,2.5431,2.5363,2.5452,2.6631,2.6444,2.6421,2.7219,2.6876,2.6646,2.6991,2.6496,2.6085,2.6026,2.5219,2.4766,2.4972,2.3728,2.3016,2.315,2.1476,2.0408,2.0257,1.9526,1.9119,1.9172,1.9368,1.9539,1.972,1.7854,1.6774,1.6354,1.2491,0.956,0.0,0.0,0.0,0.0,0.0,0.0,0.0,0.0,0.0,0.0,0.0,0.0,0.0,0.0,0.0,0.0,0.0,0.0,0.0,0.0,0.0,0.0,0.0,0.0,0.0,0.0,0.0,2.4184,2.2812,2.1612,2.0751,1.9408,1.8526,1.8211,1.7977,1.7749,1.7537,1.7486,1.7439,1.7434,1.746,1.7448,1.7398,1.7864,1.7683,1.7126,1.8474,1.8703,1.8137,1.8088,1.8572,1.9346,1.9634,1.9986,2.04,2.0895,2.1183,2.1324,2.1356,2.1418,2.148,2.1649,2.1799,2.2033,2.2617,2.3259,2.3918,2.4431,2.4663,2.4413,2.3011,2.2827,2.2899,2.2323,2.2151,2.24,2.3462,2.3702,2.4108,2.5508,2.5408,2.5431,2.6471,2.6323,2.6214,2.6713,2.6511,2.6448,2.6807,2.6331,2.5995,2.6081,2.525,2.4739,2.4871,2.3666,2.2979,2.3172,2.139,2.0219,2.0004,1.9397,1.8975,1.8789,1.9198,1.9057,1.839,1.7389,1.638,1.5291,1.2039,0.9885,2.5499,2.4679,0.0,0.0,0.0,0.0,2.4269,2.4331,0.0,0.0,0.0,0.0,0.0,0.0,0.0,0.0,0.0,0.0,0.0,0.0,0.0,0.0,0.0,0.0,0.0,2.4617,2.4276,2.3495,2.2514,2.1055,1.9028,1.8725,1.8514,1.8246,1.8031,1.7816,1.7624,1.7541,1.7541,1.7589,1.7601,1.7634,1.7654,1.7706,1.7607,1.7447,1.8414,1.8698,1.8525,1.9437,2.0024,2.0378,2.0891,2.1103,2.1103,2.0974,2.1039,2.1231,2.1294,2.1495,2.1739,2.1852,2.2325,2.2865,2.2966,2.3494,2.4108,2.4334,2.4428,2.4117,2.2824,2.276,2.2849,2.2078,2.2124,2.2508,2.3154,2.3485,2.4018,2.53,2.5267,2.531,2.6166,2.614,2.5995,2.6061,2.6286,2.642,2.6303,2.6354,2.6336,2.6161,2.5601,2.5179,2.5025,2.3752,2.3046,2.3275,2.1322,2.0041,1.9685,1.9349,1.8955,1.8471,1.8953,1.836,1.6581,1.6692,1.5566,1.3294,1.168,1.0912,2.6582,2.606,2.5661,0.0,0.0,0.0,0.0,2.2417,0.0,0.0,0.0,0.0,0.0,0.0,0.0,0.0,0.0,0.0,0.0,0.0,0.0,0.0,0.0,0.0,0.0,2.4267,2.3825,2.3654,2.1983,2.0406,1.9127,1.8861,1.8695,1.8532,1.8211,1.7955,1.7766,1.764,1.7571,1.7524,1.7635,1.8007,1.8624,1.8593,1.8806,1.9224,1.9978,2.0162,2.0041,2.0924,2.0958,2.0448,2.0417,2.0731,2.1167,2.1087,2.1151,2.1294,2.1356,2.1601,2.1999,2.2809,2.2852,2.2705,2.3403,2.3708,2.3891,2.4355,2.422,2.3805,2.3135,2.2832,2.2558,2.1947,2.191,2.2118,2.259,2.2718,2.2991,2.3795,2.4348,2.4689,2.4679,2.4935,2.5172,2.521,2.5421,2.5533,2.5529,2.5712,2.5825,2.5729,2.5599,2.5408,2.5127,2.3985,2.3268,2.315,2.125,1.9941,1.9556,1.9271,1.8814,1.819,1.8137,1.733,1.5725,1.5773,1.523,1.4165,1.3368,1.2231,2.7997,2.7353,2.675,2.5562,0.0,0.0,0.0,0.0,0.0,0.0,0.0,0.0,0.0,0.0,0.0,0.0,0.0,0.0,0.0,0.0,0.0,0.0,0.0,0.0,0.0,2.4873,2.4005,2.3017,2.1123,1.973,1.9137,1.8887,1.8518,1.8017,1.811,1.7892,1.7354,1.7519,1.7635,1.7692,1.7704,1.7912,1.8294,1.8334,1.8607,1.9101,1.9873,2.0275,2.0453,2.1202,2.1253,2.0869,2.1116,2.1135,2.1087,2.1404,2.1374,2.1199,2.1309,2.1815,2.2543,2.3184,2.3493,2.3756,2.4587,2.4538,2.4186,2.4113,2.3699,2.3209,2.2999,2.2785,2.2497,2.2089,2.2032,2.2189,2.2647,2.2748,2.288,2.3306,2.3452,2.3647,2.4126,2.4712,2.5108,2.5094,2.5495,2.5747,2.5623,2.5711,2.5865,2.6031,2.5812,2.5604,2.5508,2.4292,2.3313,2.2738,2.0686,1.9233,1.8637,1.7956,1.748,1.7216,1.6737,1.6063,1.5145,1.4819,1.4566,1.4396,1.4116,1.362,0.0,0.0,0.0,0.0,0.0,2.506,0.0,0.0,0.0,0.0,0.0,0.0,0.0,0.0,0.0,0.0,0.0,0.0,0.0,0.0,0.0,0.0,0.0,0.0,0.0,2.5208,2.3954,2.2342,2.0444,1.9361,1.9363,1.8977,1.835,1.7444,1.7989,1.7835,1.6914,1.7281,1.7597,1.7861,1.7608,1.7636,1.7894,1.8025,1.8358,1.8884,1.9601,2.0171,2.0635,2.1098,2.1246,2.1199,2.1729,2.1518,2.0957,2.1492,2.1449,2.1119,2.1246,2.2046,2.3093,2.3456,2.4122,2.4848,2.5331,2.4938,2.4218,2.363,2.3096,2.2712,2.2685,2.2646,2.2538,2.222,2.2192,2.2346,2.271,2.2727,2.2731,2.2878,2.2474,2.2508,2.3722,2.4261,2.4572,2.4691,2.5287,2.5593,2.5223,2.5405,2.5608,2.5702,2.5417,2.5225,2.5229,2.4086,2.3001,2.2214,2.0122,1.8583,1.7857,1.6822,1.6148,1.5933,1.5495,1.4969,1.4373,1.3882,1.3858,1.4257,1.428,1.4643,0.0,0.0,0.0,0.0,2.8326,0.0,0.0,0.0,0.0,0.0,0.0,0.0,0.0,0.0,0.0,0.0,0.0,0.0,0.0,0.0,0.0,0.0,0.0,0.0,0.0,0.0,2.2715,2.2325,2.0594,1.9796,2.0315,1.9476,1.8511,1.7524,1.8185,1.8026,1.6914,1.6952,1.7224,1.7721,1.7031,1.7373,1.8588,1.8656,1.9324,2.0453,2.0608,2.09,2.1304,2.1292,2.1167,2.0942,2.1021,2.0989,2.0909,2.0922,2.1004,2.1119,2.1246,2.2093,2.322,2.4031,2.4592,2.4841,2.4167,2.3502,2.2953,2.2641,2.2661,2.2712,2.2366,2.2474,2.2548,2.2058,2.2147,2.231,2.2089,2.174,2.15,2.1513,2.1288,2.1469,2.273,2.2292,2.2026,2.2867,2.3353,2.3364,2.2618,2.3615,2.3996,2.2989,2.324,2.33,2.2842,2.2374,2.1989,2.1708,1.9931,1.8728,1.8328,1.7352,1.609,1.4555,1.5214,1.4668,1.2856,1.3011,1.329,1.3681,1.381,1.463,0.0,0.0,0.0,0.0,0.0,0.0,0.0,0.0,2.4155,0.0,0.0,0.0,0.0,0.0,0.0,0.0,0.0,0.0,0.0,0.0,0.0,0.0,0.0,0.0,0.0,0.0,0.0,0.0,0.0,1.9682,1.9847,1.935,1.8415,1.7024,1.7586,1.7449,1.6497,1.676,1.698,1.7177,1.6755,1.6992,1.7844,1.7949,1.8873,2.0415,2.0533,2.084,2.1278,2.1246,2.1103,2.0893,2.0893,2.0877,2.0907,2.132,2.1341,2.1183,2.1404,2.2171,2.314,2.3703,2.4626,2.5189,2.3414,2.3113,2.325,2.2634,2.2901,2.3323,2.3093,2.3417,2.3592,2.2693,2.2773,2.2884,2.2363,2.2266,2.2203,2.192,2.1505,2.1401,2.2054,2.1872,2.1812,2.2337,2.2623,2.2684,2.2416,2.2809,2.3075,2.3041,2.3033,2.3007,2.2988,2.2421,2.1714,2.084,1.8609,1.7039,1.6337,1.5534,1.4775,1.4014,1.4436,1.4335,1.3714,1.3938,1.4272,1.4687,1.4365,1.4801,3.4486,0.0,0.0,0.0,0.0,0.0,0.0,0.0,0.0,0.0,0.0,0.0,0.0,0.0,0.0,0.0,0.0,0.0,0.0,0.0,0.0,0.0,0.0,0.0,0.0,0.0,0.0,0.0,0.0,0.0,2.0107,1.9515,1.8499,1.701,1.7324,1.7197,1.6545,1.6633,1.6821,1.7099,1.6699,1.6769,1.7244,1.7741,1.8673,1.989,2.0489,2.09,2.1183,2.1199,2.1119,2.0942,2.0942,2.0925,2.0956,2.1497,2.1502,2.1262,2.1465,2.2218,2.3158,2.3804,2.4596,2.5009,2.3514,2.3474,2.3842,2.3392,2.3739,2.4209,2.4027,2.4325,2.4399,2.3289,2.3302,2.3357,2.2661,2.2489,2.2393,2.2116,2.1452,2.0993,2.1182,2.1274,2.1456,2.1877,2.2073,2.213,2.1983,2.2044,2.2239,2.2553,2.2303,2.2202,2.2427,2.198,2.1157,1.9919,1.7982,1.6308,1.5081,1.4667,1.4232,1.3666,1.3951,1.4092,1.4015,1.4388,1.4785,1.515,1.4891,1.5219,0.0,0.0,0.0,3.1004,0.0,0.0,0.0,0.0,2.7194,0.0,0.0,0.0,0.0,0.0,0.0,0.0,0.0,0.0,0.0,0.0,0.0,0.0,0.0,0.0,0.0,0.0,0.0,0.0,0.0,0.0,2.1838,2.0315,1.8919,1.7884,1.7816,1.7652,1.7364,1.6545,1.6714,1.786,1.7001,1.6831,1.7343,1.8782,1.9304,1.9138,2.0828,2.1387,2.1103,2.123,2.1231,2.1087,2.1087,2.1087,2.107,2.0974,2.1103,2.1325,2.1371,2.2186,2.342,2.4859,2.4638,2.3924,2.4766,2.4675,2.4409,2.5049,2.5287,2.5291,2.5027,2.4907,2.4655,2.3616,2.3548,2.3467,2.2674,2.1785,2.1199,2.1397,2.0526,1.9802,1.9935,1.9915,2.0177,2.1084,2.1459,2.1323,2.0478,2.1102,2.1277,2.0402,2.0173,2.0068,2.0022,2.0226,1.9949,1.9,1.8747,1.7697,1.5666,1.5995,1.5293,1.3356,1.4027,1.3852,1.2757,1.3611,1.4128,1.4357,1.5063,1.5937,0.0,0.0,3.7053,3.2627,0.0,0.0,0.0,0.0,0.0,0.0,0.0,0.0,0.0,0.0,0.0,0.0,0.0,0.0,0.0,0.0,0.0,0.0,0.0,0.0,0.0,0.0,0.0,0.0,2.2427,0.0,0.0,2.0974,1.9871,1.8864,1.7722,1.7279,1.7533,1.6044,1.5964,1.7226,1.6306,1.6625,1.8036,1.8503,1.9379,2.0552,2.1099,2.131,2.1246,2.1277,2.1341,2.1419,2.1419,2.1466,2.1465,2.1199,2.1278,2.1542,2.1831,2.2912,2.4128,2.3735,2.4188,2.4851,2.4651,2.4953,2.5273,2.4832,2.505,2.5335,2.5013,2.524,2.5282,2.4118,2.4251,2.4275,2.3024,2.2453,2.2108,2.1898,2.117,2.048,2.021,2.0141,2.0257,2.062,2.075,2.0716,2.0459,2.069,2.0756,2.0439,2.0327,2.0247,2.0169,2.0001,1.9733,1.9321,1.8747,1.8108,1.735,1.7079,1.6465,1.5454,1.5232,1.4979,1.4694,1.4938,1.5279,1.5696,1.6304,1.6621,3.771,3.7659,0.0,3.342,3.2617,0.0,2.9669,0.0,0.0,0.0,0.0,0.0,0.0,0.0,0.0,0.0,0.0,0.0,0.0,0.0,0.0,0.0,0.0,0.0,0.0,0.0,2.3091,2.3619,2.2218,0.0,0.0,0.0,2.06,1.9885,1.8517,1.7779,1.7751,1.6485,1.6229,1.6924,1.6567,1.7121,1.8505,1.8634,1.9528,2.0952,2.1243,2.1341,2.1309,2.1479,2.1602,2.1664,2.1664,2.1739,2.1783,2.1481,2.1737,2.229,2.2858,2.3631,2.4242,2.3469,2.4064,2.5084,2.4944,2.5396,2.5906,2.5534,2.5536,2.5574,2.5263,2.562,2.5725,2.4441,2.4626,2.4669,2.3064,2.2543,2.2256,2.1823,2.1456,2.1128,2.085,2.106,2.1093,2.0523,2.0437,2.0455,2.0491,2.0529,2.0544,2.0535,2.0483,2.042,2.0376,2.0134,1.9931,1.9788,1.9243,1.8763,1.8385,1.8238,1.7877,1.7293,1.7122,1.7061,1.7123,1.7203,1.7395,1.7691,1.8012,1.7989]}]]